Black River (Missouri), Williamsville (07062575)

StateMissouriLatestLow (922 cfs)
RiverBlack RiverRatingObservedEstimated
Updated2020-08-14 5:30 (35 minutes ago)Flood - The river is flooding. Obstacles can be treacherous or deadly. The river should be avoided at this stage for casual trips and definitely for the inexperienced. Trips should be attempted only with protective gear and equipment.Flood(none)4990
Discharge922 cfs (median: 462 cfs)High - The river is high and potentially dangerous, especially for the young and / or inexperienced. Normal stream obstacles are sometimes difficult to navigate. Extended distances can be attempted, but canoe travel may not be advisable.High(none)2640
Height4.22 feetGood - Conditions are ideal for a canoe or kayak. Boats typically will drag on fewer than one-quarter of riffles, if at all, and portages are unnecessary or rare. Normal float lengths can be attempted without a problem.Good(none)1928
TrendSteady (falling over 24 hours)Low - River is low but can still be floated. Some riffles are okay but most come with significant dragging and might need a portage. Float lengths should be reduced to accommodate low flow, dragging, and portages.Low(none)641
USGSExternal icon USGS Site (External icon Google Maps)Poor - River is too low to float comfortably. Most or all riffles will drag or must be portaged and some obstacles (such as slick shelf rock) cause undue problems. Avoid the river at this stage for casual paddling trips.Poor(none)289

Trending Data

Plot Image

Trips for Black River (Missouri), Williamsville (07062575)

DateStartEndDistanceConditionDischargeHeightFishingDetails

A total of 0 rows are displayed.

Condition Descriptions

Fishing Conditions

Fish Species

Notes

Classic Trip List

The classic River Trips application is still available for use. It is updated with the new system using a data retrofit. It is no longer maintained. The original River Trips application is no longer updated (as of 1 Dec 2016) but can be checked for errors or for the condition of the data before it was converted to the new system.

Gauge Data Table

ObservationHeightDischargeMaximum
Discharge
Minimum
Discharge
Mean
Discharge
P05P10P20P25P50
(Median)
P75P80P90P95
2020-08-14 05:30 4.22 922 3770 (2013) 240 (2012) 1090 274 360 372 462 1640 2560 3660
2020-08-14 04:30 4.22 922 3770 (2013) 240 (2012) 1090 274 360 372 462 1640 2560 3660
2020-08-14 03:30 4.22 922 3770 (2013) 240 (2012) 1090 274 360 372 462 1640 2560 3660
2020-08-14 02:30 4.23 929 3770 (2013) 240 (2012) 1090 274 360 372 462 1640 2560 3660
2020-08-14 01:30 4.23 929 3770 (2013) 240 (2012) 1090 274 360 372 462 1640 2560 3660
2020-08-14 00:30 4.24 935 3770 (2013) 240 (2012) 1090 274 360 372 462 1640 2560 3660
2020-08-13 23:30 4.24 935 3690 (2013) 240 (2012) 918 275 360 370 495 1150 1600 3190
2020-08-13 22:30 4.25 941 3690 (2013) 240 (2012) 918 275 360 370 495 1150 1600 3190
2020-08-13 21:30 4.26 948 3690 (2013) 240 (2012) 918 275 360 370 495 1150 1600 3190
2020-08-13 20:30 4.27 954 3690 (2013) 240 (2012) 918 275 360 370 495 1150 1600 3190
2020-08-13 19:30 4.27 954 3690 (2013) 240 (2012) 918 275 360 370 495 1150 1600 3190
2020-08-13 18:30 4.29 967 3690 (2013) 240 (2012) 918 275 360 370 495 1150 1600 3190
2020-08-13 17:30 4.30 973 3690 (2013) 240 (2012) 918 275 360 370 495 1150 1600 3190
2020-08-13 16:30 4.31 979 3690 (2013) 240 (2012) 918 275 360 370 495 1150 1600 3190
2020-08-13 15:30 4.32 986 3690 (2013) 240 (2012) 918 275 360 370 495 1150 1600 3190
2020-08-13 14:30 4.33 992 3690 (2013) 240 (2012) 918 275 360 370 495 1150 1600 3190
2020-08-13 13:30 4.35 1010 3690 (2013) 240 (2012) 918 275 360 370 495 1150 1600 3190
2020-08-13 12:30 4.36 1010 3690 (2013) 240 (2012) 918 275 360 370 495 1150 1600 3190
2020-08-13 11:30 4.38 1020 3690 (2013) 240 (2012) 918 275 360 370 495 1150 1600 3190
2020-08-13 10:30 4.39 1030 3690 (2013) 240 (2012) 918 275 360 370 495 1150 1600 3190
2020-08-13 09:30 4.41 1040 3690 (2013) 240 (2012) 918 275 360 370 495 1150 1600 3190
2020-08-13 08:30 4.43 1060 3690 (2013) 240 (2012) 918 275 360 370 495 1150 1600 3190
2020-08-13 07:30 4.44 1060 3690 (2013) 240 (2012) 918 275 360 370 495 1150 1600 3190
2020-08-13 06:30 4.46 1080 3690 (2013) 240 (2012) 918 275 360 370 495 1150 1600 3190
2020-08-13 05:30 4.48 1090 3690 (2013) 240 (2012) 918 275 360 370 495 1150 1600 3190
2020-08-13 04:30 4.49 1100 3690 (2013) 240 (2012) 918 275 360 370 495 1150 1600 3190
2020-08-13 03:30 4.47 1080 3690 (2013) 240 (2012) 918 275 360 370 495 1150 1600 3190
2020-08-13 02:30 4.43 1060 3690 (2013) 240 (2012) 918 275 360 370 495 1150 1600 3190
2020-08-13 01:30 4.45 1070 3690 (2013) 240 (2012) 918 275 360 370 495 1150 1600 3190
2020-08-13 00:30 4.51 1110 3690 (2013) 240 (2012) 918 275 360 370 495 1150 1600 3190
2020-08-12 23:30 4.59 1160 3500 (2013) 239 (2012) 841 276 383 397 439 761 1280 3040
2020-08-12 22:30 4.70 1240 3500 (2013) 239 (2012) 841 276 383 397 439 761 1280 3040
2020-08-12 21:30 4.86 1350 3500 (2013) 239 (2012) 841 276 383 397 439 761 1280 3040
2020-08-12 20:30 5.17 1580 3500 (2013) 239 (2012) 841 276 383 397 439 761 1280 3040
2020-08-12 19:30 5.68 1970 3500 (2013) 239 (2012) 841 276 383 397 439 761 1280 3040
2020-08-12 18:30 5.40 1750 3500 (2013) 239 (2012) 841 276 383 397 439 761 1280 3040
2020-08-12 17:30 4.41 1040 3500 (2013) 239 (2012) 841 276 383 397 439 761 1280 3040
2020-08-12 16:30 4.05 819 3500 (2013) 239 (2012) 841 276 383 397 439 761 1280 3040
2020-08-12 15:30 4.03 807 3500 (2013) 239 (2012) 841 276 383 397 439 761 1280 3040
2020-08-12 14:30 4.03 807 3500 (2013) 239 (2012) 841 276 383 397 439 761 1280 3040
2020-08-12 13:30 4.03 807 3500 (2013) 239 (2012) 841 276 383 397 439 761 1280 3040
2020-08-12 12:30 4.04 813 3500 (2013) 239 (2012) 841 276 383 397 439 761 1280 3040
2020-08-12 11:30 4.05 819 3500 (2013) 239 (2012) 841 276 383 397 439 761 1280 3040
2020-08-12 10:30 4.05 819 3500 (2013) 239 (2012) 841 276 383 397 439 761 1280 3040
2020-08-12 09:30 4.06 825 3500 (2013) 239 (2012) 841 276 383 397 439 761 1280 3040
2020-08-12 08:30 4.07 831 3500 (2013) 239 (2012) 841 276 383 397 439 761 1280 3040
2020-08-12 07:30 4.08 837 3500 (2013) 239 (2012) 841 276 383 397 439 761 1280 3040
2020-08-12 06:30 4.09 843 3500 (2013) 239 (2012) 841 276 383 397 439 761 1280 3040
2020-08-12 05:30 4.10 849 3500 (2013) 239 (2012) 841 276 383 397 439 761 1280 3040
2020-08-12 04:30 4.12 861 3500 (2013) 239 (2012) 841 276 383 397 439 761 1280 3040
2020-08-12 03:30 4.13 867 3500 (2013) 239 (2012) 841 276 383 397 439 761 1280 3040
2020-08-12 02:30 4.15 879 3500 (2013) 239 (2012) 841 276 383 397 439 761 1280 3040
2020-08-12 01:30 4.18 898 3500 (2013) 239 (2012) 841 276 383 397 439 761 1280 3040
2020-08-12 00:30 4.20 910 3500 (2013) 239 (2012) 841 276 383 397 439 761 1280 3040
2020-08-11 23:30 4.24 935 3140 (2013) 239 (2012) 736 276 384 399 438 780 934 2520
2020-08-11 22:30 4.27 954 3140 (2013) 239 (2012) 736 276 384 399 438 780 934 2520
2020-08-11 21:30 4.32 986 3140 (2013) 239 (2012) 736 276 384 399 438 780 934 2520
2020-08-11 20:30 4.38 1020 3140 (2013) 239 (2012) 736 276 384 399 438 780 934 2520
2020-08-11 19:30 4.45 1070 3140 (2013) 239 (2012) 736 276 384 399 438 780 934 2520
2020-08-11 18:30 4.54 1130 3140 (2013) 239 (2012) 736 276 384 399 438 780 934 2520
2020-08-11 17:30 4.63 1190 3140 (2013) 239 (2012) 736 276 384 399 438 780 934 2520
2020-08-11 16:30 4.72 1250 3140 (2013) 239 (2012) 736 276 384 399 438 780 934 2520
2020-08-11 15:30 4.82 1320 3140 (2013) 239 (2012) 736 276 384 399 438 780 934 2520
2020-08-11 14:30 4.94 1410 3140 (2013) 239 (2012) 736 276 384 399 438 780 934 2520
2020-08-11 13:30 4.94 1410 3140 (2013) 239 (2012) 736 276 384 399 438 780 934 2520
2020-08-11 12:30 4.61 1180 3140 (2013) 239 (2012) 736 276 384 399 438 780 934 2520
2020-08-11 11:30 4.45 1070 3140 (2013) 239 (2012) 736 276 384 399 438 780 934 2520
2020-08-11 10:30 4.46 1080 3140 (2013) 239 (2012) 736 276 384 399 438 780 934 2520
2020-08-11 09:30 4.46 1080 3140 (2013) 239 (2012) 736 276 384 399 438 780 934 2520
2020-08-11 08:30 4.47 1080 3140 (2013) 239 (2012) 736 276 384 399 438 780 934 2520
2020-08-11 07:30 4.48 1090 3140 (2013) 239 (2012) 736 276 384 399 438 780 934 2520
2020-08-11 06:30 4.48 1090 3140 (2013) 239 (2012) 736 276 384 399 438 780 934 2520
2020-08-11 05:30 4.49 1100 3140 (2013) 239 (2012) 736 276 384 399 438 780 934 2520
2020-08-11 04:30 4.50 1100 3140 (2013) 239 (2012) 736 276 384 399 438 780 934 2520
2020-08-11 03:30 4.51 1110 3140 (2013) 239 (2012) 736 276 384 399 438 780 934 2520
2020-08-11 02:30 4.52 1120 3140 (2013) 239 (2012) 736 276 384 399 438 780 934 2520
2020-08-11 01:30 4.54 1130 3140 (2013) 239 (2012) 736 276 384 399 438 780 934 2520
2020-08-11 00:30 4.56 1140 3140 (2013) 239 (2012) 736 276 384 399 438 780 934 2520
2020-08-10 23:30 4.59 1160 3220 (2013) 240 (2012) 765 278 378 388 442 824 881 2540
2020-08-10 22:30 4.61 1180 3220 (2013) 240 (2012) 765 278 378 388 442 824 881 2540
2020-08-10 21:30 4.65 1200 3220 (2013) 240 (2012) 765 278 378 388 442 824 881 2540
2020-08-10 20:30 4.70 1240 3220 (2013) 240 (2012) 765 278 378 388 442 824 881 2540
2020-08-10 19:30 4.75 1270 3220 (2013) 240 (2012) 765 278 378 388 442 824 881 2540
2020-08-10 18:30 4.82 1320 3220 (2013) 240 (2012) 765 278 378 388 442 824 881 2540
2020-08-10 17:30 4.89 1370 3220 (2013) 240 (2012) 765 278 378 388 442 824 881 2540
2020-08-10 16:30 4.96 1420 3220 (2013) 240 (2012) 765 278 378 388 442 824 881 2540
2020-08-10 15:30 5.02 1470 3220 (2013) 240 (2012) 765 278 378 388 442 824 881 2540
2020-08-10 14:30 5.05 1490 3220 (2013) 240 (2012) 765 278 378 388 442 824 881 2540
2020-08-10 13:30 5.07 1500 3220 (2013) 240 (2012) 765 278 378 388 442 824 881 2540
2020-08-10 12:30 5.07 1500 3220 (2013) 240 (2012) 765 278 378 388 442 824 881 2540
2020-08-10 11:30 5.07 1500 3220 (2013) 240 (2012) 765 278 378 388 442 824 881 2540
2020-08-10 10:30 5.08 1510 3220 (2013) 240 (2012) 765 278 378 388 442 824 881 2540
2020-08-10 09:30 5.08 1510 3220 (2013) 240 (2012) 765 278 378 388 442 824 881 2540
2020-08-10 08:30 5.08 1510 3220 (2013) 240 (2012) 765 278 378 388 442 824 881 2540
2020-08-10 07:30 5.08 1510 3220 (2013) 240 (2012) 765 278 378 388 442 824 881 2540
2020-08-10 06:30 5.08 1510 3220 (2013) 240 (2012) 765 278 378 388 442 824 881 2540
2020-08-10 05:30 5.09 1520 3220 (2013) 240 (2012) 765 278 378 388 442 824 881 2540
2020-08-10 04:30 5.08 1510 3220 (2013) 240 (2012) 765 278 378 388 442 824 881 2540
2020-08-10 03:30 5.09 1520 3220 (2013) 240 (2012) 765 278 378 388 442 824 881 2540
2020-08-10 02:30 5.08 1510 3220 (2013) 240 (2012) 765 278 378 388 442 824 881 2540
2020-08-10 01:30 5.08 1510 3220 (2013) 240 (2012) 765 278 378 388 442 824 881 2540
2020-08-10 00:30 5.08 1510 3220 (2013) 240 (2012) 765 278 378 388 442 824 881 2540
2020-08-09 23:30 5.08 1510 2550 (2013) 241 (2012) 692 279 369 376 417 811 829 2030
2020-08-09 22:30 5.08 1510 2550 (2013) 241 (2012) 692 279 369 376 417 811 829 2030
2020-08-09 21:30 5.09 1520 2550 (2013) 241 (2012) 692 279 369 376 417 811 829 2030
2020-08-09 20:30 5.09 1520 2550 (2013) 241 (2012) 692 279 369 376 417 811 829 2030
2020-08-09 19:30 5.09 1520 2550 (2013) 241 (2012) 692 279 369 376 417 811 829 2030
2020-08-09 18:30 5.09 1520 2550 (2013) 241 (2012) 692 279 369 376 417 811 829 2030
2020-08-09 17:30 5.10 1530 2550 (2013) 241 (2012) 692 279 369 376 417 811 829 2030
2020-08-09 16:30 5.10 1530 2550 (2013) 241 (2012) 692 279 369 376 417 811 829 2030
2020-08-09 15:30 5.10 1530 2550 (2013) 241 (2012) 692 279 369 376 417 811 829 2030
2020-08-09 14:30 5.11 1530 2550 (2013) 241 (2012) 692 279 369 376 417 811 829 2030
2020-08-09 13:30 5.11 1530 2550 (2013) 241 (2012) 692 279 369 376 417 811 829 2030
2020-08-09 12:30 5.11 1530 2550 (2013) 241 (2012) 692 279 369 376 417 811 829 2030
2020-08-09 11:30 5.11 1530 2550 (2013) 241 (2012) 692 279 369 376 417 811 829 2030
2020-08-09 10:30 5.11 1530 2550 (2013) 241 (2012) 692 279 369 376 417 811 829 2030
2020-08-09 09:30 5.11 1530 2550 (2013) 241 (2012) 692 279 369 376 417 811 829 2030
2020-08-09 08:30 5.11 1530 2550 (2013) 241 (2012) 692 279 369 376 417 811 829 2030
2020-08-09 07:30 5.12 1540 2550 (2013) 241 (2012) 692 279 369 376 417 811 829 2030
2020-08-09 06:30 5.11 1530 2550 (2013) 241 (2012) 692 279 369 376 417 811 829 2030
2020-08-09 05:30 5.11 1530 2550 (2013) 241 (2012) 692 279 369 376 417 811 829 2030
2020-08-09 04:30 5.12 1540 2550 (2013) 241 (2012) 692 279 369 376 417 811 829 2030
2020-08-09 03:30 5.12 1540 2550 (2013) 241 (2012) 692 279 369 376 417 811 829 2030
2020-08-09 02:30 5.13 1550 2550 (2013) 241 (2012) 692 279 369 376 417 811 829 2030
2020-08-09 01:30 5.13 1550 2550 (2013) 241 (2012) 692 279 369 376 417 811 829 2030
2020-08-09 00:30 5.13 1550 2550 (2013) 241 (2012) 692 279 369 376 417 811 829 2030
2020-08-08 23:30 5.14 1550 2130 (2013) 242 (2012) 638 280 369 371 442 730 761 1730
2020-08-08 22:30 5.14 1550 2130 (2013) 242 (2012) 638 280 369 371 442 730 761 1730
2020-08-08 21:30 5.14 1550 2130 (2013) 242 (2012) 638 280 369 371 442 730 761 1730
2020-08-08 20:30 5.14 1550 2130 (2013) 242 (2012) 638 280 369 371 442 730 761 1730
2020-08-08 19:30 5.14 1550 2130 (2013) 242 (2012) 638 280 369 371 442 730 761 1730
2020-08-08 18:30 5.15 1560 2130 (2013) 242 (2012) 638 280 369 371 442 730 761 1730
2020-08-08 17:30 5.15 1560 2130 (2013) 242 (2012) 638 280 369 371 442 730 761 1730
2020-08-08 16:30 5.15 1560 2130 (2013) 242 (2012) 638 280 369 371 442 730 761 1730
2020-08-08 15:30 5.16 1570 2130 (2013) 242 (2012) 638 280 369 371 442 730 761 1730
2020-08-08 14:30 5.16 1570 2130 (2013) 242 (2012) 638 280 369 371 442 730 761 1730
2020-08-08 13:30 5.16 1570 2130 (2013) 242 (2012) 638 280 369 371 442 730 761 1730
2020-08-08 12:30 5.16 1570 2130 (2013) 242 (2012) 638 280 369 371 442 730 761 1730
2020-08-08 11:30 5.16 1570 2130 (2013) 242 (2012) 638 280 369 371 442 730 761 1730
2020-08-08 10:30 5.16 1570 2130 (2013) 242 (2012) 638 280 369 371 442 730 761 1730
2020-08-08 09:30 5.17 1580 2130 (2013) 242 (2012) 638 280 369 371 442 730 761 1730
2020-08-08 08:30 5.17 1580 2130 (2013) 242 (2012) 638 280 369 371 442 730 761 1730
2020-08-08 07:30 5.17 1580 2130 (2013) 242 (2012) 638 280 369 371 442 730 761 1730
2020-08-08 06:30 5.17 1580 2130 (2013) 242 (2012) 638 280 369 371 442 730 761 1730
2020-08-08 05:30 5.17 1580 2130 (2013) 242 (2012) 638 280 369 371 442 730 761 1730
2020-08-08 04:30 5.17 1580 2130 (2013) 242 (2012) 638 280 369 371 442 730 761 1730
2020-08-08 03:30 5.18 1580 2130 (2013) 242 (2012) 638 280 369 371 442 730 761 1730
2020-08-08 02:30 5.18 1580 2130 (2013) 242 (2012) 638 280 369 371 442 730 761 1730
2020-08-08 01:30 5.19 1590 2130 (2013) 242 (2012) 638 280 369 371 442 730 761 1730
2020-08-08 00:30 5.19 1590 2130 (2013) 242 (2012) 638 280 369 371 442 730 761 1730
2020-08-07 23:30 5.20 1600 2740 (2013) 259 (2012) 672 293 372 376 471 673 713 2140
2020-08-07 22:30 5.22 1610 2740 (2013) 259 (2012) 672 293 372 376 471 673 713 2140
2020-08-07 21:30 5.23 1620 2740 (2013) 259 (2012) 672 293 372 376 471 673 713 2140
2020-08-07 20:30 5.24 1630 2740 (2013) 259 (2012) 672 293 372 376 471 673 713 2140
2020-08-07 19:30 5.26 1640 2740 (2013) 259 (2012) 672 293 372 376 471 673 713 2140
2020-08-07 18:30 5.29 1670 2740 (2013) 259 (2012) 672 293 372 376 471 673 713 2140
2020-08-07 17:30 5.32 1690 2740 (2013) 259 (2012) 672 293 372 376 471 673 713 2140
2020-08-07 16:30 5.35 1710 2740 (2013) 259 (2012) 672 293 372 376 471 673 713 2140
2020-08-07 15:30 5.38 1730 2740 (2013) 259 (2012) 672 293 372 376 471 673 713 2140
2020-08-07 14:30 5.40 1750 2740 (2013) 259 (2012) 672 293 372 376 471 673 713 2140
2020-08-07 13:30 5.40 1750 2740 (2013) 259 (2012) 672 293 372 376 471 673 713 2140
2020-08-07 12:30 5.41 1760 2740 (2013) 259 (2012) 672 293 372 376 471 673 713 2140
2020-08-07 11:30 5.41 1760 2740 (2013) 259 (2012) 672 293 372 376 471 673 713 2140
2020-08-07 10:30 5.41 1760 2740 (2013) 259 (2012) 672 293 372 376 471 673 713 2140
2020-08-07 09:30 5.41 1760 2740 (2013) 259 (2012) 672 293 372 376 471 673 713 2140
2020-08-07 08:30 5.41 1760 2740 (2013) 259 (2012) 672 293 372 376 471 673 713 2140
2020-08-07 07:30 5.41 1760 2740 (2013) 259 (2012) 672 293 372 376 471 673 713 2140
2020-08-07 06:30 5.40 1750 2740 (2013) 259 (2012) 672 293 372 376 471 673 713 2140
2020-08-07 05:30 5.41 1760 2740 (2013) 259 (2012) 672 293 372 376 471 673 713 2140
2020-08-07 04:30 5.41 1760 2740 (2013) 259 (2012) 672 293 372 376 471 673 713 2140
2020-08-07 03:30 5.41 1760 2740 (2013) 259 (2012) 672 293 372 376 471 673 713 2140
2020-08-07 02:30 5.41 1760 2740 (2013) 259 (2012) 672 293 372 376 471 673 713 2140
2020-08-07 01:30 5.41 1760 2740 (2013) 259 (2012) 672 293 372 376 471 673 713 2140
2020-08-07 00:30 5.41 1760 2740 (2013) 259 (2012) 672 293 372 376 471 673 713 2140
2020-08-06 23:30 5.40 1750 1630 (2013) 255 (2012) 587 289 369 376 480 660 729 1390
2020-08-06 22:30 5.41 1760 1630 (2013) 255 (2012) 587 289 369 376 480 660 729 1390
2020-08-06 21:30 5.40 1750 1630 (2013) 255 (2012) 587 289 369 376 480 660 729 1390
2020-08-06 20:30 5.40 1750 1630 (2013) 255 (2012) 587 289 369 376 480 660 729 1390
2020-08-06 19:30 5.40 1750 1630 (2013) 255 (2012) 587 289 369 376 480 660 729 1390
2020-08-06 18:30 5.40 1750 1630 (2013) 255 (2012) 587 289 369 376 480 660 729 1390
2020-08-06 17:30 5.40 1750 1630 (2013) 255 (2012) 587 289 369 376 480 660 729 1390
2020-08-06 16:30 5.40 1750 1630 (2013) 255 (2012) 587 289 369 376 480 660 729 1390
2020-08-06 15:30 5.39 1740 1630 (2013) 255 (2012) 587 289 369 376 480 660 729 1390
2020-08-06 14:30 5.39 1760 1630 (2013) 255 (2012) 587 289 369 376 480 660 729 1390
2020-08-06 13:30 5.39 1760 1630 (2013) 255 (2012) 587 289 369 376 480 660 729 1390
2020-08-06 12:30 5.39 1760 1630 (2013) 255 (2012) 587 289 369 376 480 660 729 1390
2020-08-06 11:30 5.38 1750 1630 (2013) 255 (2012) 587 289 369 376 480 660 729 1390
2020-08-06 10:30 5.38 1750 1630 (2013) 255 (2012) 587 289 369 376 480 660 729 1390
2020-08-06 09:30 5.37 1750 1630 (2013) 255 (2012) 587 289 369 376 480 660 729 1390
2020-08-06 08:30 5.36 1740 1630 (2013) 255 (2012) 587 289 369 376 480 660 729 1390
2020-08-06 07:30 5.35 1730 1630 (2013) 255 (2012) 587 289 369 376 480 660 729 1390
2020-08-06 06:30 5.33 1720 1630 (2013) 255 (2012) 587 289 369 376 480 660 729 1390
2020-08-06 05:30 5.32 1710 1630 (2013) 255 (2012) 587 289 369 376 480 660 729 1390
2020-08-06 04:30 5.29 1690 1630 (2013) 255 (2012) 587 289 369 376 480 660 729 1390
2020-08-06 03:30 5.26 1660 1630 (2013) 255 (2012) 587 289 369 376 480 660 729 1390
2020-08-06 02:30 5.23 1640 1630 (2013) 255 (2012) 587 289 369 376 480 660 729 1390
2020-08-06 01:30 5.20 1620 1630 (2013) 255 (2012) 587 289 369 376 480 660 729 1390
2020-08-06 00:30 5.16 1590 1630 (2013) 255 (2012) 587 289 369 376 480 660 729 1390
2020-08-05 23:30 5.12 1560 782 (2015) 253 (2012) 496 281 361 377 504 569 616 750
2020-08-05 22:30 5.11 1550 782 (2015) 253 (2012) 496 281 361 377 504 569 616 750
2020-08-05 21:30 5.10 1550 782 (2015) 253 (2012) 496 281 361 377 504 569 616 750
2020-08-05 20:30 5.10 1550 782 (2015) 253 (2012) 496 281 361 377 504 569 616 750
2020-08-05 19:30 5.10 1550 782 (2015) 253 (2012) 496 281 361 377 504 569 616 750
2020-08-05 18:30 5.10 1550 782 (2015) 253 (2012) 496 281 361 377 504 569 616 750
2020-08-05 17:30 5.10 1550 782 (2015) 253 (2012) 496 281 361 377 504 569 616 750
2020-08-05 16:30 5.09 1540 782 (2015) 253 (2012) 496 281 361 377 504 569 616 750
2020-08-05 15:30 5.09 1540 782 (2015) 253 (2012) 496 281 361 377 504 569 616 750
2020-08-05 14:30 5.10 1550 782 (2015) 253 (2012) 496 281 361 377 504 569 616 750
2020-08-05 13:30 5.10 1550 782 (2015) 253 (2012) 496 281 361 377 504 569 616 750
2020-08-05 12:30 5.09 1540 782 (2015) 253 (2012) 496 281 361 377 504 569 616 750
2020-08-05 11:30 5.09 1540 782 (2015) 253 (2012) 496 281 361 377 504 569 616 750
2020-08-05 10:30 5.09 1540 782 (2015) 253 (2012) 496 281 361 377 504 569 616 750
2020-08-05 09:30 5.09 1540 782 (2015) 253 (2012) 496 281 361 377 504 569 616 750
2020-08-05 08:30 5.08 1530 782 (2015) 253 (2012) 496 281 361 377 504 569 616 750
2020-08-05 07:30 5.08 1530 782 (2015) 253 (2012) 496 281 361 377 504 569 616 750
2020-08-05 06:30 5.07 1530 782 (2015) 253 (2012) 496 281 361 377 504 569 616 750
2020-08-05 05:30 5.07 1530 782 (2015) 253 (2012) 496 281 361 377 504 569 616 750
2020-08-05 04:30 5.06 1520 782 (2015) 253 (2012) 496 281 361 377 504 569 616 750
2020-08-05 03:30 5.06 1520 782 (2015) 253 (2012) 496 281 361 377 504 569 616 750
2020-08-05 02:30 5.05 1510 782 (2015) 253 (2012) 496 281 361 377 504 569 616 750
2020-08-05 01:30 5.05 1510 782 (2015) 253 (2012) 496 281 361 377 504 569 616 750
2020-08-05 00:30 5.04 1500 782 (2015) 253 (2012) 496 281 361 377 504 569 616 750
2020-08-04 23:30 5.03 1500 928 (2016) 253 (2012) 516 280 357 376 525 554 612 859
2020-08-04 22:30 5.02 1490 928 (2016) 253 (2012) 516 280 357 376 525 554 612 859
2020-08-04 21:30 5.00 1480 928 (2016) 253 (2012) 516 280 357 376 525 554 612 859
2020-08-04 20:30 4.98 1460 928 (2016) 253 (2012) 516 280 357 376 525 554 612 859
2020-08-04 19:30 4.96 1450 928 (2016) 253 (2012) 516 280 357 376 525 554 612 859
2020-08-04 18:30 4.93 1420 928 (2016) 253 (2012) 516 280 357 376 525 554 612 859
2020-08-04 17:30 4.90 1400 928 (2016) 253 (2012) 516 280 357 376 525 554 612 859
2020-08-04 16:30 4.87 1380 928 (2016) 253 (2012) 516 280 357 376 525 554 612 859
2020-08-04 15:30 4.84 1360 928 (2016) 253 (2012) 516 280 357 376 525 554 612 859
2020-08-04 14:30 4.82 1340 928 (2016) 253 (2012) 516 280 357 376 525 554 612 859
2020-08-04 13:30 4.81 1340 928 (2016) 253 (2012) 516 280 357 376 525 554 612 859
2020-08-04 12:30 4.81 1340 928 (2016) 253 (2012) 516 280 357 376 525 554 612 859
2020-08-04 11:30 4.81 1340 928 (2016) 253 (2012) 516 280 357 376 525 554 612 859
2020-08-04 10:30 4.80 1330 928 (2016) 253 (2012) 516 280 357 376 525 554 612 859
2020-08-04 09:30 4.80 1330 928 (2016) 253 (2012) 516 280 357 376 525 554 612 859
2020-08-04 08:30 4.79 1320 928 (2016) 253 (2012) 516 280 357 376 525 554 612 859
2020-08-04 07:30 4.79 1320 928 (2016) 253 (2012) 516 280 357 376 525 554 612 859
2020-08-04 06:30 4.78 1320 928 (2016) 253 (2012) 516 280 357 376 525 554 612 859
2020-08-04 05:30 4.77 1310 928 (2016) 253 (2012) 516 280 357 376 525 554 612 859
2020-08-04 04:30 4.76 1300 928 (2016) 253 (2012) 516 280 357 376 525 554 612 859
2020-08-04 03:30 4.75 1300 928 (2016) 253 (2012) 516 280 357 376 525 554 612 859
2020-08-04 02:30 4.73 1280 928 (2016) 253 (2012) 516 280 357 376 525 554 612 859
2020-08-04 01:30 4.72 1270 928 (2016) 253 (2012) 516 280 357 376 525 554 612 859
2020-08-04 00:30 4.70 1260 928 (2016) 253 (2012) 516 280 357 376 525 554 612 859
2020-08-03 23:30 4.66 1230 963 (2016) 255 (2012) 564 287 364 388 541 657 782 956
2020-08-03 22:30 4.63 1210 963 (2016) 255 (2012) 564 287 364 388 541 657 782 956
2020-08-03 21:30 4.59 1180 963 (2016) 255 (2012) 564 287 364 388 541 657 782 956
2020-08-03 20:30 4.54 1150 963 (2016) 255 (2012) 564 287 364 388 541 657 782 956
2020-08-03 19:30 4.47 1100 963 (2016) 255 (2012) 564 287 364 388 541 657 782 956
2020-08-03 18:30 4.38 1040 963 (2016) 255 (2012) 564 287 364 388 541 657 782 956
2020-08-03 17:30 4.28 979 963 (2016) 255 (2012) 564 287 364 388 541 657 782 956
2020-08-03 16:30 4.18 916 963 (2016) 255 (2012) 564 287 364 388 541 657 782 956
2020-08-03 15:30 4.08 855 963 (2016) 255 (2012) 564 287 364 388 541 657 782 956
2020-08-03 14:30 4.02 819 963 (2016) 255 (2012) 564 287 364 388 541 657 782 956
2020-08-03 13:30 4.00 807 963 (2016) 255 (2012) 564 287 364 388 541 657 782 956
2020-08-03 12:30 3.99 801 963 (2016) 255 (2012) 564 287 364 388 541 657 782 956
2020-08-03 11:30 3.99 801 963 (2016) 255 (2012) 564 287 364 388 541 657 782 956
2020-08-03 10:30 3.99 801 963 (2016) 255 (2012) 564 287 364 388 541 657 782 956
2020-08-03 09:30 3.99 801 963 (2016) 255 (2012) 564 287 364 388 541 657 782 956
2020-08-03 08:30 3.99 801 963 (2016) 255 (2012) 564 287 364 388 541 657 782 956
2020-08-03 07:30 3.99 801 963 (2016) 255 (2012) 564 287 364 388 541 657 782 956
2020-08-03 06:30 3.99 801 963 (2016) 255 (2012) 564 287 364 388 541 657 782 956
2020-08-03 05:30 3.99 801 963 (2016) 255 (2012) 564 287 364 388 541 657 782 956
2020-08-03 04:30 3.99 801 963 (2016) 255 (2012) 564 287 364 388 541 657 782 956
2020-08-03 03:30 3.99 801 963 (2016) 255 (2012) 564 287 364 388 541 657 782 956
2020-08-03 02:30 3.99 801 963 (2016) 255 (2012) 564 287 364 388 541 657 782 956
2020-08-03 01:30 4.00 807 963 (2016) 255 (2012) 564 287 364 388 541 657 782 956
2020-08-03 00:30 4.00 807 963 (2016) 255 (2012) 564 287 364 388 541 657 782 956
2020-08-02 23:30 4.00 807 1750 (2019) 257 (2012) 660 289 373 403 531 850 981 1540
2020-08-02 22:30 4.00 807 1750 (2019) 257 (2012) 660 289 373 403 531 850 981 1540
2020-08-02 21:30 4.00 807 1750 (2019) 257 (2012) 660 289 373 403 531 850 981 1540
2020-08-02 20:30 4.01 813 1750 (2019) 257 (2012) 660 289 373 403 531 850 981 1540
2020-08-02 19:30 4.01 813 1750 (2019) 257 (2012) 660 289 373 403 531 850 981 1540
2020-08-02 18:30 4.01 813 1750 (2019) 257 (2012) 660 289 373 403 531 850 981 1540
2020-08-02 17:30 4.01 813 1750 (2019) 257 (2012) 660 289 373 403 531 850 981 1540
2020-08-02 16:30 4.01 813 1750 (2019) 257 (2012) 660 289 373 403 531 850 981 1540
2020-08-02 15:30 4.01 813 1750 (2019) 257 (2012) 660 289 373 403 531 850 981 1540
2020-08-02 14:30 4.02 819 1750 (2019) 257 (2012) 660 289 373 403 531 850 981 1540
2020-08-02 13:30 4.02 819 1750 (2019) 257 (2012) 660 289 373 403 531 850 981 1540
2020-08-02 12:30 4.02 819 1750 (2019) 257 (2012) 660 289 373 403 531 850 981 1540
2020-08-02 11:30 4.03 825 1750 (2019) 257 (2012) 660 289 373 403 531 850 981 1540
2020-08-02 10:30 4.03 825 1750 (2019) 257 (2012) 660 289 373 403 531 850 981 1540
2020-08-02 09:30 4.03 825 1750 (2019) 257 (2012) 660 289 373 403 531 850 981 1540
2020-08-02 08:30 4.03 825 1750 (2019) 257 (2012) 660 289 373 403 531 850 981 1540
2020-08-02 07:30 4.04 831 1750 (2019) 257 (2012) 660 289 373 403 531 850 981 1540
2020-08-02 06:30 4.04 831 1750 (2019) 257 (2012) 660 289 373 403 531 850 981 1540
2020-08-02 05:30 4.04 831 1750 (2019) 257 (2012) 660 289 373 403 531 850 981 1540
2020-08-02 04:30 4.05 837 1750 (2019) 257 (2012) 660 289 373 403 531 850 981 1540
2020-08-02 03:30 4.05 837 1750 (2019) 257 (2012) 660 289 373 403 531 850 981 1540
2020-08-02 02:30 4.06 843 1750 (2019) 257 (2012) 660 289 373 403 531 850 981 1540
2020-08-02 01:30 4.07 849 1750 (2019) 257 (2012) 660 289 373 403 531 850 981 1540
2020-08-02 00:30 4.07 849 1750 (2019) 257 (2012) 660 289 373 403 531 850 981 1540
2020-08-01 23:30 4.08 855 1780 (2019) 257 (2012) 674 284 382 422 517 625 957 1680
2020-08-01 22:30 4.09 861 1780 (2019) 257 (2012) 674 284 382 422 517 625 957 1680
2020-08-01 21:30 4.10 867 1780 (2019) 257 (2012) 674 284 382 422 517 625 957 1680
2020-08-01 20:30 4.11 873 1780 (2019) 257 (2012) 674 284 382 422 517 625 957 1680
2020-08-01 19:30 4.12 879 1780 (2019) 257 (2012) 674 284 382 422 517 625 957 1680
2020-08-01 18:30 4.13 885 1780 (2019) 257 (2012) 674 284 382 422 517 625 957 1680
2020-08-01 17:30 4.15 898 1780 (2019) 257 (2012) 674 284 382 422 517 625 957 1680
2020-08-01 16:30 4.16 904 1780 (2019) 257 (2012) 674 284 382 422 517 625 957 1680
2020-08-01 15:30 4.18 916 1780 (2019) 257 (2012) 674 284 382 422 517 625 957 1680
2020-08-01 14:30 4.19 922 1780 (2019) 257 (2012) 674 284 382 422 517 625 957 1680
2020-08-01 13:30 4.21 935 1780 (2019) 257 (2012) 674 284 382 422 517 625 957 1680
2020-08-01 12:30 4.23 948 1780 (2019) 257 (2012) 674 284 382 422 517 625 957 1680
2020-08-01 11:30 4.26 967 1780 (2019) 257 (2012) 674 284 382 422 517 625 957 1680
2020-08-01 10:30 4.29 986 1780 (2019) 257 (2012) 674 284 382 422 517 625 957 1680
2020-08-01 09:30 4.32 1010 1780 (2019) 257 (2012) 674 284 382 422 517 625 957 1680
2020-08-01 08:30 4.36 1030 1780 (2019) 257 (2012) 674 284 382 422 517 625 957 1680
2020-08-01 07:30 4.40 1060 1780 (2019) 257 (2012) 674 284 382 422 517 625 957 1680
2020-08-01 06:30 4.44 1080 1780 (2019) 257 (2012) 674 284 382 422 517 625 957 1680
2020-08-01 05:30 4.48 1110 1780 (2019) 257 (2012) 674 284 382 422 517 625 957 1680
2020-08-01 04:30 4.49 1120 1780 (2019) 257 (2012) 674 284 382 422 517 625 957 1680
2020-08-01 03:30 4.50 1120 1780 (2019) 257 (2012) 674 284 382 422 517 625 957 1680
2020-08-01 02:30 4.47 1100 1780 (2019) 257 (2012) 674 284 382 422 517 625 957 1680
2020-08-01 01:30 4.44 1080 1780 (2019) 257 (2012) 674 284 382 422 517 625 957 1680
2020-08-01 00:30 4.43 1080 1780 (2019) 257 (2012) 674 284 382 422 517 625 957 1680
2020-07-31 23:30 4.44 1080 1860 (2017) 257 (2012) 684 285 389 428 515 707 1050 1750
2020-07-31 22:30 4.47 1100 1860 (2017) 257 (2012) 684 285 389 428 515 707 1050 1750
2020-07-31 21:30 4.47 1100 1860 (2017) 257 (2012) 684 285 389 428 515 707 1050 1750
2020-07-31 20:30 4.44 1080 1860 (2017) 257 (2012) 684 285 389 428 515 707 1050 1750
2020-07-31 19:30 4.33 1010 1860 (2017) 257 (2012) 684 285 389 428 515 707 1050 1750
2020-07-31 18:30 4.18 916 1860 (2017) 257 (2012) 684 285 389 428 515 707 1050 1750
2020-07-31 17:30 4.07 849 1860 (2017) 257 (2012) 684 285 389 428 515 707 1050 1750
2020-07-31 16:30 4.04 831 1860 (2017) 257 (2012) 684 285 389 428 515 707 1050 1750
2020-07-31 15:30 4.02 819 1860 (2017) 257 (2012) 684 285 389 428 515 707 1050 1750
2020-07-31 14:30 3.91 754 1860 (2017) 257 (2012) 684 285 389 428 515 707 1050 1750
2020-07-31 13:30 3.89 743 1860 (2017) 257 (2012) 684 285 389 428 515 707 1050 1750
2020-07-31 12:30 3.89 743 1860 (2017) 257 (2012) 684 285 389 428 515 707 1050 1750
2020-07-31 11:30 3.89 743 1860 (2017) 257 (2012) 684 285 389 428 515 707 1050 1750
2020-07-31 10:30 3.87 731 1860 (2017) 257 (2012) 684 285 389 428 515 707 1050 1750
2020-07-31 09:30 3.87 731 1860 (2017) 257 (2012) 684 285 389 428 515 707 1050 1750
2020-07-31 08:30 3.87 731 1860 (2017) 257 (2012) 684 285 389 428 515 707 1050 1750
2020-07-31 07:30 3.87 731 1860 (2017) 257 (2012) 684 285 389 428 515 707 1050 1750
2020-07-31 06:30 3.87 731 1860 (2017) 257 (2012) 684 285 389 428 515 707 1050 1750
2020-07-31 05:30 3.87 731 1860 (2017) 257 (2012) 684 285 389 428 515 707 1050 1750
2020-07-31 04:30 3.87 731 1860 (2017) 257 (2012) 684 285 389 428 515 707 1050 1750
2020-07-31 03:30 3.87 731 1860 (2017) 257 (2012) 684 285 389 428 515 707 1050 1750
2020-07-31 02:30 3.87 731 1860 (2017) 257 (2012) 684 285 389 428 515 707 1050 1750
2020-07-31 01:30 3.86 725 1860 (2017) 257 (2012) 684 285 389 428 515 707 1050 1750
2020-07-31 00:30 3.86 725 1860 (2017) 257 (2012) 684 285 389 428 515 707 1050 1750
2020-07-30 23:30 3.85 720 2000 (2017) 262 (2012) 666 294 399 432 487 747 910 1720
2020-07-30 22:30 3.85 720 2000 (2017) 262 (2012) 666 294 399 432 487 747 910 1720
2020-07-30 21:30 3.84 714 2000 (2017) 262 (2012) 666 294 399 432 487 747 910 1720
2020-07-30 20:30 3.84 714 2000 (2017) 262 (2012) 666 294 399 432 487 747 910 1720
2020-07-30 19:30 3.83 708 2000 (2017) 262 (2012) 666 294 399 432 487 747 910 1720
2020-07-30 18:30 3.82 703 2000 (2017) 262 (2012) 666 294 399 432 487 747 910 1720
2020-07-30 17:30 3.81 697 2000 (2017) 262 (2012) 666 294 399 432 487 747 910 1720
2020-07-30 16:30 3.80 692 2000 (2017) 262 (2012) 666 294 399 432 487 747 910 1720
2020-07-30 15:30 3.80 692 2000 (2017) 262 (2012) 666 294 399 432 487 747 910 1720
2020-07-30 14:30 3.81 697 2000 (2017) 262 (2012) 666 294 399 432 487 747 910 1720
2020-07-30 13:30 3.81 697 2000 (2017) 262 (2012) 666 294 399 432 487 747 910 1720
2020-07-30 12:30 3.82 703 2000 (2017) 262 (2012) 666 294 399 432 487 747 910 1720
2020-07-30 11:30 3.83 708 2000 (2017) 262 (2012) 666 294 399 432 487 747 910 1720
2020-07-30 10:30 3.84 714 2000 (2017) 262 (2012) 666 294 399 432 487 747 910 1720
2020-07-30 09:30 3.85 720 2000 (2017) 262 (2012) 666 294 399 432 487 747 910 1720
2020-07-30 08:30 3.86 725 2000 (2017) 262 (2012) 666 294 399 432 487 747 910 1720
2020-07-30 07:30 3.86 725 2000 (2017) 262 (2012) 666 294 399 432 487 747 910 1720
2020-07-30 06:30 3.85 720 2000 (2017) 262 (2012) 666 294 399 432 487 747 910 1720
2020-07-30 05:30 3.88 737 2000 (2017) 262 (2012) 666 294 399 432 487 747 910 1720
2020-07-30 04:30 3.91 754 2000 (2017) 262 (2012) 666 294 399 432 487 747 910 1720
2020-07-30 03:30 3.86 725 2000 (2017) 262 (2012) 666 294 399 432 487 747 910 1720
2020-07-30 02:30 3.79 686 2000 (2017) 262 (2012) 666 294 399 432 487 747 910 1720
2020-07-30 01:30 3.79 686 2000 (2017) 262 (2012) 666 294 399 432 487 747 910 1720
2020-07-30 00:30 3.81 697 2000 (2017) 262 (2012) 666 294 399 432 487 747 910 1720
2020-07-29 23:30 3.82 703 2080 (2017) 262 (2012) 676 296 407 435 491 789 931 1780
2020-07-29 22:30 3.83 708 2080 (2017) 262 (2012) 676 296 407 435 491 789 931 1780
2020-07-29 21:30 3.84 714 2080 (2017) 262 (2012) 676 296 407 435 491 789 931 1780
2020-07-29 20:30 3.84 714 2080 (2017) 262 (2012) 676 296 407 435 491 789 931 1780
2020-07-29 19:30 3.84 714 2080 (2017) 262 (2012) 676 296 407 435 491 789 931 1780
2020-07-29 18:30 3.84 714 2080 (2017) 262 (2012) 676 296 407 435 491 789 931 1780
2020-07-29 17:30 3.84 714 2080 (2017) 262 (2012) 676 296 407 435 491 789 931 1780
2020-07-29 16:30 3.84 714 2080 (2017) 262 (2012) 676 296 407 435 491 789 931 1780
2020-07-29 15:30 3.84 714 2080 (2017) 262 (2012) 676 296 407 435 491 789 931 1780
2020-07-29 14:30 3.84 714 2080 (2017) 262 (2012) 676 296 407 435 491 789 931 1780
2020-07-29 13:30 3.84 714 2080 (2017) 262 (2012) 676 296 407 435 491 789 931 1780
2020-07-29 12:30 3.84 714 2080 (2017) 262 (2012) 676 296 407 435 491 789 931 1780
2020-07-29 11:30 3.84 714 2080 (2017) 262 (2012) 676 296 407 435 491 789 931 1780
2020-07-29 10:30 3.84 714 2080 (2017) 262 (2012) 676 296 407 435 491 789 931 1780
2020-07-29 09:30 3.83 708 2080 (2017) 262 (2012) 676 296 407 435 491 789 931 1780
2020-07-29 08:30 3.83 708 2080 (2017) 262 (2012) 676 296 407 435 491 789 931 1780
2020-07-29 07:30 3.83 708 2080 (2017) 262 (2012) 676 296 407 435 491 789 931 1780
2020-07-29 06:30 3.83 708 2080 (2017) 262 (2012) 676 296 407 435 491 789 931 1780
2020-07-29 05:30 3.83 708 2080 (2017) 262 (2012) 676 296 407 435 491 789 931 1780
2020-07-29 04:30 3.82 703 2080 (2017) 262 (2012) 676 296 407 435 491 789 931 1780
2020-07-29 03:30 3.82 703 2080 (2017) 262 (2012) 676 296 407 435 491 789 931 1780
2020-07-29 02:30 3.82 703 2080 (2017) 262 (2012) 676 296 407 435 491 789 931 1780
2020-07-29 01:30 3.81 697 2080 (2017) 262 (2012) 676 296 407 435 491 789 931 1780
2020-07-29 00:30 3.81 697 2080 (2017) 262 (2012) 676 296 407 435 491 789 931 1780
2020-07-28 23:30 3.80 692 2480 (2017) 261 (2012) 746 293 405 434 502 955 1020 2060
2020-07-28 22:30 3.79 686 2480 (2017) 261 (2012) 746 293 405 434 502 955 1020 2060
2020-07-28 21:30 3.78 680 2480 (2017) 261 (2012) 746 293 405 434 502 955 1020 2060
2020-07-28 20:30 3.77 675 2480 (2017) 261 (2012) 746 293 405 434 502 955 1020 2060
2020-07-28 19:30 3.75 664 2480 (2017) 261 (2012) 746 293 405 434 502 955 1020 2060
2020-07-28 18:30 3.73 653 2480 (2017) 261 (2012) 746 293 405 434 502 955 1020 2060
2020-07-28 17:30 3.71 642 2480 (2017) 261 (2012) 746 293 405 434 502 955 1020 2060
2020-07-28 16:30 3.69 631 2480 (2017) 261 (2012) 746 293 405 434 502 955 1020 2060
2020-07-28 15:30 3.68 626 2480 (2017) 261 (2012) 746 293 405 434 502 955 1020 2060
2020-07-28 14:30 3.68 626 2480 (2017) 261 (2012) 746 293 405 434 502 955 1020 2060
2020-07-28 13:30 3.68 626 2480 (2017) 261 (2012) 746 293 405 434 502 955 1020 2060
2020-07-28 12:30 3.68 626 2480 (2017) 261 (2012) 746 293 405 434 502 955 1020 2060
2020-07-28 11:30 3.69 631 2480 (2017) 261 (2012) 746 293 405 434 502 955 1020 2060
2020-07-28 10:30 3.69 631 2480 (2017) 261 (2012) 746 293 405 434 502 955 1020 2060
2020-07-28 09:30 3.71 642 2480 (2017) 261 (2012) 746 293 405 434 502 955 1020 2060
2020-07-28 08:30 3.72 647 2480 (2017) 261 (2012) 746 293 405 434 502 955 1020 2060
2020-07-28 07:30 3.72 647 2480 (2017) 261 (2012) 746 293 405 434 502 955 1020 2060
2020-07-28 06:30 3.73 653 2480 (2017) 261 (2012) 746 293 405 434 502 955 1020 2060
2020-07-28 05:30 3.72 647 2480 (2017) 261 (2012) 746 293 405 434 502 955 1020 2060
2020-07-28 04:30 3.72 647 2480 (2017) 261 (2012) 746 293 405 434 502 955 1020 2060
2020-07-28 03:30 3.73 653 2480 (2017) 261 (2012) 746 293 405 434 502 955 1020 2060
2020-07-28 02:30 3.75 664 2480 (2017) 261 (2012) 746 293 405 434 502 955 1020 2060
2020-07-28 01:30 3.76 669 2480 (2017) 261 (2012) 746 293 405 434 502 955 1020 2060
2020-07-28 00:30 3.78 680 2480 (2017) 261 (2012) 746 293 405 434 502 955 1020 2060
2020-07-27 23:30 3.78 680 3000 (2017) 266 (2012) 799 299 411 437 539 871 1030 2460
2020-07-27 22:30 3.75 664 3000 (2017) 266 (2012) 799 299 411 437 539 871 1030 2460
2020-07-27 21:30 3.74 658 3000 (2017) 266 (2012) 799 299 411 437 539 871 1030 2460
2020-07-27 20:30 3.72 647 3000 (2017) 266 (2012) 799 299 411 437 539 871 1030 2460
2020-07-27 19:30 3.68 626 3000 (2017) 266 (2012) 799 299 411 437 539 871 1030 2460
2020-07-27 18:30 3.64 604 3000 (2017) 266 (2012) 799 299 411 437 539 871 1030 2460
2020-07-27 17:30 3.61 589 3000 (2017) 266 (2012) 799 299 411 437 539 871 1030 2460
2020-07-27 16:30 3.58 573 3000 (2017) 266 (2012) 799 299 411 437 539 871 1030 2460
2020-07-27 15:30 3.56 562 3000 (2017) 266 (2012) 799 299 411 437 539 871 1030 2460
2020-07-27 14:30 3.56 562 3000 (2017) 266 (2012) 799 299 411 437 539 871 1030 2460
2020-07-27 13:30 3.56 562 3000 (2017) 266 (2012) 799 299 411 437 539 871 1030 2460
2020-07-27 12:30 3.56 562 3000 (2017) 266 (2012) 799 299 411 437 539 871 1030 2460
2020-07-27 11:30 3.56 562 3000 (2017) 266 (2012) 799 299 411 437 539 871 1030 2460
2020-07-27 10:30 3.56 562 3000 (2017) 266 (2012) 799 299 411 437 539 871 1030 2460
2020-07-27 09:30 3.56 562 3000 (2017) 266 (2012) 799 299 411 437 539 871 1030 2460
2020-07-27 08:30 3.56 562 3000 (2017) 266 (2012) 799 299 411 437 539 871 1030 2460
2020-07-27 07:30 3.56 562 3000 (2017) 266 (2012) 799 299 411 437 539 871 1030 2460
2020-07-27 06:30 3.56 562 3000 (2017) 266 (2012) 799 299 411 437 539 871 1030 2460
2020-07-27 05:30 3.56 562 3000 (2017) 266 (2012) 799 299 411 437 539 871 1030 2460
2020-07-27 04:30 3.56 562 3000 (2017) 266 (2012) 799 299 411 437 539 871 1030 2460
2020-07-27 03:30 3.56 562 3000 (2017) 266 (2012) 799 299 411 437 539 871 1030 2460
2020-07-27 02:30 3.56 562 3000 (2017) 266 (2012) 799 299 411 437 539 871 1030 2460
2020-07-27 01:30 3.56 562 3000 (2017) 266 (2012) 799 299 411 437 539 871 1030 2460
2020-07-27 00:30 3.56 562 3000 (2017) 266 (2012) 799 299 411 437 539 871 1030 2460
2020-07-26 23:30 3.56 562 3180 (2017) 275 (2012) 837 314 425 444 594 796 992 2610
2020-07-26 22:30 3.56 562 3180 (2017) 275 (2012) 837 314 425 444 594 796 992 2610
2020-07-26 21:30 3.56 562 3180 (2017) 275 (2012) 837 314 425 444 594 796 992 2610
2020-07-26 20:30 3.56 562 3180 (2017) 275 (2012) 837 314 425 444 594 796 992 2610
2020-07-26 19:30 3.57 568 3180 (2017) 275 (2012) 837 314 425 444 594 796 992 2610
2020-07-26 18:30 3.57 568 3180 (2017) 275 (2012) 837 314 425 444 594 796 992 2610
2020-07-26 17:30 3.57 568 3180 (2017) 275 (2012) 837 314 425 444 594 796 992 2610
2020-07-26 16:30 3.57 568 3180 (2017) 275 (2012) 837 314 425 444 594 796 992 2610
2020-07-26 15:30 3.57 568 3180 (2017) 275 (2012) 837 314 425 444 594 796 992 2610
2020-07-26 14:30 3.58 573 3180 (2017) 275 (2012) 837 314 425 444 594 796 992 2610
2020-07-26 13:30 3.58 573 3180 (2017) 275 (2012) 837 314 425 444 594 796 992 2610
2020-07-26 12:30 3.58 573 3180 (2017) 275 (2012) 837 314 425 444 594 796 992 2610
2020-07-26 11:30 3.58 573 3180 (2017) 275 (2012) 837 314 425 444 594 796 992 2610
2020-07-26 10:30 3.58 573 3180 (2017) 275 (2012) 837 314 425 444 594 796 992 2610
2020-07-26 09:30 3.58 573 3180 (2017) 275 (2012) 837 314 425 444 594 796 992 2610
2020-07-26 08:30 3.58 573 3180 (2017) 275 (2012) 837 314 425 444 594 796 992 2610
2020-07-26 07:30 3.58 573 3180 (2017) 275 (2012) 837 314 425 444 594 796 992 2610
2020-07-26 06:30 3.58 573 3180 (2017) 275 (2012) 837 314 425 444 594 796 992 2610
2020-07-26 05:30 3.58 573 3180 (2017) 275 (2012) 837 314 425 444 594 796 992 2610
2020-07-26 04:30 3.58 573 3180 (2017) 275 (2012) 837 314 425 444 594 796 992 2610
2020-07-26 03:30 3.58 573 3180 (2017) 275 (2012) 837 314 425 444 594 796 992 2610
2020-07-26 02:30 3.58 573 3180 (2017) 275 (2012) 837 314 425 444 594 796 992 2610
2020-07-26 01:30 3.58 573 3180 (2017) 275 (2012) 837 314 425 444 594 796 992 2610
2020-07-26 00:30 3.58 573 3180 (2017) 275 (2012) 837 314 425 444 594 796 992 2610
2020-07-25 23:30 3.58 573 3250 (2017) 257 (2012) 853 304 429 440 571 890 1070 2660
2020-07-25 22:30 3.58 573 3250 (2017) 257 (2012) 853 304 429 440 571 890 1070 2660
2020-07-25 21:30 3.58 573 3250 (2017) 257 (2012) 853 304 429 440 571 890 1070 2660
2020-07-25 20:30 3.58 573 3250 (2017) 257 (2012) 853 304 429 440 571 890 1070 2660
2020-07-25 19:30 3.59 578 3250 (2017) 257 (2012) 853 304 429 440 571 890 1070 2660
2020-07-25 18:30 3.59 578 3250 (2017) 257 (2012) 853 304 429 440 571 890 1070 2660
2020-07-25 17:30 3.59 578 3250 (2017) 257 (2012) 853 304 429 440 571 890 1070 2660
2020-07-25 16:30 3.59 578 3250 (2017) 257 (2012) 853 304 429 440 571 890 1070 2660
2020-07-25 15:30 3.60 583 3250 (2017) 257 (2012) 853 304 429 440 571 890 1070 2660
2020-07-25 14:30 3.60 583 3250 (2017) 257 (2012) 853 304 429 440 571 890 1070 2660
2020-07-25 13:30 3.60 583 3250 (2017) 257 (2012) 853 304 429 440 571 890 1070 2660
2020-07-25 12:30 3.60 583 3250 (2017) 257 (2012) 853 304 429 440 571 890 1070 2660
2020-07-25 11:30 3.60 583 3250 (2017) 257 (2012) 853 304 429 440 571 890 1070 2660
2020-07-25 10:30 3.61 589 3250 (2017) 257 (2012) 853 304 429 440 571 890 1070 2660
2020-07-25 09:30 3.61 589 3250 (2017) 257 (2012) 853 304 429 440 571 890 1070 2660
2020-07-25 08:30 3.61 589 3250 (2017) 257 (2012) 853 304 429 440 571 890 1070 2660
2020-07-25 07:30 3.61 589 3250 (2017) 257 (2012) 853 304 429 440 571 890 1070 2660
2020-07-25 06:30 3.62 594 3250 (2017) 257 (2012) 853 304 429 440 571 890 1070 2660
2020-07-25 05:30 3.62 594 3250 (2017) 257 (2012) 853 304 429 440 571 890 1070 2660
2020-07-25 04:30 3.63 599 3250 (2017) 257 (2012) 853 304 429 440 571 890 1070 2660
2020-07-25 03:30 3.63 599 3250 (2017) 257 (2012) 853 304 429 440 571 890 1070 2660
2020-07-25 02:30 3.64 604 3250 (2017) 257 (2012) 853 304 429 440 571 890 1070 2660
2020-07-25 01:30 3.65 610 3250 (2017) 257 (2012) 853 304 429 440 571 890 1070 2660
2020-07-25 00:30 3.66 615 3250 (2017) 257 (2012) 853 304 429 440 571 890 1070 2660
2020-07-24 23:30 3.67 620 3310 (2017) 258 (2012) 854 291 397 417 554 954 1100 2700
2020-07-24 22:30 3.69 631 3310 (2017) 258 (2012) 854 291 397 417 554 954 1100 2700
2020-07-24 21:30 3.71 642 3310 (2017) 258 (2012) 854 291 397 417 554 954 1100 2700
2020-07-24 20:30 3.73 653 3310 (2017) 258 (2012) 854 291 397 417 554 954 1100 2700
2020-07-24 19:30 3.76 669 3310 (2017) 258 (2012) 854 291 397 417 554 954 1100 2700
2020-07-24 18:30 3.79 686 3310 (2017) 258 (2012) 854 291 397 417 554 954 1100 2700
2020-07-24 17:30 3.83 708 3310 (2017) 258 (2012) 854 291 397 417 554 954 1100 2700
2020-07-24 16:30 3.86 725 3310 (2017) 258 (2012) 854 291 397 417 554 954 1100 2700
2020-07-24 15:30 3.89 743 3310 (2017) 258 (2012) 854 291 397 417 554 954 1100 2700
2020-07-24 14:30 3.91 754 3310 (2017) 258 (2012) 854 291 397 417 554 954 1100 2700
2020-07-24 13:30 3.92 760 3310 (2017) 258 (2012) 854 291 397 417 554 954 1100 2700
2020-07-24 12:30 3.92 760 3310 (2017) 258 (2012) 854 291 397 417 554 954 1100 2700
2020-07-24 11:30 3.92 760 3310 (2017) 258 (2012) 854 291 397 417 554 954 1100 2700
2020-07-24 10:30 3.92 760 3310 (2017) 258 (2012) 854 291 397 417 554 954 1100 2700
2020-07-24 09:30 3.92 760 3310 (2017) 258 (2012) 854 291 397 417 554 954 1100 2700
2020-07-24 08:30 3.92 760 3310 (2017) 258 (2012) 854 291 397 417 554 954 1100 2700
2020-07-24 07:30 3.92 760 3310 (2017) 258 (2012) 854 291 397 417 554 954 1100 2700
2020-07-24 06:30 3.92 760 3310 (2017) 258 (2012) 854 291 397 417 554 954 1100 2700
2020-07-24 05:30 3.92 760 3310 (2017) 258 (2012) 854 291 397 417 554 954 1100 2700
2020-07-24 04:30 3.92 760 3310 (2017) 258 (2012) 854 291 397 417 554 954 1100 2700
2020-07-24 03:30 3.91 754 3310 (2017) 258 (2012) 854 291 397 417 554 954 1100 2700
2020-07-24 02:30 3.91 754 3310 (2017) 258 (2012) 854 291 397 417 554 954 1100 2700
2020-07-24 01:30 3.92 760 3310 (2017) 258 (2012) 854 291 397 417 554 954 1100 2700
2020-07-24 00:30 3.92 760 3310 (2017) 258 (2012) 854 291 397 417 554 954 1100 2700
2020-07-23 23:30 3.93 766 3370 (2017) 259 (2012) 894 293 396 413 526 1190 1260 2750
2020-07-23 22:30 3.94 772 3370 (2017) 259 (2012) 894 293 396 413 526 1190 1260 2750
2020-07-23 21:30 3.93 766 3370 (2017) 259 (2012) 894 293 396 413 526 1190 1260 2750
2020-07-23 20:30 3.91 754 3370 (2017) 259 (2012) 894 293 396 413 526 1190 1260 2750
2020-07-23 19:30 3.89 743 3370 (2017) 259 (2012) 894 293 396 413 526 1190 1260 2750
2020-07-23 18:30 3.88 737 3370 (2017) 259 (2012) 894 293 396 413 526 1190 1260 2750
2020-07-23 17:30 3.88 737 3370 (2017) 259 (2012) 894 293 396 413 526 1190 1260 2750
2020-07-23 16:30 3.87 731 3370 (2017) 259 (2012) 894 293 396 413 526 1190 1260 2750
2020-07-23 15:30 3.87 731 3370 (2017) 259 (2012) 894 293 396 413 526 1190 1260 2750
2020-07-23 14:30 3.86 725 3370 (2017) 259 (2012) 894 293 396 413 526 1190 1260 2750
2020-07-23 13:30 3.86 725 3370 (2017) 259 (2012) 894 293 396 413 526 1190 1260 2750
2020-07-23 12:30 3.86 725 3370 (2017) 259 (2012) 894 293 396 413 526 1190 1260 2750
2020-07-23 11:30 3.87 731 3370 (2017) 259 (2012) 894 293 396 413 526 1190 1260 2750
2020-07-23 10:30 3.87 731 3370 (2017) 259 (2012) 894 293 396 413 526 1190 1260 2750
2020-07-23 09:30 3.87 731 3370 (2017) 259 (2012) 894 293 396 413 526 1190 1260 2750
2020-07-23 08:30 3.87 731 3370 (2017) 259 (2012) 894 293 396 413 526 1190 1260 2750
2020-07-23 07:30 3.87 731 3370 (2017) 259 (2012) 894 293 396 413 526 1190 1260 2750
2020-07-23 06:30 3.87 731 3370 (2017) 259 (2012) 894 293 396 413 526 1190 1260 2750
2020-07-23 05:30 3.88 737 3370 (2017) 259 (2012) 894 293 396 413 526 1190 1260 2750
2020-07-23 04:30 3.88 737 3370 (2017) 259 (2012) 894 293 396 413 526 1190 1260 2750
2020-07-23 03:30 3.89 743 3370 (2017) 259 (2012) 894 293 396 413 526 1190 1260 2750
2020-07-23 02:30 3.89 743 3370 (2017) 259 (2012) 894 293 396 413 526 1190 1260 2750
2020-07-23 01:30 3.89 743 3370 (2017) 259 (2012) 894 293 396 413 526 1190 1260 2750
2020-07-23 00:30 3.88 737 3370 (2017) 259 (2012) 894 293 396 413 526 1190 1260 2750
2020-07-22 23:30 3.87 731 3420 (2017) 260 (2012) 973 298 410 431 525 1370 1570 2940
2020-07-22 22:30 3.86 725 3420 (2017) 260 (2012) 973 298 410 431 525 1370 1570 2940
2020-07-22 21:30 3.85 720 3420 (2017) 260 (2012) 973 298 410 431 525 1370 1570 2940
2020-07-22 20:30 3.83 708 3420 (2017) 260 (2012) 973 298 410 431 525 1370 1570 2940
2020-07-22 19:30 3.81 697 3420 (2017) 260 (2012) 973 298 410 431 525 1370 1570 2940
2020-07-22 18:30 3.80 692 3420 (2017) 260 (2012) 973 298 410 431 525 1370 1570 2940
2020-07-22 17:30 3.80 692 3420 (2017) 260 (2012) 973 298 410 431 525 1370 1570 2940
2020-07-22 16:30 3.80 692 3420 (2017) 260 (2012) 973 298 410 431 525 1370 1570 2940
2020-07-22 15:30 3.78 680 3420 (2017) 260 (2012) 973 298 410 431 525 1370 1570 2940
2020-07-22 14:30 3.77 675 3420 (2017) 260 (2012) 973 298 410 431 525 1370 1570 2940
2020-07-22 13:30 3.77 675 3420 (2017) 260 (2012) 973 298 410 431 525 1370 1570 2940
2020-07-22 12:30 3.77 675 3420 (2017) 260 (2012) 973 298 410 431 525 1370 1570 2940
2020-07-22 11:30 3.77 675 3420 (2017) 260 (2012) 973 298 410 431 525 1370 1570 2940
2020-07-22 10:30 3.76 669 3420 (2017) 260 (2012) 973 298 410 431 525 1370 1570 2940
2020-07-22 09:30 3.77 675 3420 (2017) 260 (2012) 973 298 410 431 525 1370 1570 2940
2020-07-22 08:30 3.76 669 3420 (2017) 260 (2012) 973 298 410 431 525 1370 1570 2940
2020-07-22 07:30 3.76 669 3420 (2017) 260 (2012) 973 298 410 431 525 1370 1570 2940
2020-07-22 06:30 3.76 669 3420 (2017) 260 (2012) 973 298 410 431 525 1370 1570 2940
2020-07-22 05:30 3.76 669 3420 (2017) 260 (2012) 973 298 410 431 525 1370 1570 2940
2020-07-22 04:30 3.77 675 3420 (2017) 260 (2012) 973 298 410 431 525 1370 1570 2940
2020-07-22 03:30 3.77 675 3420 (2017) 260 (2012) 973 298 410 431 525 1370 1570 2940
2020-07-22 02:30 3.77 675 3420 (2017) 260 (2012) 973 298 410 431 525 1370 1570 2940
2020-07-22 01:30 3.76 669 3420 (2017) 260 (2012) 973 298 410 431 525 1370 1570 2940
2020-07-22 00:30 3.76 669 3420 (2017) 260 (2012) 973 298 410 431 525 1370 1570 2940
2020-07-21 23:30 3.77 675 3470 (2017) 263 (2012) 1080 312 441 463 564 1580 2040 3200
2020-07-21 22:30 3.77 675 3470 (2017) 263 (2012) 1080 312 441 463 564 1580 2040 3200
2020-07-21 21:30 3.77 675 3470 (2017) 263 (2012) 1080 312 441 463 564 1580 2040 3200
2020-07-21 20:30 3.77 675 3470 (2017) 263 (2012) 1080 312 441 463 564 1580 2040 3200
2020-07-21 19:30 3.79 686 3470 (2017) 263 (2012) 1080 312 441 463 564 1580 2040 3200
2020-07-21 18:30 3.76 669 3470 (2017) 263 (2012) 1080 312 441 463 564 1580 2040 3200
2020-07-21 17:30 3.77 675 3470 (2017) 263 (2012) 1080 312 441 463 564 1580 2040 3200
2020-07-21 16:30 3.79 686 3470 (2017) 263 (2012) 1080 312 441 463 564 1580 2040 3200
2020-07-21 15:30 3.76 669 3470 (2017) 263 (2012) 1080 312 441 463 564 1580 2040 3200
2020-07-21 14:30 3.76 669 3470 (2017) 263 (2012) 1080 312 441 463 564 1580 2040 3200
2020-07-21 13:30 3.76 669 3470 (2017) 263 (2012) 1080 312 441 463 564 1580 2040 3200
2020-07-21 12:30 3.76 669 3470 (2017) 263 (2012) 1080 312 441 463 564 1580 2040 3200
2020-07-21 11:30 3.76 669 3470 (2017) 263 (2012) 1080 312 441 463 564 1580 2040 3200
2020-07-21 10:30 3.75 664 3470 (2017) 263 (2012) 1080 312 441 463 564 1580 2040 3200
2020-07-21 09:30 3.75 664 3470 (2017) 263 (2012) 1080 312 441 463 564 1580 2040 3200
2020-07-21 08:30 3.74 658 3470 (2017) 263 (2012) 1080 312 441 463 564 1580 2040 3200
2020-07-21 07:30 3.74 658 3470 (2017) 263 (2012) 1080 312 441 463 564 1580 2040 3200
2020-07-21 06:30 3.74 658 3470 (2017) 263 (2012) 1080 312 441 463 564 1580 2040 3200
2020-07-21 05:30 3.74 658 3470 (2017) 263 (2012) 1080 312 441 463 564 1580 2040 3200
2020-07-21 04:30 3.74 658 3470 (2017) 263 (2012) 1080 312 441 463 564 1580 2040 3200
2020-07-21 03:30 3.73 653 3470 (2017) 263 (2012) 1080 312 441 463 564 1580 2040 3200
2020-07-21 02:30 3.72 647 3470 (2017) 263 (2012) 1080 312 441 463 564 1580 2040 3200
2020-07-21 01:30 3.72 647 3470 (2017) 263 (2012) 1080 312 441 463 564 1580 2040 3200
2020-07-21 00:30 3.71 642 3470 (2017) 263 (2012) 1080 312 441 463 564 1580 2040 3200
2020-07-20 23:30 3.69 631 3390 (2017) 269 (2012) 1130 319 435 442 580 1720 2250 3220
2020-07-20 22:30 3.67 620 3390 (2017) 269 (2012) 1130 319 435 442 580 1720 2250 3220
2020-07-20 21:30 3.65 610 3390 (2017) 269 (2012) 1130 319 435 442 580 1720 2250 3220
2020-07-20 20:30 3.63 599 3390 (2017) 269 (2012) 1130 319 435 442 580 1720 2250 3220
2020-07-20 19:30 3.62 594 3390 (2017) 269 (2012) 1130 319 435 442 580 1720 2250 3220
2020-07-20 18:30 3.60 583 3390 (2017) 269 (2012) 1130 319 435 442 580 1720 2250 3220
2020-07-20 17:30 3.59 578 3390 (2017) 269 (2012) 1130 319 435 442 580 1720 2250 3220
2020-07-20 16:30 3.55 557 3390 (2017) 269 (2012) 1130 319 435 442 580 1720 2250 3220
2020-07-20 15:30 3.49 527 3390 (2017) 269 (2012) 1130 319 435 442 580 1720 2250 3220
2020-07-20 14:30 3.49 527 3390 (2017) 269 (2012) 1130 319 435 442 580 1720 2250 3220
2020-07-20 13:30 3.49 527 3390 (2017) 269 (2012) 1130 319 435 442 580 1720 2250 3220
2020-07-20 12:30 3.49 527 3390 (2017) 269 (2012) 1130 319 435 442 580 1720 2250 3220
2020-07-20 11:30 3.49 527 3390 (2017) 269 (2012) 1130 319 435 442 580 1720 2250 3220
2020-07-20 10:30 3.49 527 3390 (2017) 269 (2012) 1130 319 435 442 580 1720 2250 3220
2020-07-20 09:30 3.49 527 3390 (2017) 269 (2012) 1130 319 435 442 580 1720 2250 3220
2020-07-20 08:30 3.48 522 3390 (2017) 269 (2012) 1130 319 435 442 580 1720 2250 3220
2020-07-20 07:30 3.48 522 3390 (2017) 269 (2012) 1130 319 435 442 580 1720 2250 3220
2020-07-20 06:30 3.48 522 3390 (2017) 269 (2012) 1130 319 435 442 580 1720 2250 3220
2020-07-20 05:30 3.48 522 3390 (2017) 269 (2012) 1130 319 435 442 580 1720 2250 3220
2020-07-20 04:30 3.48 522 3390 (2017) 269 (2012) 1130 319 435 442 580 1720 2250 3220
2020-07-20 03:30 3.48 522 3390 (2017) 269 (2012) 1130 319 435 442 580 1720 2250 3220
2020-07-20 02:30 3.48 522 3390 (2017) 269 (2012) 1130 319 435 442 580 1720 2250 3220
2020-07-20 01:30 3.48 522 3390 (2017) 269 (2012) 1130 319 435 442 580 1720 2250 3220
2020-07-20 00:30 3.48 522 3390 (2017) 269 (2012) 1130 319 435 442 580 1720 2250 3220
2020-07-19 23:30 3.49 527 3390 (2017) 267 (2012) 1170 311 435 454 568 1990 2460 3230
2020-07-19 22:30 3.49 527 3390 (2017) 267 (2012) 1170 311 435 454 568 1990 2460 3230
2020-07-19 21:30 3.49 527 3390 (2017) 267 (2012) 1170 311 435 454 568 1990 2460 3230
2020-07-19 20:30 3.49 527 3390 (2017) 267 (2012) 1170 311 435 454 568 1990 2460 3230
2020-07-19 19:30 3.49 527 3390 (2017) 267 (2012) 1170 311 435 454 568 1990 2460 3230
2020-07-19 18:30 3.50 532 3390 (2017) 267 (2012) 1170 311 435 454 568 1990 2460 3230
2020-07-19 17:30 3.50 532 3390 (2017) 267 (2012) 1170 311 435 454 568 1990 2460 3230
2020-07-19 16:30 3.50 532 3390 (2017) 267 (2012) 1170 311 435 454 568 1990 2460 3230
2020-07-19 15:30 3.50 532 3390 (2017) 267 (2012) 1170 311 435 454 568 1990 2460 3230
2020-07-19 14:30 3.50 532 3390 (2017) 267 (2012) 1170 311 435 454 568 1990 2460 3230
2020-07-19 13:30 3.50 532 3390 (2017) 267 (2012) 1170 311 435 454 568 1990 2460 3230
2020-07-19 12:30 3.51 537 3390 (2017) 267 (2012) 1170 311 435 454 568 1990 2460 3230
2020-07-19 11:30 3.51 537 3390 (2017) 267 (2012) 1170 311 435 454 568 1990 2460 3230
2020-07-19 10:30 3.51 537 3390 (2017) 267 (2012) 1170 311 435 454 568 1990 2460 3230
2020-07-19 09:30 3.51 537 3390 (2017) 267 (2012) 1170 311 435 454 568 1990 2460 3230
2020-07-19 08:30 3.50 532 3390 (2017) 267 (2012) 1170 311 435 454 568 1990 2460 3230
2020-07-19 07:30 3.50 532 3390 (2017) 267 (2012) 1170 311 435 454 568 1990 2460 3230
2020-07-19 06:30 3.50 532 3390 (2017) 267 (2012) 1170 311 435 454 568 1990 2460 3230
2020-07-19 05:30 3.50 532 3390 (2017) 267 (2012) 1170 311 435 454 568 1990 2460 3230
2020-07-19 04:30 3.50 532 3390 (2017) 267 (2012) 1170 311 435 454 568 1990 2460 3230
2020-07-19 03:30 3.50 532 3390 (2017) 267 (2012) 1170 311 435 454 568 1990 2460 3230
2020-07-19 02:30 3.51 537 3390 (2017) 267 (2012) 1170 311 435 454 568 1990 2460 3230
2020-07-19 01:30 3.51 537 3390 (2017) 267 (2012) 1170 311 435 454 568 1990 2460 3230
2020-07-19 00:30 3.51 537 3390 (2017) 267 (2012) 1170 311 435 454 568 1990 2460 3230
2020-07-18 23:30 3.51 537 3430 (2017) 261 (2012) 1230 309 441 456 570 2490 2850 3290
2020-07-18 22:30 3.51 537 3430 (2017) 261 (2012) 1230 309 441 456 570 2490 2850 3290
2020-07-18 21:30 3.51 537 3430 (2017) 261 (2012) 1230 309 441 456 570 2490 2850 3290
2020-07-18 20:30 3.52 542 3430 (2017) 261 (2012) 1230 309 441 456 570 2490 2850 3290
2020-07-18 19:30 3.52 542 3430 (2017) 261 (2012) 1230 309 441 456 570 2490 2850 3290
2020-07-18 18:30 3.52 542 3430 (2017) 261 (2012) 1230 309 441 456 570 2490 2850 3290
2020-07-18 17:30 3.53 547 3430 (2017) 261 (2012) 1230 309 441 456 570 2490 2850 3290
2020-07-18 16:30 3.53 547 3430 (2017) 261 (2012) 1230 309 441 456 570 2490 2850 3290
2020-07-18 15:30 3.54 552 3430 (2017) 261 (2012) 1230 309 441 456 570 2490 2850 3290
2020-07-18 14:30 3.54 552 3430 (2017) 261 (2012) 1230 309 441 456 570 2490 2850 3290
2020-07-18 13:30 3.54 552 3430 (2017) 261 (2012) 1230 309 441 456 570 2490 2850 3290
2020-07-18 12:30 3.54 552 3430 (2017) 261 (2012) 1230 309 441 456 570 2490 2850 3290
2020-07-18 11:30 3.54 552 3430 (2017) 261 (2012) 1230 309 441 456 570 2490 2850 3290
2020-07-18 10:30 3.54 552 3430 (2017) 261 (2012) 1230 309 441 456 570 2490 2850 3290
2020-07-18 09:30 3.54 552 3430 (2017) 261 (2012) 1230 309 441 456 570 2490 2850 3290
2020-07-18 08:30 3.54 552 3430 (2017) 261 (2012) 1230 309 441 456 570 2490 2850 3290
2020-07-18 07:30 3.54 552 3430 (2017) 261 (2012) 1230 309 441 456 570 2490 2850 3290
2020-07-18 06:30 3.54 552 3430 (2017) 261 (2012) 1230 309 441 456 570 2490 2850 3290
2020-07-18 05:30 3.54 552 3430 (2017) 261 (2012) 1230 309 441 456 570 2490 2850 3290
2020-07-18 04:30 3.54 552 3430 (2017) 261 (2012) 1230 309 441 456 570 2490 2850 3290
2020-07-18 03:30 3.54 552 3430 (2017) 261 (2012) 1230 309 441 456 570 2490 2850 3290
2020-07-18 02:30 3.55 557 3430 (2017) 261 (2012) 1230 309 441 456 570 2490 2850 3290
2020-07-18 01:30 3.56 562 3430 (2017) 261 (2012) 1230 309 441 456 570 2490 2850 3290
2020-07-18 00:30 3.56 562 3430 (2017) 261 (2012) 1230 309 441 456 570 2490 2850 3290
2020-07-17 23:30 3.58 573 3560 (2015) 251 (2012) 1260 306 447 463 587 2480 3160 3530
2020-07-17 22:30 3.59 578 3560 (2015) 251 (2012) 1260 306 447 463 587 2480 3160 3530
2020-07-17 21:30 578 3560 (2015) 251 (2012) 1260 306 447 463 587 2480 3160 3530
2020-07-17 20:30 3.59 578 3560 (2015) 251 (2012) 1260 306 447 463 587 2480 3160 3530
2020-07-17 19:30 3.59 578 3560 (2015) 251 (2012) 1260 306 447 463 587 2480 3160 3530
2020-07-17 18:30 3.59 578 3560 (2015) 251 (2012) 1260 306 447 463 587 2480 3160 3530
2020-07-17 17:30 3.60 583 3560 (2015) 251 (2012) 1260 306 447 463 587 2480 3160 3530
2020-07-17 16:30 3.59 578 3560 (2015) 251 (2012) 1260 306 447 463 587 2480 3160 3530
2020-07-17 15:30 3.60 583 3560 (2015) 251 (2012) 1260 306 447 463 587 2480 3160 3530
2020-07-17 14:30 3.65 610 3560 (2015) 251 (2012) 1260 306 447 463 587 2480 3160 3530
2020-07-17 13:30 3.68 626 3560 (2015) 251 (2012) 1260 306 447 463 587 2480 3160 3530
2020-07-17 12:30 3.61 589 3560 (2015) 251 (2012) 1260 306 447 463 587 2480 3160 3530
2020-07-17 11:30 3.56 562 3560 (2015) 251 (2012) 1260 306 447 463 587 2480 3160 3530
2020-07-17 10:30 3.56 562 3560 (2015) 251 (2012) 1260 306 447 463 587 2480 3160 3530
2020-07-17 09:30 3.56 562 3560 (2015) 251 (2012) 1260 306 447 463 587 2480 3160 3530
2020-07-17 08:30 3.55 557 3560 (2015) 251 (2012) 1260 306 447 463 587 2480 3160 3530
2020-07-17 07:30 3.56 562 3560 (2015) 251 (2012) 1260 306 447 463 587 2480 3160 3530
2020-07-17 06:30 3.56 562 3560 (2015) 251 (2012) 1260 306 447 463 587 2480 3160 3530
2020-07-17 05:30 3.56 562 3560 (2015) 251 (2012) 1260 306 447 463 587 2480 3160 3530
2020-07-17 04:30 3.55 557 3560 (2015) 251 (2012) 1260 306 447 463 587 2480 3160 3530
2020-07-17 03:30 3.56 562 3560 (2015) 251 (2012) 1260 306 447 463 587 2480 3160 3530
2020-07-17 02:30 3.56 562 3560 (2015) 251 (2012) 1260 306 447 463 587 2480 3160 3530
2020-07-17 01:30 3.56 562 3560 (2015) 251 (2012) 1260 306 447 463 587 2480 3160 3530
2020-07-17 00:30 3.56 562 3560 (2015) 251 (2012) 1260 306 447 463 587 2480 3160 3530
2020-07-16 23:30 3.56 562 3760 (2015) 253 (2012) 1290 308 449 472 621 2490 3200 3680
2020-07-16 22:30 3.56 562 3760 (2015) 253 (2012) 1290 308 449 472 621 2490 3200 3680
2020-07-16 21:30 3.56 562 3760 (2015) 253 (2012) 1290 308 449 472 621 2490 3200 3680
2020-07-16 20:30 3.56 562 3760 (2015) 253 (2012) 1290 308 449 472 621 2490 3200 3680
2020-07-16 19:30 3.56 562 3760 (2015) 253 (2012) 1290 308 449 472 621 2490 3200 3680
2020-07-16 18:30 3.56 562 3760 (2015) 253 (2012) 1290 308 449 472 621 2490 3200 3680
2020-07-16 17:30 3.56 562 3760 (2015) 253 (2012) 1290 308 449 472 621 2490 3200 3680
2020-07-16 16:30 3.57 568 3760 (2015) 253 (2012) 1290 308 449 472 621 2490 3200 3680
2020-07-16 15:30 3.57 568 3760 (2015) 253 (2012) 1290 308 449 472 621 2490 3200 3680
2020-07-16 14:30 3.57 568 3760 (2015) 253 (2012) 1290 308 449 472 621 2490 3200 3680
2020-07-16 13:30 3.57 568 3760 (2015) 253 (2012) 1290 308 449 472 621 2490 3200 3680
2020-07-16 12:30 3.57 568 3760 (2015) 253 (2012) 1290 308 449 472 621 2490 3200 3680
2020-07-16 11:30 3.57 568 3760 (2015) 253 (2012) 1290 308 449 472 621 2490 3200 3680
2020-07-16 10:30 3.58 573 3760 (2015) 253 (2012) 1290 308 449 472 621 2490 3200 3680
2020-07-16 09:30 3.58 573 3760 (2015) 253 (2012) 1290 308 449 472 621 2490 3200 3680
2020-07-16 08:30 3.58 573 3760 (2015) 253 (2012) 1290 308 449 472 621 2490 3200 3680
2020-07-16 07:30 3.58 573 3760 (2015) 253 (2012) 1290 308 449 472 621 2490 3200 3680
2020-07-16 06:30 3.58 573 3760 (2015) 253 (2012) 1290 308 449 472 621 2490 3200 3680
2020-07-16 05:30 3.58 573 3760 (2015) 253 (2012) 1290 308 449 472 621 2490 3200 3680
2020-07-16 04:30 3.58 573 3760 (2015) 253 (2012) 1290 308 449 472 621 2490 3200 3680
2020-07-16 03:30 3.58 573 3760 (2015) 253 (2012) 1290 308 449 472 621 2490 3200 3680
2020-07-16 02:30 3.58 573 3760 (2015) 253 (2012) 1290 308 449 472 621 2490 3200 3680
2020-07-16 01:30 3.58 573 3760 (2015) 253 (2012) 1290 308 449 472 621 2490 3200 3680
2020-07-16 00:30 3.59 578 3760 (2015) 253 (2012) 1290 308 449 472 621 2490 3200 3680
2020-07-15 23:30 3.59 578 3850 (2015) 254 (2012) 1260 309 453 481 636 2470 3030 3620
2020-07-15 22:30 3.59 578 3850 (2015) 254 (2012) 1260 309 453 481 636 2470 3030 3620
2020-07-15 21:30 3.60 583 3850 (2015) 254 (2012) 1260 309 453 481 636 2470 3030 3620
2020-07-15 20:30 3.60 583 3850 (2015) 254 (2012) 1260 309 453 481 636 2470 3030 3620
2020-07-15 19:30 3.61 589 3850 (2015) 254 (2012) 1260 309 453 481 636 2470 3030 3620
2020-07-15 18:30 3.62 594 3850 (2015) 254 (2012) 1260 309 453 481 636 2470 3030 3620
2020-07-15 17:30 3.62 594 3850 (2015) 254 (2012) 1260 309 453 481 636 2470 3030 3620
2020-07-15 16:30 3.63 599 3850 (2015) 254 (2012) 1260 309 453 481 636 2470 3030 3620
2020-07-15 15:30 3.63 599 3850 (2015) 254 (2012) 1260 309 453 481 636 2470 3030 3620
2020-07-15 14:30 3.63 599 3850 (2015) 254 (2012) 1260 309 453 481 636 2470 3030 3620
2020-07-15 13:30 3.63 599 3850 (2015) 254 (2012) 1260 309 453 481 636 2470 3030 3620
2020-07-15 12:30 3.63 599 3850 (2015) 254 (2012) 1260 309 453 481 636 2470 3030 3620
2020-07-15 11:30 3.63 599 3850 (2015) 254 (2012) 1260 309 453 481 636 2470 3030 3620
2020-07-15 10:30 3.63 599 3850 (2015) 254 (2012) 1260 309 453 481 636 2470 3030 3620
2020-07-15 09:30 3.63 599 3850 (2015) 254 (2012) 1260 309 453 481 636 2470 3030 3620
2020-07-15 08:30 3.63 599 3850 (2015) 254 (2012) 1260 309 453 481 636 2470 3030 3620
2020-07-15 07:30 3.63 599 3850 (2015) 254 (2012) 1260 309 453 481 636 2470 3030 3620
2020-07-15 06:30 3.63 599 3850 (2015) 254 (2012) 1260 309 453 481 636 2470 3030 3620
2020-07-15 05:30 3.63 599 3850 (2015) 254 (2012) 1260 309 453 481 636 2470 3030 3620
2020-07-15 04:30 3.63 599 3850 (2015) 254 (2012) 1260 309 453 481 636 2470 3030 3620
2020-07-15 03:30 3.63 599 3850 (2015) 254 (2012) 1260 309 453 481 636 2470 3030 3620
2020-07-15 02:30 3.63 599 3850 (2015) 254 (2012) 1260 309 453 481 636 2470 3030 3620
2020-07-15 01:30 3.63 599 3850 (2015) 254 (2012) 1260 309 453 481 636 2470 3030 3620
2020-07-15 00:30 3.63 599 3850 (2015) 254 (2012) 1260 309 453 481 636 2470 3030 3620
2020-07-14 23:30 3.63 599 3920 (2015) 253 (2012) 1340 312 456 482 671 2580 3320 3820
2020-07-14 22:30 3.63 599 3920 (2015) 253 (2012) 1340 312 456 482 671 2580 3320 3820
2020-07-14 21:30 3.63 599 3920 (2015) 253 (2012) 1340 312 456 482 671 2580 3320 3820
2020-07-14 20:30 3.63 599 3920 (2015) 253 (2012) 1340 312 456 482 671 2580 3320 3820
2020-07-14 19:30 3.63 599 3920 (2015) 253 (2012) 1340 312 456 482 671 2580 3320 3820
2020-07-14 18:30 3.64 604 3920 (2015) 253 (2012) 1340 312 456 482 671 2580 3320 3820
2020-07-14 17:30 3.64 604 3920 (2015) 253 (2012) 1340 312 456 482 671 2580 3320 3820
2020-07-14 16:30 3.64 604 3920 (2015) 253 (2012) 1340 312 456 482 671 2580 3320 3820
2020-07-14 15:30 3.64 604 3920 (2015) 253 (2012) 1340 312 456 482 671 2580 3320 3820
2020-07-14 14:30 3.64 604 3920 (2015) 253 (2012) 1340 312 456 482 671 2580 3320 3820
2020-07-14 13:30 3.64 604 3920 (2015) 253 (2012) 1340 312 456 482 671 2580 3320 3820
2020-07-14 12:30 3.65 610 3920 (2015) 253 (2012) 1340 312 456 482 671 2580 3320 3820
2020-07-14 11:30 3.65 610 3920 (2015) 253 (2012) 1340 312 456 482 671 2580 3320 3820
2020-07-14 10:30 3.65 610 3920 (2015) 253 (2012) 1340 312 456 482 671 2580 3320 3820
2020-07-14 09:30 3.65 610 3920 (2015) 253 (2012) 1340 312 456 482 671 2580 3320 3820
2020-07-14 08:30 3.65 610 3920 (2015) 253 (2012) 1340 312 456 482 671 2580 3320 3820
2020-07-14 07:30 3.65 610 3920 (2015) 253 (2012) 1340 312 456 482 671 2580 3320 3820
2020-07-14 06:30 3.65 610 3920 (2015) 253 (2012) 1340 312 456 482 671 2580 3320 3820
2020-07-14 05:30 3.65 610 3920 (2015) 253 (2012) 1340 312 456 482 671 2580 3320 3820
2020-07-14 04:30 3.65 610 3920 (2015) 253 (2012) 1340 312 456 482 671 2580 3320 3820
2020-07-14 03:30 3.65 610 3920 (2015) 253 (2012) 1340 312 456 482 671 2580 3320 3820
2020-07-14 02:30 3.65 610 3920 (2015) 253 (2012) 1340 312 456 482 671 2580 3320 3820
2020-07-14 01:30 3.66 615 3920 (2015) 253 (2012) 1340 312 456 482 671 2580 3320 3820
2020-07-14 00:30 3.66 615 3920 (2015) 253 (2012) 1340 312 456 482 671 2580 3320 3820
2020-07-13 23:30 3.67 620 3810 (2015) 249 (2012) 1350 312 460 484 664 2800 3430 3720
2020-07-13 22:30 3.67 620 3810 (2015) 249 (2012) 1350 312 460 484 664 2800 3430 3720
2020-07-13 21:30 3.68 626 3810 (2015) 249 (2012) 1350 312 460 484 664 2800 3430 3720
2020-07-13 20:30 3.68 626 3810 (2015) 249 (2012) 1350 312 460 484 664 2800 3430 3720
2020-07-13 19:30 3.69 631 3810 (2015) 249 (2012) 1350 312 460 484 664 2800 3430 3720
2020-07-13 18:30 3.69 631 3810 (2015) 249 (2012) 1350 312 460 484 664 2800 3430 3720
2020-07-13 17:30 3.70 637 3810 (2015) 249 (2012) 1350 312 460 484 664 2800 3430 3720
2020-07-13 16:30 3.71 642 3810 (2015) 249 (2012) 1350 312 460 484 664 2800 3430 3720
2020-07-13 15:30 3.71 642 3810 (2015) 249 (2012) 1350 312 460 484 664 2800 3430 3720
2020-07-13 14:30 3.72 647 3810 (2015) 249 (2012) 1350 312 460 484 664 2800 3430 3720
2020-07-13 13:30 3.72 647 3810 (2015) 249 (2012) 1350 312 460 484 664 2800 3430 3720
2020-07-13 12:30 3.72 647 3810 (2015) 249 (2012) 1350 312 460 484 664 2800 3430 3720
2020-07-13 11:30 3.72 647 3810 (2015) 249 (2012) 1350 312 460 484 664 2800 3430 3720
2020-07-13 10:30 3.72 647 3810 (2015) 249 (2012) 1350 312 460 484 664 2800 3430 3720
2020-07-13 09:30 3.72 647 3810 (2015) 249 (2012) 1350 312 460 484 664 2800 3430 3720
2020-07-13 08:30 3.72 647 3810 (2015) 249 (2012) 1350 312 460 484 664 2800 3430 3720
2020-07-13 07:30 3.72 647 3810 (2015) 249 (2012) 1350 312 460 484 664 2800 3430 3720
2020-07-13 06:30 3.72 647 3810 (2015) 249 (2012) 1350 312 460 484 664 2800 3430 3720
2020-07-13 05:30 3.71 642 3810 (2015) 249 (2012) 1350 312 460 484 664 2800 3430 3720
2020-07-13 04:30 3.71 642 3810 (2015) 249 (2012) 1350 312 460 484 664 2800 3430 3720
2020-07-13 03:30 3.71 642 3810 (2015) 249 (2012) 1350 312 460 484 664 2800 3430 3720
2020-07-13 02:30 3.71 642 3810 (2015) 249 (2012) 1350 312 460 484 664 2800 3430 3720
2020-07-13 01:30 3.71 642 3810 (2015) 249 (2012) 1350 312 460 484 664 2800 3430 3720
2020-07-13 00:30 3.72 647 3810 (2015) 249 (2012) 1350 312 460 484 664 2800 3430 3720
2020-07-12 23:30 3.72 647 3780 (2015) 251 (2012) 1380 313 467 480 647 2910 3470 3710
2020-07-12 22:30 3.72 647 3780 (2015) 251 (2012) 1380 313 467 480 647 2910 3470 3710
2020-07-12 21:30 3.72 647 3780 (2015) 251 (2012) 1380 313 467 480 647 2910 3470 3710
2020-07-12 20:30 3.72 647 3780 (2015) 251 (2012) 1380 313 467 480 647 2910 3470 3710
2020-07-12 19:30 3.72 647 3780 (2015) 251 (2012) 1380 313 467 480 647 2910 3470 3710
2020-07-12 18:30 3.72 647 3780 (2015) 251 (2012) 1380 313 467 480 647 2910 3470 3710
2020-07-12 17:30 3.73 653 3780 (2015) 251 (2012) 1380 313 467 480 647 2910 3470 3710
2020-07-12 16:30 3.73 653 3780 (2015) 251 (2012) 1380 313 467 480 647 2910 3470 3710
2020-07-12 15:30 3.73 653 3780 (2015) 251 (2012) 1380 313 467 480 647 2910 3470 3710
2020-07-12 14:30 3.73 653 3780 (2015) 251 (2012) 1380 313 467 480 647 2910 3470 3710
2020-07-12 13:30 3.73 653 3780 (2015) 251 (2012) 1380 313 467 480 647 2910 3470 3710
2020-07-12 12:30 3.73 653 3780 (2015) 251 (2012) 1380 313 467 480 647 2910 3470 3710
2020-07-12 11:30 3.74 658 3780 (2015) 251 (2012) 1380 313 467 480 647 2910 3470 3710
2020-07-12 10:30 3.73 653 3780 (2015) 251 (2012) 1380 313 467 480 647 2910 3470 3710
2020-07-12 09:30 3.74 658 3780 (2015) 251 (2012) 1380 313 467 480 647 2910 3470 3710
2020-07-12 08:30 3.74 658 3780 (2015) 251 (2012) 1380 313 467 480 647 2910 3470 3710
2020-07-12 07:30 3.74 658 3780 (2015) 251 (2012) 1380 313 467 480 647 2910 3470 3710
2020-07-12 06:30 3.74 658 3780 (2015) 251 (2012) 1380 313 467 480 647 2910 3470 3710
2020-07-12 05:30 3.74 658 3780 (2015) 251 (2012) 1380 313 467 480 647 2910 3470 3710
2020-07-12 04:30 3.74 658 3780 (2015) 251 (2012) 1380 313 467 480 647 2910 3470 3710
2020-07-12 03:30 3.74 658 3780 (2015) 251 (2012) 1380 313 467 480 647 2910 3470 3710
2020-07-12 02:30 3.74 658 3780 (2015) 251 (2012) 1380 313 467 480 647 2910 3470 3710
2020-07-12 01:30 3.74 658 3780 (2015) 251 (2012) 1380 313 467 480 647 2910 3470 3710
2020-07-12 00:30 3.74 658 3780 (2015) 251 (2012) 1380 313 467 480 647 2910 3470 3710
2020-07-11 23:30 3.74 658 3580 (2017) 252 (2012) 1370 302 446 478 654 2850 3310 3540
2020-07-11 22:30 3.74 658 3580 (2017) 252 (2012) 1370 302 446 478 654 2850 3310 3540
2020-07-11 21:30 3.74 658 3580 (2017) 252 (2012) 1370 302 446 478 654 2850 3310 3540
2020-07-11 20:30 3.75 664 3580 (2017) 252 (2012) 1370 302 446 478 654 2850 3310 3540
2020-07-11 19:30 3.75 664 3580 (2017) 252 (2012) 1370 302 446 478 654 2850 3310 3540
2020-07-11 18:30 3.75 664 3580 (2017) 252 (2012) 1370 302 446 478 654 2850 3310 3540
2020-07-11 17:30 3.75 664 3580 (2017) 252 (2012) 1370 302 446 478 654 2850 3310 3540
2020-07-11 16:30 3.75 664 3580 (2017) 252 (2012) 1370 302 446 478 654 2850 3310 3540
2020-07-11 15:30 3.76 669 3580 (2017) 252 (2012) 1370 302 446 478 654 2850 3310 3540
2020-07-11 14:30 3.76 669 3580 (2017) 252 (2012) 1370 302 446 478 654 2850 3310 3540
2020-07-11 13:30 3.76 669 3580 (2017) 252 (2012) 1370 302 446 478 654 2850 3310 3540
2020-07-11 12:30 3.76 669 3580 (2017) 252 (2012) 1370 302 446 478 654 2850 3310 3540
2020-07-11 11:30 3.76 669 3580 (2017) 252 (2012) 1370 302 446 478 654 2850 3310 3540
2020-07-11 10:30 3.76 669 3580 (2017) 252 (2012) 1370 302 446 478 654 2850 3310 3540
2020-07-11 09:30 3.76 669 3580 (2017) 252 (2012) 1370 302 446 478 654 2850 3310 3540
2020-07-11 08:30 3.76 669 3580 (2017) 252 (2012) 1370 302 446 478 654 2850 3310 3540
2020-07-11 07:30 3.76 669 3580 (2017) 252 (2012) 1370 302 446 478 654 2850 3310 3540
2020-07-11 06:30 3.76 669 3580 (2017) 252 (2012) 1370 302 446 478 654 2850 3310 3540
2020-07-11 05:30 3.77 675 3580 (2017) 252 (2012) 1370 302 446 478 654 2850 3310 3540
2020-07-11 04:30 3.77 675 3580 (2017) 252 (2012) 1370 302 446 478 654 2850 3310 3540
2020-07-11 03:30 3.78 680 3580 (2017) 252 (2012) 1370 302 446 478 654 2850 3310 3540
2020-07-11 02:30 3.78 680 3580 (2017) 252 (2012) 1370 302 446 478 654 2850 3310 3540
2020-07-11 01:30 3.79 686 3580 (2017) 252 (2012) 1370 302 446 478 654 2850 3310 3540
2020-07-11 00:30 3.80 692 3580 (2017) 252 (2012) 1370 302 446 478 654 2850 3310 3540
2020-07-10 23:30 3.80 692 3520 (2017) 257 (2012) 1320 306 450 484 701 2010 2650 3510
2020-07-10 22:30 3.82 703 3520 (2017) 257 (2012) 1320 306 450 484 701 2010 2650 3510
2020-07-10 21:30 3.83 708 3520 (2017) 257 (2012) 1320 306 450 484 701 2010 2650 3510
2020-07-10 20:30 3.85 720 3520 (2017) 257 (2012) 1320 306 450 484 701 2010 2650 3510
2020-07-10 19:30 3.87 731 3520 (2017) 257 (2012) 1320 306 450 484 701 2010 2650 3510
2020-07-10 18:30 3.89 743 3520 (2017) 257 (2012) 1320 306 450 484 701 2010 2650 3510
2020-07-10 17:30 3.91 754 3520 (2017) 257 (2012) 1320 306 450 484 701 2010 2650 3510
2020-07-10 16:30 3.93 766 3520 (2017) 257 (2012) 1320 306 450 484 701 2010 2650 3510
2020-07-10 15:30 3.94 772 3520 (2017) 257 (2012) 1320 306 450 484 701 2010 2650 3510
2020-07-10 14:30 3.94 772 3520 (2017) 257 (2012) 1320 306 450 484 701 2010 2650 3510
2020-07-10 13:30 3.95 777 3520 (2017) 257 (2012) 1320 306 450 484 701 2010 2650 3510
2020-07-10 12:30 3.95 777 3520 (2017) 257 (2012) 1320 306 450 484 701 2010 2650 3510
2020-07-10 11:30 3.95 777 3520 (2017) 257 (2012) 1320 306 450 484 701 2010 2650 3510
2020-07-10 10:30 3.95 777 3520 (2017) 257 (2012) 1320 306 450 484 701 2010 2650 3510
2020-07-10 09:30 3.95 777 3520 (2017) 257 (2012) 1320 306 450 484 701 2010 2650 3510
2020-07-10 08:30 3.95 777 3520 (2017) 257 (2012) 1320 306 450 484 701 2010 2650 3510
2020-07-10 07:30 3.95 777 3520 (2017) 257 (2012) 1320 306 450 484 701 2010 2650 3510
2020-07-10 06:30 3.95 777 3520 (2017) 257 (2012) 1320 306 450 484 701 2010 2650 3510
2020-07-10 05:30 3.95 777 3520 (2017) 257 (2012) 1320 306 450 484 701 2010 2650 3510
2020-07-10 04:30 3.95 777 3520 (2017) 257 (2012) 1320 306 450 484 701 2010 2650 3510
2020-07-10 03:30 3.95 777 3520 (2017) 257 (2012) 1320 306 450 484 701 2010 2650 3510
2020-07-10 02:30 3.95 777 3520 (2017) 257 (2012) 1320 306 450 484 701 2010 2650 3510
2020-07-10 01:30 3.95 777 3520 (2017) 257 (2012) 1320 306 450 484 701 2010 2650 3510
2020-07-10 00:30 3.96 783 3520 (2017) 257 (2012) 1320 306 450 484 701 2010 2650 3510
2020-07-09 23:30 3.96 783 3550 (2011) 256 (2012) 1280 307 454 487 719 1710 2500 3540
2020-07-09 22:30 3.96 783 3550 (2011) 256 (2012) 1280 307 454 487 719 1710 2500 3540
2020-07-09 21:30 3.97 789 3550 (2011) 256 (2012) 1280 307 454 487 719 1710 2500 3540
2020-07-09 20:30 3.97 789 3550 (2011) 256 (2012) 1280 307 454 487 719 1710 2500 3540
2020-07-09 19:30 3.98 795 3550 (2011) 256 (2012) 1280 307 454 487 719 1710 2500 3540
2020-07-09 18:30 3.99 801 3550 (2011) 256 (2012) 1280 307 454 487 719 1710 2500 3540
2020-07-09 17:30 4.00 807 3550 (2011) 256 (2012) 1280 307 454 487 719 1710 2500 3540
2020-07-09 16:30 4.01 813 3550 (2011) 256 (2012) 1280 307 454 487 719 1710 2500 3540
2020-07-09 15:30 4.02 819 3550 (2011) 256 (2012) 1280 307 454 487 719 1710 2500 3540
2020-07-09 14:30 4.02 819 3550 (2011) 256 (2012) 1280 307 454 487 719 1710 2500 3540
2020-07-09 13:30 4.03 825 3550 (2011) 256 (2012) 1280 307 454 487 719 1710 2500 3540
2020-07-09 12:30 4.03 825 3550 (2011) 256 (2012) 1280 307 454 487 719 1710 2500 3540
2020-07-09 11:30 4.03 825 3550 (2011) 256 (2012) 1280 307 454 487 719 1710 2500 3540
2020-07-09 10:30 4.03 825 3550 (2011) 256 (2012) 1280 307 454 487 719 1710 2500 3540
2020-07-09 09:30 4.03 825 3550 (2011) 256 (2012) 1280 307 454 487 719 1710 2500 3540
2020-07-09 08:30 4.03 825 3550 (2011) 256 (2012) 1280 307 454 487 719 1710 2500 3540
2020-07-09 07:30 4.03 825 3550 (2011) 256 (2012) 1280 307 454 487 719 1710 2500 3540
2020-07-09 06:30 4.02 819 3550 (2011) 256 (2012) 1280 307 454 487 719 1710 2500 3540
2020-07-09 05:30 4.02 819 3550 (2011) 256 (2012) 1280 307 454 487 719 1710 2500 3540
2020-07-09 04:30 4.02 819 3550 (2011) 256 (2012) 1280 307 454 487 719 1710 2500 3540
2020-07-09 03:30 4.02 819 3550 (2011) 256 (2012) 1280 307 454 487 719 1710 2500 3540
2020-07-09 02:30 4.02 819 3550 (2011) 256 (2012) 1280 307 454 487 719 1710 2500 3540
2020-07-09 01:30 4.02 819 3550 (2011) 256 (2012) 1280 307 454 487 719 1710 2500 3540
2020-07-09 00:30 4.02 819 3550 (2011) 256 (2012) 1280 307 454 487 719 1710 2500 3540
2020-07-08 23:30 4.02 819 3600 (2011) 255 (2012) 1220 300 447 489 736 1480 2410 3590
2020-07-08 22:30 4.02 819 3600 (2011) 255 (2012) 1220 300 447 489 736 1480 2410 3590
2020-07-08 21:30 4.02 819 3600 (2011) 255 (2012) 1220 300 447 489 736 1480 2410 3590
2020-07-08 20:30 4.03 825 3600 (2011) 255 (2012) 1220 300 447 489 736 1480 2410 3590
2020-07-08 19:30 4.03 825 3600 (2011) 255 (2012) 1220 300 447 489 736 1480 2410 3590
2020-07-08 18:30 4.03 825 3600 (2011) 255 (2012) 1220 300 447 489 736 1480 2410 3590
2020-07-08 17:30 4.03 825 3600 (2011) 255 (2012) 1220 300 447 489 736 1480 2410 3590
2020-07-08 16:30 4.03 825 3600 (2011) 255 (2012) 1220 300 447 489 736 1480 2410 3590
2020-07-08 15:30 4.03 825 3600 (2011) 255 (2012) 1220 300 447 489 736 1480 2410 3590
2020-07-08 14:30 4.04 831 3600 (2011) 255 (2012) 1220 300 447 489 736 1480 2410 3590
2020-07-08 13:30 4.04 831 3600 (2011) 255 (2012) 1220 300 447 489 736 1480 2410 3590
2020-07-08 12:30 4.04 831 3600 (2011) 255 (2012) 1220 300 447 489 736 1480 2410 3590
2020-07-08 11:30 4.04 831 3600 (2011) 255 (2012) 1220 300 447 489 736 1480 2410 3590
2020-07-08 10:30 4.04 831 3600 (2011) 255 (2012) 1220 300 447 489 736 1480 2410 3590
2020-07-08 09:30 4.04 831 3600 (2011) 255 (2012) 1220 300 447 489 736 1480 2410 3590
2020-07-08 08:30 4.04 831 3600 (2011) 255 (2012) 1220 300 447 489 736 1480 2410 3590
2020-07-08 07:30 4.04 831 3600 (2011) 255 (2012) 1220 300 447 489 736 1480 2410 3590
2020-07-08 06:30 4.04 831 3600 (2011) 255 (2012) 1220 300 447 489 736 1480 2410 3590
2020-07-08 05:30 4.03 825 3600 (2011) 255 (2012) 1220 300 447 489 736 1480 2410 3590
2020-07-08 04:30 4.02 819 3600 (2011) 255 (2012) 1220 300 447 489 736 1480 2410 3590
2020-07-08 03:30 4.02 819 3600 (2011) 255 (2012) 1220 300 447 489 736 1480 2410 3590
2020-07-08 02:30 4.02 819 3600 (2011) 255 (2012) 1220 300 447 489 736 1480 2410 3590
2020-07-08 01:30 4.02 819 3600 (2011) 255 (2012) 1220 300 447 489 736 1480 2410 3590
2020-07-08 00:30 4.02 819 3600 (2011) 255 (2012) 1220 300 447 489 736 1480 2410 3590
2020-07-07 23:30 4.02 819 3630 (2011) 258 (2012) 1220 298 451 501 798 1360 2300 3620
2020-07-07 22:30 4.02 819 3630 (2011) 258 (2012) 1220 298 451 501 798 1360 2300 3620
2020-07-07 21:30 4.02 819 3630 (2011) 258 (2012) 1220 298 451 501 798 1360 2300 3620
2020-07-07 20:30 4.02 819 3630 (2011) 258 (2012) 1220 298 451 501 798 1360 2300 3620
2020-07-07 19:30 4.02 819 3630 (2011) 258 (2012) 1220 298 451 501 798 1360 2300 3620
2020-07-07 18:30 4.02 819 3630 (2011) 258 (2012) 1220 298 451 501 798 1360 2300 3620
2020-07-07 17:30 4.02 819 3630 (2011) 258 (2012) 1220 298 451 501 798 1360 2300 3620
2020-07-07 16:30 4.02 819 3630 (2011) 258 (2012) 1220 298 451 501 798 1360 2300 3620
2020-07-07 15:30 4.02 819 3630 (2011) 258 (2012) 1220 298 451 501 798 1360 2300 3620
2020-07-07 14:30 4.02 819 3630 (2011) 258 (2012) 1220 298 451 501 798 1360 2300 3620
2020-07-07 13:30 4.02 819 3630 (2011) 258 (2012) 1220 298 451 501 798 1360 2300 3620
2020-07-07 12:30 4.02 819 3630 (2011) 258 (2012) 1220 298 451 501 798 1360 2300 3620
2020-07-07 11:30 4.02 819 3630 (2011) 258 (2012) 1220 298 451 501 798 1360 2300 3620
2020-07-07 10:30 4.02 819 3630 (2011) 258 (2012) 1220 298 451 501 798 1360 2300 3620
2020-07-07 09:30 4.02 819 3630 (2011) 258 (2012) 1220 298 451 501 798 1360 2300 3620
2020-07-07 08:30 4.01 813 3630 (2011) 258 (2012) 1220 298 451 501 798 1360 2300 3620
2020-07-07 07:30 4.01 813 3630 (2011) 258 (2012) 1220 298 451 501 798 1360 2300 3620
2020-07-07 06:30 4.01 813 3630 (2011) 258 (2012) 1220 298 451 501 798 1360 2300 3620
2020-07-07 05:30 4.01 813 3630 (2011) 258 (2012) 1220 298 451 501 798 1360 2300 3620
2020-07-07 04:30 4.00 807 3630 (2011) 258 (2012) 1220 298 451 501 798 1360 2300 3620
2020-07-07 03:30 4.00 807 3630 (2011) 258 (2012) 1220 298 451 501 798 1360 2300 3620
2020-07-07 02:30 4.00 807 3630 (2011) 258 (2012) 1220 298 451 501 798 1360 2300 3620
2020-07-07 01:30 3.99 801 3630 (2011) 258 (2012) 1220 298 451 501 798 1360 2300 3620
2020-07-07 00:30 3.98 795 3630 (2011) 258 (2012) 1220 298 451 501 798 1360 2300 3620
2020-07-06 23:30 3.97 789 3660 (2011) 263 (2012) 1210 285 462 549 774 1270 2250 3650
2020-07-06 22:30 3.97 789 3660 (2011) 263 (2012) 1210 285 462 549 774 1270 2250 3650
2020-07-06 21:30 3.96 783 3660 (2011) 263 (2012) 1210 285 462 549 774 1270 2250 3650
2020-07-06 20:30 3.94 772 3660 (2011) 263 (2012) 1210 285 462 549 774 1270 2250 3650
2020-07-06 19:30 3.92 760 3660 (2011) 263 (2012) 1210 285 462 549 774 1270 2250 3650
2020-07-06 18:30 3.90 748 3660 (2011) 263 (2012) 1210 285 462 549 774 1270 2250 3650
2020-07-06 17:30 3.88 737 3660 (2011) 263 (2012) 1210 285 462 549 774 1270 2250 3650
2020-07-06 16:30 3.87 731 3660 (2011) 263 (2012) 1210 285 462 549 774 1270 2250 3650
2020-07-06 15:30 3.85 720 3660 (2011) 263 (2012) 1210 285 462 549 774 1270 2250 3650
2020-07-06 14:30 3.83 708 3660 (2011) 263 (2012) 1210 285 462 549 774 1270 2250 3650
2020-07-06 13:30 3.83 708 3660 (2011) 263 (2012) 1210 285 462 549 774 1270 2250 3650
2020-07-06 12:30 3.83 708 3660 (2011) 263 (2012) 1210 285 462 549 774 1270 2250 3650
2020-07-06 11:30 3.83 708 3660 (2011) 263 (2012) 1210 285 462 549 774 1270 2250 3650
2020-07-06 10:30 3.83 708 3660 (2011) 263 (2012) 1210 285 462 549 774 1270 2250 3650
2020-07-06 09:30 3.83 708 3660 (2011) 263 (2012) 1210 285 462 549 774 1270 2250 3650
2020-07-06 08:30 3.83 708 3660 (2011) 263 (2012) 1210 285 462 549 774 1270 2250 3650
2020-07-06 07:30 3.83 708 3660 (2011) 263 (2012) 1210 285 462 549 774 1270 2250 3650
2020-07-06 06:30 3.83 708 3660 (2011) 263 (2012) 1210 285 462 549 774 1270 2250 3650
2020-07-06 05:30 3.83 708 3660 (2011) 263 (2012) 1210 285 462 549 774 1270 2250 3650
2020-07-06 04:30 3.83 708 3660 (2011) 263 (2012) 1210 285 462 549 774 1270 2250 3650
2020-07-06 03:30 3.83 708 3660 (2011) 263 (2012) 1210 285 462 549 774 1270 2250 3650
2020-07-06 02:30 3.83 708 3660 (2011) 263 (2012) 1210 285 462 549 774 1270 2250 3650
2020-07-06 01:30 3.83 708 3660 (2011) 263 (2012) 1210 285 462 549 774 1270 2250 3650
2020-07-06 00:30 3.83 708 3660 (2011) 263 (2012) 1210 285 462 549 774 1270 2250 3650
2020-07-05 23:30 3.83 708 3660 (2017) 266 (2012) 1170 286 465 557 731 1090 2110 3640
2020-07-05 22:30 3.83 708 3660 (2017) 266 (2012) 1170 286 465 557 731 1090 2110 3640
2020-07-05 21:30 3.83 708 3660 (2017) 266 (2012) 1170 286 465 557 731 1090 2110 3640
2020-07-05 20:30 3.83 708 3660 (2017) 266 (2012) 1170 286 465 557 731 1090 2110 3640
2020-07-05 19:30 3.83 708 3660 (2017) 266 (2012) 1170 286 465 557 731 1090 2110 3640
2020-07-05 18:30 3.83 708 3660 (2017) 266 (2012) 1170 286 465 557 731 1090 2110 3640
2020-07-05 17:30 3.83 708 3660 (2017) 266 (2012) 1170 286 465 557 731 1090 2110 3640
2020-07-05 16:30 3.84 714 3660 (2017) 266 (2012) 1170 286 465 557 731 1090 2110 3640
2020-07-05 15:30 3.84 714 3660 (2017) 266 (2012) 1170 286 465 557 731 1090 2110 3640
2020-07-05 14:30 3.84 714 3660 (2017) 266 (2012) 1170 286 465 557 731 1090 2110 3640
2020-07-05 13:30 3.84 714 3660 (2017) 266 (2012) 1170 286 465 557 731 1090 2110 3640
2020-07-05 12:30 3.84 714 3660 (2017) 266 (2012) 1170 286 465 557 731 1090 2110 3640
2020-07-05 11:30 3.84 714 3660 (2017) 266 (2012) 1170 286 465 557 731 1090 2110 3640
2020-07-05 10:30 3.84 714 3660 (2017) 266 (2012) 1170 286 465 557 731 1090 2110 3640
2020-07-05 09:30 3.84 714 3660 (2017) 266 (2012) 1170 286 465 557 731 1090 2110 3640
2020-07-05 08:30 3.84 714 3660 (2017) 266 (2012) 1170 286 465 557 731 1090 2110 3640
2020-07-05 07:30 3.84 714 3660 (2017) 266 (2012) 1170 286 465 557 731 1090 2110 3640
2020-07-05 06:30 3.84 714 3660 (2017) 266 (2012) 1170 286 465 557 731 1090 2110 3640
2020-07-05 05:30 3.84 714 3660 (2017) 266 (2012) 1170 286 465 557 731 1090 2110 3640
2020-07-05 04:30 3.84 714 3660 (2017) 266 (2012) 1170 286 465 557 731 1090 2110 3640
2020-07-05 03:30 3.84 714 3660 (2017) 266 (2012) 1170 286 465 557 731 1090 2110 3640
2020-07-05 02:30 3.84 714 3660 (2017) 266 (2012) 1170 286 465 557 731 1090 2110 3640
2020-07-05 01:30 3.84 714 3660 (2017) 266 (2012) 1170 286 465 557 731 1090 2110 3640
2020-07-05 00:30 3.84 714 3660 (2017) 266 (2012) 1170 286 465 557 731 1090 2110 3640
2020-07-04 23:30 3.84 714 3650 (2017) 273 (2012) 1170 292 467 556 772 1100 2120 3630
2020-07-04 22:30 3.84 714 3650 (2017) 273 (2012) 1170 292 467 556 772 1100 2120 3630
2020-07-04 21:30 3.84 714 3650 (2017) 273 (2012) 1170 292 467 556 772 1100 2120 3630
2020-07-04 20:30 3.84 714 3650 (2017) 273 (2012) 1170 292 467 556 772 1100 2120 3630
2020-07-04 19:30 3.84 714 3650 (2017) 273 (2012) 1170 292 467 556 772 1100 2120 3630
2020-07-04 18:30 3.84 714 3650 (2017) 273 (2012) 1170 292 467 556 772 1100 2120 3630
2020-07-04 17:30 3.85 720 3650 (2017) 273 (2012) 1170 292 467 556 772 1100 2120 3630
2020-07-04 16:30 3.85 720 3650 (2017) 273 (2012) 1170 292 467 556 772 1100 2120 3630
2020-07-04 15:30 3.85 720 3650 (2017) 273 (2012) 1170 292 467 556 772 1100 2120 3630
2020-07-04 14:30 3.85 720 3650 (2017) 273 (2012) 1170 292 467 556 772 1100 2120 3630
2020-07-04 13:30 3.85 720 3650 (2017) 273 (2012) 1170 292 467 556 772 1100 2120 3630
2020-07-04 12:30 3.85 720 3650 (2017) 273 (2012) 1170 292 467 556 772 1100 2120 3630
2020-07-04 11:30 3.85 720 3650 (2017) 273 (2012) 1170 292 467 556 772 1100 2120 3630
2020-07-04 10:30 3.85 720 3650 (2017) 273 (2012) 1170 292 467 556 772 1100 2120 3630
2020-07-04 09:30 3.85 720 3650 (2017) 273 (2012) 1170 292 467 556 772 1100 2120 3630
2020-07-04 08:30 3.85 720 3650 (2017) 273 (2012) 1170 292 467 556 772 1100 2120 3630
2020-07-04 07:30 3.85 720 3650 (2017) 273 (2012) 1170 292 467 556 772 1100 2120 3630
2020-07-04 06:30 3.85 720 3650 (2017) 273 (2012) 1170 292 467 556 772 1100 2120 3630
2020-07-04 05:30 3.85 720 3650 (2017) 273 (2012) 1170 292 467 556 772 1100 2120 3630
2020-07-04 04:30 3.85 720 3650 (2017) 273 (2012) 1170 292 467 556 772 1100 2120 3630
2020-07-04 03:30 3.85 720 3650 (2017) 273 (2012) 1170 292 467 556 772 1100 2120 3630
2020-07-04 02:30 3.85 720 3650 (2017) 273 (2012) 1170 292 467 556 772 1100 2120 3630
2020-07-04 01:30 3.85 720 3650 (2017) 273 (2012) 1170 292 467 556 772 1100 2120 3630
2020-07-04 00:30 3.85 720 3650 (2017) 273 (2012) 1170 292 467 556 772 1100 2120 3630
2020-07-03 23:30 3.85 720 3690 (2017) 291 (2012) 1190 306 432 509 799 1170 2160 3670
2020-07-03 22:30 3.85 720 3690 (2017) 291 (2012) 1190 306 432 509 799 1170 2160 3670
2020-07-03 21:30 3.86 725 3690 (2017) 291 (2012) 1190 306 432 509 799 1170 2160 3670
2020-07-03 20:30 3.86 725 3690 (2017) 291 (2012) 1190 306 432 509 799 1170 2160 3670
2020-07-03 19:30 3.86 725 3690 (2017) 291 (2012) 1190 306 432 509 799 1170 2160 3670
2020-07-03 18:30 3.86 725 3690 (2017) 291 (2012) 1190 306 432 509 799 1170 2160 3670
2020-07-03 17:30 3.86 725 3690 (2017) 291 (2012) 1190 306 432 509 799 1170 2160 3670
2020-07-03 16:30 3.86 725 3690 (2017) 291 (2012) 1190 306 432 509 799 1170 2160 3670
2020-07-03 15:30 3.86 725 3690 (2017) 291 (2012) 1190 306 432 509 799 1170 2160 3670
2020-07-03 14:30 3.86 725 3690 (2017) 291 (2012) 1190 306 432 509 799 1170 2160 3670
2020-07-03 13:30 3.86 725 3690 (2017) 291 (2012) 1190 306 432 509 799 1170 2160 3670
2020-07-03 12:30 3.86 725 3690 (2017) 291 (2012) 1190 306 432 509 799 1170 2160 3670
2020-07-03 11:30 3.86 725 3690 (2017) 291 (2012) 1190 306 432 509 799 1170 2160 3670
2020-07-03 10:30 3.86 725 3690 (2017) 291 (2012) 1190 306 432 509 799 1170 2160 3670
2020-07-03 09:30 3.86 725 3690 (2017) 291 (2012) 1190 306 432 509 799 1170 2160 3670
2020-07-03 08:30 3.86 725 3690 (2017) 291 (2012) 1190 306 432 509 799 1170 2160 3670
2020-07-03 07:30 3.86 725 3690 (2017) 291 (2012) 1190 306 432 509 799 1170 2160 3670
2020-07-03 06:30 3.86 725 3690 (2017) 291 (2012) 1190 306 432 509 799 1170 2160 3670
2020-07-03 05:30 3.86 725 3690 (2017) 291 (2012) 1190 306 432 509 799 1170 2160 3670
2020-07-03 04:30 3.87 731 3690 (2017) 291 (2012) 1190 306 432 509 799 1170 2160 3670
2020-07-03 03:30 3.86 725 3690 (2017) 291 (2012) 1190 306 432 509 799 1170 2160 3670
2020-07-03 02:30 3.86 725 3690 (2017) 291 (2012) 1190 306 432 509 799 1170 2160 3670
2020-07-03 01:30 3.86 725 3690 (2017) 291 (2012) 1190 306 432 509 799 1170 2160 3670
2020-07-03 00:30 3.86 725 3690 (2017) 291 (2012) 1190 306 432 509 799 1170 2160 3670
2020-07-02 23:30 3.86 725 3710 (2017) 294 (2012) 1210 312 463 537 806 1170 2210 3690
2020-07-02 22:30 3.86 725 3710 (2017) 294 (2012) 1210 312 463 537 806 1170 2210 3690
2020-07-02 21:30 3.87 731 3710 (2017) 294 (2012) 1210 312 463 537 806 1170 2210 3690
2020-07-02 20:30 3.87 731 3710 (2017) 294 (2012) 1210 312 463 537 806 1170 2210 3690
2020-07-02 19:30 3.87 731 3710 (2017) 294 (2012) 1210 312 463 537 806 1170 2210 3690
2020-07-02 18:30 3.87 731 3710 (2017) 294 (2012) 1210 312 463 537 806 1170 2210 3690
2020-07-02 17:30 3.87 731 3710 (2017) 294 (2012) 1210 312 463 537 806 1170 2210 3690
2020-07-02 16:30 3.87 731 3710 (2017) 294 (2012) 1210 312 463 537 806 1170 2210 3690
2020-07-02 15:30 3.87 731 3710 (2017) 294 (2012) 1210 312 463 537 806 1170 2210 3690
2020-07-02 14:30 3.88 737 3710 (2017) 294 (2012) 1210 312 463 537 806 1170 2210 3690
2020-07-02 13:30 3.88 737 3710 (2017) 294 (2012) 1210 312 463 537 806 1170 2210 3690
2020-07-02 12:30 3.88 737 3710 (2017) 294 (2012) 1210 312 463 537 806 1170 2210 3690
2020-07-02 11:30 3.88 737 3710 (2017) 294 (2012) 1210 312 463 537 806 1170 2210 3690
2020-07-02 10:30 3.88 737 3710 (2017) 294 (2012) 1210 312 463 537 806 1170 2210 3690
2020-07-02 09:30 3.88 737 3710 (2017) 294 (2012) 1210 312 463 537 806 1170 2210 3690
2020-07-02 08:30 3.88 737 3710 (2017) 294 (2012) 1210 312 463 537 806 1170 2210 3690
2020-07-02 07:30 3.88 737 3710 (2017) 294 (2012) 1210 312 463 537 806 1170 2210 3690
2020-07-02 06:30 3.88 737 3710 (2017) 294 (2012) 1210 312 463 537 806 1170 2210 3690
2020-07-02 05:30 3.88 737 3710 (2017) 294 (2012) 1210 312 463 537 806 1170 2210 3690
2020-07-02 04:30 3.88 737 3710 (2017) 294 (2012) 1210 312 463 537 806 1170 2210 3690
2020-07-02 03:30 3.88 737 3710 (2017) 294 (2012) 1210 312 463 537 806 1170 2210 3690
2020-07-02 02:30 3.88 737 3710 (2017) 294 (2012) 1210 312 463 537 806 1170 2210 3690
2020-07-02 01:30 3.88 737 3710 (2017) 294 (2012) 1210 312 463 537 806 1170 2210 3690
2020-07-02 00:30 3.88 737 3710 (2017) 294 (2012) 1210 312 463 537 806 1170 2210 3690
2020-07-01 23:30 3.88 737 3750 (2017) 294 (2012) 1310 331 465 534 958 1320 2280 3730
2020-07-01 22:30 3.89 743 3750 (2017) 294 (2012) 1310 331 465 534 958 1320 2280 3730
2020-07-01 21:30 3.89 743 3750 (2017) 294 (2012) 1310 331 465 534 958 1320 2280 3730
2020-07-01 20:30 3.89 743 3750 (2017) 294 (2012) 1310 331 465 534 958 1320 2280 3730
2020-07-01 19:30 3.89 743 3750 (2017) 294 (2012) 1310 331 465 534 958 1320 2280 3730
2020-07-01 18:30 3.89 743 3750 (2017) 294 (2012) 1310 331 465 534 958 1320 2280 3730
2020-07-01 17:30 3.89 743 3750 (2017) 294 (2012) 1310 331 465 534 958 1320 2280 3730
2020-07-01 16:30 3.89 743 3750 (2017) 294 (2012) 1310 331 465 534 958 1320 2280 3730
2020-07-01 15:30 3.89 743 3750 (2017) 294 (2012) 1310 331 465 534 958 1320 2280 3730
2020-07-01 14:30 3.89 743 3750 (2017) 294 (2012) 1310 331 465 534 958 1320 2280 3730
2020-07-01 13:30 3.89 743 3750 (2017) 294 (2012) 1310 331 465 534 958 1320 2280 3730
2020-07-01 12:30 3.90 748 3750 (2017) 294 (2012) 1310 331 465 534 958 1320 2280 3730
2020-07-01 11:30 3.90 748 3750 (2017) 294 (2012) 1310 331 465 534 958 1320 2280 3730
2020-07-01 10:30 3.90 748 3750 (2017) 294 (2012) 1310 331 465 534 958 1320 2280 3730
2020-07-01 09:30 3.89 743 3750 (2017) 294 (2012) 1310 331 465 534 958 1320 2280 3730
2020-07-01 08:30 3.90 748 3750 (2017) 294 (2012) 1310 331 465 534 958 1320 2280 3730
2020-07-01 07:30 3.90 748 3750 (2017) 294 (2012) 1310 331 465 534 958 1320 2280 3730
2020-07-01 06:30 3.90 748 3750 (2017) 294 (2012) 1310 331 465 534 958 1320 2280 3730
2020-07-01 05:30 3.90 748 3750 (2017) 294 (2012) 1310 331 465 534 958 1320 2280 3730
2020-07-01 04:30 3.90 748 3750 (2017) 294 (2012) 1310 331 465 534 958 1320 2280 3730
2020-07-01 03:30 3.90 748 3750 (2017) 294 (2012) 1310 331 465 534 958 1320 2280 3730
2020-07-01 02:30 3.90 748 3750 (2017) 294 (2012) 1310 331 465 534 958 1320 2280 3730
2020-07-01 01:30 3.90 748 3750 (2017) 294 (2012) 1310 331 465 534 958 1320 2280 3730
2020-07-01 00:30 3.90 748 3750 (2017) 294 (2012) 1310 331 465 534 958 1320 2280 3730
2020-06-30 23:30 3.90 748 3760 (2017) 296 (2012) 1340 336 482 547 1030 1500 2460 3740
2020-06-30 22:30 3.90 748 3760 (2017) 296 (2012) 1340 336 482 547 1030 1500 2460 3740
2020-06-30 21:30 3.90 748 3760 (2017) 296 (2012) 1340 336 482 547 1030 1500 2460 3740
2020-06-30 20:30 3.90 748 3760 (2017) 296 (2012) 1340 336 482 547 1030 1500 2460 3740
2020-06-30 19:30 3.90 748 3760 (2017) 296 (2012) 1340 336 482 547 1030 1500 2460 3740
2020-06-30 18:30 3.91 754 3760 (2017) 296 (2012) 1340 336 482 547 1030 1500 2460 3740
2020-06-30 17:30 3.91 754 3760 (2017) 296 (2012) 1340 336 482 547 1030 1500 2460 3740
2020-06-30 16:30 3.91 754 3760 (2017) 296 (2012) 1340 336 482 547 1030 1500 2460 3740
2020-06-30 15:30 3.92 760 3760 (2017) 296 (2012) 1340 336 482 547 1030 1500 2460 3740
2020-06-30 14:30 3.92 760 3760 (2017) 296 (2012) 1340 336 482 547 1030 1500 2460 3740
2020-06-30 13:30 3.92 760 3760 (2017) 296 (2012) 1340 336 482 547 1030 1500 2460 3740
2020-06-30 12:30 3.92 760 3760 (2017) 296 (2012) 1340 336 482 547 1030 1500 2460 3740
2020-06-30 11:30 3.93 766 3760 (2017) 296 (2012) 1340 336 482 547 1030 1500 2460 3740
2020-06-30 10:30 3.93 766 3760 (2017) 296 (2012) 1340 336 482 547 1030 1500 2460 3740
2020-06-30 09:30 3.93 766 3760 (2017) 296 (2012) 1340 336 482 547 1030 1500 2460 3740
2020-06-30 08:30 3.93 766 3760 (2017) 296 (2012) 1340 336 482 547 1030 1500 2460 3740
2020-06-30 07:30 3.93 766 3760 (2017) 296 (2012) 1340 336 482 547 1030 1500 2460 3740
2020-06-30 06:30 3.93 766 3760 (2017) 296 (2012) 1340 336 482 547 1030 1500 2460 3740
2020-06-30 05:30 3.93 766 3760 (2017) 296 (2012) 1340 336 482 547 1030 1500 2460 3740
2020-06-30 04:30 3.93 766 3760 (2017) 296 (2012) 1340 336 482 547 1030 1500 2460 3740
2020-06-30 03:30 3.92 760 3760 (2017) 296 (2012) 1340 336 482 547 1030 1500 2460 3740
2020-06-30 02:30 3.92 760 3760 (2017) 296 (2012) 1340 336 482 547 1030 1500 2460 3740
2020-06-30 01:30 3.93 766 3760 (2017) 296 (2012) 1340 336 482 547 1030 1500 2460 3740
2020-06-30 00:30 3.93 766 3760 (2017) 296 (2012) 1340 336 482 547 1030 1500 2460 3740
2020-06-29 23:30 3.94 772 3790 (2017) 300 (2012) 1410 339 511 572 1050 1950 2760 3760
2020-06-29 22:30 3.94 772 3790 (2017) 300 (2012) 1410 339 511 572 1050 1950 2760 3760
2020-06-29 21:30 3.95 777 3790 (2017) 300 (2012) 1410 339 511 572 1050 1950 2760 3760
2020-06-29 20:30 3.96 783 3790 (2017) 300 (2012) 1410 339 511 572 1050 1950 2760 3760
2020-06-29 19:30 3.97 789 3790 (2017) 300 (2012) 1410 339 511 572 1050 1950 2760 3760
2020-06-29 18:30 3.98 795 3790 (2017) 300 (2012) 1410 339 511 572 1050 1950 2760 3760
2020-06-29 17:30 4.00 807 3790 (2017) 300 (2012) 1410 339 511 572 1050 1950 2760 3760
2020-06-29 16:30 4.01 813 3790 (2017) 300 (2012) 1410 339 511 572 1050 1950 2760 3760
2020-06-29 15:30 4.02 819 3790 (2017) 300 (2012) 1410 339 511 572 1050 1950 2760 3760
2020-06-29 14:30 4.03 825 3790 (2017) 300 (2012) 1410 339 511 572 1050 1950 2760 3760
2020-06-29 13:30 4.03 825 3790 (2017) 300 (2012) 1410 339 511 572 1050 1950 2760 3760
2020-06-29 12:30 4.03 825 3790 (2017) 300 (2012) 1410 339 511 572 1050 1950 2760 3760
2020-06-29 11:30 4.03 825 3790 (2017) 300 (2012) 1410 339 511 572 1050 1950 2760 3760
2020-06-29 10:30 4.03 825 3790 (2017) 300 (2012) 1410 339 511 572 1050 1950 2760 3760
2020-06-29 09:30 4.03 825 3790 (2017) 300 (2012) 1410 339 511 572 1050 1950 2760 3760
2020-06-29 08:30 4.03 825 3790 (2017) 300 (2012) 1410 339 511 572 1050 1950 2760 3760
2020-06-29 07:30 4.03 825 3790 (2017) 300 (2012) 1410 339 511 572 1050 1950 2760 3760
2020-06-29 06:30 4.03 825 3790 (2017) 300 (2012) 1410 339 511 572 1050 1950 2760 3760
2020-06-29 05:30 4.03 825 3790 (2017) 300 (2012) 1410 339 511 572 1050 1950 2760 3760
2020-06-29 04:30 4.03 825 3790 (2017) 300 (2012) 1410 339 511 572 1050 1950 2760 3760
2020-06-29 03:30 4.04 831 3790 (2017) 300 (2012) 1410 339 511 572 1050 1950 2760 3760
2020-06-29 02:30 4.04 831 3790 (2017) 300 (2012) 1410 339 511 572 1050 1950 2760 3760
2020-06-29 01:30 4.03 825 3790 (2017) 300 (2012) 1410 339 511 572 1050 1950 2760 3760
2020-06-29 00:30 4.03 825 3790 (2017) 300 (2012) 1410 339 511 572 1050 1950 2760 3760
2020-06-28 23:30 4.03 825 3820 (2017) 308 (2012) 1480 347 495 586 1000 2270 3010 3800
2020-06-28 22:30 4.04 831 3820 (2017) 308 (2012) 1480 347 495 586 1000 2270 3010 3800
2020-06-28 21:30 4.04 831 3820 (2017) 308 (2012) 1480 347 495 586 1000 2270 3010 3800
2020-06-28 20:30 4.04 831 3820 (2017) 308 (2012) 1480 347 495 586 1000 2270 3010 3800
2020-06-28 19:30 4.04 831 3820 (2017) 308 (2012) 1480 347 495 586 1000 2270 3010 3800
2020-06-28 18:30 4.05 837 3820 (2017) 308 (2012) 1480 347 495 586 1000 2270 3010 3800
2020-06-28 17:30 4.05 837 3820 (2017) 308 (2012) 1480 347 495 586 1000 2270 3010 3800
2020-06-28 16:30 4.05 837 3820 (2017) 308 (2012) 1480 347 495 586 1000 2270 3010 3800
2020-06-28 15:30 4.05 837 3820 (2017) 308 (2012) 1480 347 495 586 1000 2270 3010 3800
2020-06-28 14:30 4.05 837 3820 (2017) 308 (2012) 1480 347 495 586 1000 2270 3010 3800
2020-06-28 13:30 4.05 837 3820 (2017) 308 (2012) 1480 347 495 586 1000 2270 3010 3800
2020-06-28 12:30 4.05 837 3820 (2017) 308 (2012) 1480 347 495 586 1000 2270 3010 3800
2020-06-28 11:30 4.05 837 3820 (2017) 308 (2012) 1480 347 495 586 1000 2270 3010 3800
2020-06-28 10:30 4.05 837 3820 (2017) 308 (2012) 1480 347 495 586 1000 2270 3010 3800
2020-06-28 09:30 4.05 837 3820 (2017) 308 (2012) 1480 347 495 586 1000 2270 3010 3800
2020-06-28 08:30 4.05 837 3820 (2017) 308 (2012) 1480 347 495 586 1000 2270 3010 3800
2020-06-28 07:30 4.05 837 3820 (2017) 308 (2012) 1480 347 495 586 1000 2270 3010 3800
2020-06-28 06:30 4.05 837 3820 (2017) 308 (2012) 1480 347 495 586 1000 2270 3010 3800
2020-06-28 05:30 4.05 837 3820 (2017) 308 (2012) 1480 347 495 586 1000 2270 3010 3800
2020-06-28 04:30 4.05 837 3820 (2017) 308 (2012) 1480 347 495 586 1000 2270 3010 3800
2020-06-28 03:30 4.05 837 3820 (2017) 308 (2012) 1480 347 495 586 1000 2270 3010 3800
2020-06-28 02:30 4.06 843 3820 (2017) 308 (2012) 1480 347 495 586 1000 2270 3010 3800
2020-06-28 01:30 4.06 843 3820 (2017) 308 (2012) 1480 347 495 586 1000 2270 3010 3800
2020-06-28 00:30 4.05 837 3820 (2017) 308 (2012) 1480 347 495 586 1000 2270 3010 3800
2020-06-27 23:30 4.05 837 3800 (2017) 339 (2012) 1610 368 509 604 1350 2610 3230 3780
2020-06-27 22:30 4.06 843 3800 (2017) 339 (2012) 1610 368 509 604 1350 2610 3230 3780
2020-06-27 21:30 4.05 837 3800 (2017) 339 (2012) 1610 368 509 604 1350 2610 3230 3780
2020-06-27 20:30 4.05 837 3800 (2017) 339 (2012) 1610 368 509 604 1350 2610 3230 3780
2020-06-27 19:30 4.06 843 3800 (2017) 339 (2012) 1610 368 509 604 1350 2610 3230 3780
2020-06-27 18:30 4.06 843 3800 (2017) 339 (2012) 1610 368 509 604 1350 2610 3230 3780
2020-06-27 17:30 4.06 843 3800 (2017) 339 (2012) 1610 368 509 604 1350 2610 3230 3780
2020-06-27 16:30 4.07 849 3800 (2017) 339 (2012) 1610 368 509 604 1350 2610 3230 3780
2020-06-27 15:30 4.07 849 3800 (2017) 339 (2012) 1610 368 509 604 1350 2610 3230 3780
2020-06-27 14:30 4.07 849 3800 (2017) 339 (2012) 1610 368 509 604 1350 2610 3230 3780
2020-06-27 13:30 4.07 849 3800 (2017) 339 (2012) 1610 368 509 604 1350 2610 3230 3780
2020-06-27 12:30 4.07 849 3800 (2017) 339 (2012) 1610 368 509 604 1350 2610 3230 3780
2020-06-27 11:30 4.07 849 3800 (2017) 339 (2012) 1610 368 509 604 1350 2610 3230 3780
2020-06-27 10:30 4.07 849 3800 (2017) 339 (2012) 1610 368 509 604 1350 2610 3230 3780
2020-06-27 09:30 4.06 843 3800 (2017) 339 (2012) 1610 368 509 604 1350 2610 3230 3780
2020-06-27 08:30 4.07 849 3800 (2017) 339 (2012) 1610 368 509 604 1350 2610 3230 3780
2020-06-27 07:30 4.07 849 3800 (2017) 339 (2012) 1610 368 509 604 1350 2610 3230 3780
2020-06-27 06:30 4.07 849 3800 (2017) 339 (2012) 1610 368 509 604 1350 2610 3230 3780
2020-06-27 05:30 4.07 849 3800 (2017) 339 (2012) 1610 368 509 604 1350 2610 3230 3780
2020-06-27 04:30 4.07 849 3800 (2017) 339 (2012) 1610 368 509 604 1350 2610 3230 3780
2020-06-27 03:30 4.07 849 3800 (2017) 339 (2012) 1610 368 509 604 1350 2610 3230 3780
2020-06-27 02:30 4.07 849 3800 (2017) 339 (2012) 1610 368 509 604 1350 2610 3230 3780
2020-06-27 01:30 4.07 849 3800 (2017) 339 (2012) 1610 368 509 604 1350 2610 3230 3780
2020-06-27 00:30 4.07 849 3800 (2017) 339 (2012) 1610 368 509 604 1350 2610 3230 3780
2020-06-26 23:30 4.07 849 3790 (2017) 339 (2012) 1740 367 488 580 1220 3050 3440 3770
2020-06-26 22:30 4.07 849 3790 (2017) 339 (2012) 1740 367 488 580 1220 3050 3440 3770
2020-06-26 21:30 4.08 855 3790 (2017) 339 (2012) 1740 367 488 580 1220 3050 3440 3770
2020-06-26 20:30 4.08 855 3790 (2017) 339 (2012) 1740 367 488 580 1220 3050 3440 3770
2020-06-26 19:30 4.08 855 3790 (2017) 339 (2012) 1740 367 488 580 1220 3050 3440 3770
2020-06-26 18:30 4.08 855 3790 (2017) 339 (2012) 1740 367 488 580 1220 3050 3440 3770
2020-06-26 17:30 4.08 855 3790 (2017) 339 (2012) 1740 367 488 580 1220 3050 3440 3770
2020-06-26 16:30 4.08 855 3790 (2017) 339 (2012) 1740 367 488 580 1220 3050 3440 3770
2020-06-26 15:30 4.08 855 3790 (2017) 339 (2012) 1740 367 488 580 1220 3050 3440 3770
2020-06-26 14:30 4.09 861 3790 (2017) 339 (2012) 1740 367 488 580 1220 3050 3440 3770
2020-06-26 13:30 4.09 861 3790 (2017) 339 (2012) 1740 367 488 580 1220 3050 3440 3770
2020-06-26 12:30 4.09 861 3790 (2017) 339 (2012) 1740 367 488 580 1220 3050 3440 3770
2020-06-26 11:30 4.08 855 3790 (2017) 339 (2012) 1740 367 488 580 1220 3050 3440 3770
2020-06-26 10:30 4.08 855 3790 (2017) 339 (2012) 1740 367 488 580 1220 3050 3440 3770
2020-06-26 09:30 4.09 861 3790 (2017) 339 (2012) 1740 367 488 580 1220 3050 3440 3770
2020-06-26 08:30 4.08 855 3790 (2017) 339 (2012) 1740 367 488 580 1220 3050 3440 3770
2020-06-26 07:30 4.08 855 3790 (2017) 339 (2012) 1740 367 488 580 1220 3050 3440 3770
2020-06-26 06:30 4.08 855 3790 (2017) 339 (2012) 1740 367 488 580 1220 3050 3440 3770
2020-06-26 05:30 4.08 855 3790 (2017) 339 (2012) 1740 367 488 580 1220 3050 3440 3770
2020-06-26 04:30 4.08 855 3790 (2017) 339 (2012) 1740 367 488 580 1220 3050 3440 3770
2020-06-26 03:30 4.09 861 3790 (2017) 339 (2012) 1740 367 488 580 1220 3050 3440 3770
2020-06-26 02:30 4.09 861 3790 (2017) 339 (2012) 1740 367 488 580 1220 3050 3440 3770
2020-06-26 01:30 4.09 861 3790 (2017) 339 (2012) 1740 367 488 580 1220 3050 3440 3770
2020-06-26 00:30 4.09 861 3790 (2017) 339 (2012) 1740 367 488 580 1220 3050 3440 3770
2020-06-25 23:30 4.09 861 3800 (2017) 335 (2012) 1810 356 440 537 1010 3350 3520 3780
2020-06-25 22:30 4.10 867 3800 (2017) 335 (2012) 1810 356 440 537 1010 3350 3520 3780
2020-06-25 21:30 4.10 867 3800 (2017) 335 (2012) 1810 356 440 537 1010 3350 3520 3780
2020-06-25 20:30 4.10 867 3800 (2017) 335 (2012) 1810 356 440 537 1010 3350 3520 3780
2020-06-25 19:30 4.10 867 3800 (2017) 335 (2012) 1810 356 440 537 1010 3350 3520 3780
2020-06-25 18:30 4.11 873 3800 (2017) 335 (2012) 1810 356 440 537 1010 3350 3520 3780
2020-06-25 17:30 4.11 873 3800 (2017) 335 (2012) 1810 356 440 537 1010 3350 3520 3780
2020-06-25 16:30 4.11 873 3800 (2017) 335 (2012) 1810 356 440 537 1010 3350 3520 3780
2020-06-25 15:30 4.11 873 3800 (2017) 335 (2012) 1810 356 440 537 1010 3350 3520 3780
2020-06-25 14:30 4.12 879 3800 (2017) 335 (2012) 1810 356 440 537 1010 3350 3520 3780
2020-06-25 13:30 4.12 879 3800 (2017) 335 (2012) 1810 356 440 537 1010 3350 3520 3780
2020-06-25 12:30 4.12 879 3800 (2017) 335 (2012) 1810 356 440 537 1010 3350 3520 3780
2020-06-25 11:30 4.12 879 3800 (2017) 335 (2012) 1810 356 440 537 1010 3350 3520 3780
2020-06-25 10:30 4.12 879 3800 (2017) 335 (2012) 1810 356 440 537 1010 3350 3520 3780
2020-06-25 09:30 4.12 879 3800 (2017) 335 (2012) 1810 356 440 537 1010 3350 3520 3780
2020-06-25 08:30 4.12 879 3800 (2017) 335 (2012) 1810 356 440 537 1010 3350 3520 3780
2020-06-25 07:30 4.12 879 3800 (2017) 335 (2012) 1810 356 440 537 1010 3350 3520 3780
2020-06-25 06:30 4.12 879 3800 (2017) 335 (2012) 1810 356 440 537 1010 3350 3520 3780
2020-06-25 05:30 4.13 885 3800 (2017) 335 (2012) 1810 356 440 537 1010 3350 3520 3780
2020-06-25 04:30 4.13 885 3800 (2017) 335 (2012) 1810 356 440 537 1010 3350 3520 3780
2020-06-25 03:30 4.14 891 3800 (2017) 335 (2012) 1810 356 440 537 1010 3350 3520 3780
2020-06-25 02:30 4.14 891 3800 (2017) 335 (2012) 1810 356 440 537 1010 3350 3520 3780
2020-06-25 01:30 4.14 891 3800 (2017) 335 (2012) 1810 356 440 537 1010 3350 3520 3780
2020-06-25 00:30 4.15 898 3800 (2017) 335 (2012) 1810 356 440 537 1010 3350 3520 3780
2020-06-24 23:30 4.16 904 3820 (2017) 336 (2012) 1880 357 435 505 1130 3480 3590 3800
2020-06-24 22:30 4.16 904 3820 (2017) 336 (2012) 1880 357 435 505 1130 3480 3590 3800
2020-06-24 21:30 4.18 916 3820 (2017) 336 (2012) 1880 357 435 505 1130 3480 3590 3800
2020-06-24 20:30 4.19 922 3820 (2017) 336 (2012) 1880 357 435 505 1130 3480 3590 3800
2020-06-24 19:30 4.20 929 3820 (2017) 336 (2012) 1880 357 435 505 1130 3480 3590 3800
2020-06-24 18:30 4.22 941 3820 (2017) 336 (2012) 1880 357 435 505 1130 3480 3590 3800
2020-06-24 17:30 4.24 954 3820 (2017) 336 (2012) 1880 357 435 505 1130 3480 3590 3800
2020-06-24 16:30 4.25 960 3820 (2017) 336 (2012) 1880 357 435 505 1130 3480 3590 3800
2020-06-24 15:30 4.28 979 3820 (2017) 336 (2012) 1880 357 435 505 1130 3480 3590 3800
2020-06-24 14:30 4.29 986 3820 (2017) 336 (2012) 1880 357 435 505 1130 3480 3590 3800
2020-06-24 13:30 4.29 986 3820 (2017) 336 (2012) 1880 357 435 505 1130 3480 3590 3800
2020-06-24 12:30 4.29 986 3820 (2017) 336 (2012) 1880 357 435 505 1130 3480 3590 3800
2020-06-24 11:30 4.30 992 3820 (2017) 336 (2012) 1880 357 435 505 1130 3480 3590 3800
2020-06-24 10:30 4.30 992 3820 (2017) 336 (2012) 1880 357 435 505 1130 3480 3590 3800
2020-06-24 09:30 4.30 992 3820 (2017) 336 (2012) 1880 357 435 505 1130 3480 3590 3800
2020-06-24 08:30 4.30 992 3820 (2017) 336 (2012) 1880 357 435 505 1130 3480 3590 3800
2020-06-24 07:30 4.30 992 3820 (2017) 336 (2012) 1880 357 435 505 1130 3480 3590 3800
2020-06-24 06:30 4.30 992 3820 (2017) 336 (2012) 1880 357 435 505 1130 3480 3590 3800
2020-06-24 05:30 4.30 992 3820 (2017) 336 (2012) 1880 357 435 505 1130 3480 3590 3800
2020-06-24 04:30 4.30 992 3820 (2017) 336 (2012) 1880 357 435 505 1130 3480 3590 3800
2020-06-24 03:30 4.30 992 3820 (2017) 336 (2012) 1880 357 435 505 1130 3480 3590 3800
2020-06-24 02:30 4.31 999 3820 (2017) 336 (2012) 1880 357 435 505 1130 3480 3590 3800
2020-06-24 01:30 4.31 999 3820 (2017) 336 (2012) 1880 357 435 505 1130 3480 3590 3800
2020-06-24 00:30 4.31 999 3820 (2017) 336 (2012) 1880 357 435 505 1130 3480 3590 3800
2020-06-23 23:30 4.32 1010 3840 (2017) 339 (2012) 1900 361 437 503 978 3540 3650 3830
2020-06-23 22:30 4.32 1010 3840 (2017) 339 (2012) 1900 361 437 503 978 3540 3650 3830
2020-06-23 21:30 4.32 1010 3840 (2017) 339 (2012) 1900 361 437 503 978 3540 3650 3830
2020-06-23 20:30 4.33 1010 3840 (2017) 339 (2012) 1900 361 437 503 978 3540 3650 3830
2020-06-23 19:30 4.34 1020 3840 (2017) 339 (2012) 1900 361 437 503 978 3540 3650 3830
2020-06-23 18:30 4.35 1020 3840 (2017) 339 (2012) 1900 361 437 503 978 3540 3650 3830
2020-06-23 17:30 4.36 1030 3840 (2017) 339 (2012) 1900 361 437 503 978 3540 3650 3830
2020-06-23 16:30 4.37 1040 3840 (2017) 339 (2012) 1900 361 437 503 978 3540 3650 3830
2020-06-23 15:30 4.37 1040 3840 (2017) 339 (2012) 1900 361 437 503 978 3540 3650 3830
2020-06-23 14:30 4.38 1040 3840 (2017) 339 (2012) 1900 361 437 503 978 3540 3650 3830
2020-06-23 13:30 4.39 1050 3840 (2017) 339 (2012) 1900 361 437 503 978 3540 3650 3830
2020-06-23 12:30 4.39 1050 3840 (2017) 339 (2012) 1900 361 437 503 978 3540 3650 3830
2020-06-23 11:30 4.40 1060 3840 (2017) 339 (2012) 1900 361 437 503 978 3540 3650 3830
2020-06-23 10:30 4.40 1060 3840 (2017) 339 (2012) 1900 361 437 503 978 3540 3650 3830
2020-06-23 09:30 4.40 1060 3840 (2017) 339 (2012) 1900 361 437 503 978 3540 3650 3830
2020-06-23 08:30 4.40 1060 3840 (2017) 339 (2012) 1900 361 437 503 978 3540 3650 3830
2020-06-23 07:30 4.40 1060 3840 (2017) 339 (2012) 1900 361 437 503 978 3540 3650 3830
2020-06-23 06:30 4.40 1060 3840 (2017) 339 (2012) 1900 361 437 503 978 3540 3650 3830
2020-06-23 05:30 4.40 1060 3840 (2017) 339 (2012) 1900 361 437 503 978 3540 3650 3830
2020-06-23 04:30 4.40 1060 3840 (2017) 339 (2012) 1900 361 437 503 978 3540 3650 3830
2020-06-23 03:30 4.40 1060 3840 (2017) 339 (2012) 1900 361 437 503 978 3540 3650 3830
2020-06-23 02:30 4.40 1060 3840 (2017) 339 (2012) 1900 361 437 503 978 3540 3650 3830
2020-06-23 01:30 4.40 1060 3840 (2017) 339 (2012) 1900 361 437 503 978 3540 3650 3830
2020-06-23 00:30 4.41 1060 3840 (2017) 339 (2012) 1900 361 437 503 978 3540 3650 3830
2020-06-22 23:30 4.41 1060 3850 (2017) 340 (2012) 1880 367 456 498 931 3630 3700 3840
2020-06-22 22:30 4.41 1060 3850 (2017) 340 (2012) 1880 367 456 498 931 3630 3700 3840
2020-06-22 21:30 4.41 1060 3850 (2017) 340 (2012) 1880 367 456 498 931 3630 3700 3840
2020-06-22 20:30 4.42 1070 3850 (2017) 340 (2012) 1880 367 456 498 931 3630 3700 3840
2020-06-22 19:30 4.43 1080 3850 (2017) 340 (2012) 1880 367 456 498 931 3630 3700 3840
2020-06-22 18:30 4.43 1080 3850 (2017) 340 (2012) 1880 367 456 498 931 3630 3700 3840
2020-06-22 17:30 4.43 1080 3850 (2017) 340 (2012) 1880 367 456 498 931 3630 3700 3840
2020-06-22 16:30 4.43 1080 3850 (2017) 340 (2012) 1880 367 456 498 931 3630 3700 3840
2020-06-22 15:30 4.42 1070 3850 (2017) 340 (2012) 1880 367 456 498 931 3630 3700 3840
2020-06-22 14:30 4.40 1060 3850 (2017) 340 (2012) 1880 367 456 498 931 3630 3700 3840
2020-06-22 13:30 4.40 1060 3850 (2017) 340 (2012) 1880 367 456 498 931 3630 3700 3840
2020-06-22 12:30 4.40 1060 3850 (2017) 340 (2012) 1880 367 456 498 931 3630 3700 3840
2020-06-22 11:30 4.40 1060 3850 (2017) 340 (2012) 1880 367 456 498 931 3630 3700 3840
2020-06-22 10:30 4.40 1060 3850 (2017) 340 (2012) 1880 367 456 498 931 3630 3700 3840
2020-06-22 09:30 4.40 1060 3850 (2017) 340 (2012) 1880 367 456 498 931 3630 3700 3840
2020-06-22 08:30 4.40 1060 3850 (2017) 340 (2012) 1880 367 456 498 931 3630 3700 3840
2020-06-22 07:30 4.40 1060 3850 (2017) 340 (2012) 1880 367 456 498 931 3630 3700 3840
2020-06-22 06:30 4.40 1060 3850 (2017) 340 (2012) 1880 367 456 498 931 3630 3700 3840
2020-06-22 05:30 4.40 1060 3850 (2017) 340 (2012) 1880 367 456 498 931 3630 3700 3840
2020-06-22 04:30 4.41 1060 3850 (2017) 340 (2012) 1880 367 456 498 931 3630 3700 3840
2020-06-22 03:30 4.41 1060 3850 (2017) 340 (2012) 1880 367 456 498 931 3630 3700 3840
2020-06-22 02:30 4.41 1060 3850 (2017) 340 (2012) 1880 367 456 498 931 3630 3700 3840
2020-06-22 01:30 4.41 1060 3850 (2017) 340 (2012) 1880 367 456 498 931 3630 3700 3840
2020-06-22 00:30 4.41 1060 3850 (2017) 340 (2012) 1880 367 456 498 931 3630 3700 3840
2020-06-21 23:30 4.42 1070 3810 (2017) 340 (2012) 1920 391 569 628 1000 3730 3770 3800
2020-06-21 22:30 4.42 1070 3810 (2017) 340 (2012) 1920 391 569 628 1000 3730 3770 3800
2020-06-21 21:30 4.42 1070 3810 (2017) 340 (2012) 1920 391 569 628 1000 3730 3770 3800
2020-06-21 20:30 4.43 1080 3810 (2017) 340 (2012) 1920 391 569 628 1000 3730 3770 3800
2020-06-21 19:30 4.43 1080 3810 (2017) 340 (2012) 1920 391 569 628 1000 3730 3770 3800
2020-06-21 18:30 4.43 1080 3810 (2017) 340 (2012) 1920 391 569 628 1000 3730 3770 3800
2020-06-21 17:30 4.43 1080 3810 (2017) 340 (2012) 1920 391 569 628 1000 3730 3770 3800
2020-06-21 16:30 4.44 1080 3810 (2017) 340 (2012) 1920 391 569 628 1000 3730 3770 3800
2020-06-21 15:30 4.44 1080 3810 (2017) 340 (2012) 1920 391 569 628 1000 3730 3770 3800
2020-06-21 14:30 4.45 1090 3810 (2017) 340 (2012) 1920 391 569 628 1000 3730 3770 3800
2020-06-21 13:30 4.45 1090 3810 (2017) 340 (2012) 1920 391 569 628 1000 3730 3770 3800
2020-06-21 12:30 4.46 1100 3810 (2017) 340 (2012) 1920 391 569 628 1000 3730 3770 3800
2020-06-21 11:30 4.46 1100 3810 (2017) 340 (2012) 1920 391 569 628 1000 3730 3770 3800
2020-06-21 10:30 4.46 1100 3810 (2017) 340 (2012) 1920 391 569 628 1000 3730 3770 3800
2020-06-21 09:30 4.46 1100 3810 (2017) 340 (2012) 1920 391 569 628 1000 3730 3770 3800
2020-06-21 08:30 4.46 1100 3810 (2017) 340 (2012) 1920 391 569 628 1000 3730 3770 3800
2020-06-21 07:30 4.45 1090 3810 (2017) 340 (2012) 1920 391 569 628 1000 3730 3770 3800
2020-06-21 06:30 4.46 1100 3810 (2017) 340 (2012) 1920 391 569 628 1000 3730 3770 3800
2020-06-21 05:30 4.46 1100 3810 (2017) 340 (2012) 1920 391 569 628 1000 3730 3770 3800
2020-06-21 04:30 4.46 1100 3810 (2017) 340 (2012) 1920 391 569 628 1000 3730 3770 3800
2020-06-21 03:30 4.46 1100 3810 (2017) 340 (2012) 1920 391 569 628 1000 3730 3770 3800
2020-06-21 02:30 4.45 1090 3810 (2017) 340 (2012) 1920 391 569 628 1000 3730 3770 3800
2020-06-21 01:30 4.44 1080 3810 (2017) 340 (2012) 1920 391 569 628 1000 3730 3770 3800
2020-06-21 00:30 4.44 1080 3810 (2017) 340 (2012) 1920 391 569 628 1000 3730 3770 3800
2020-06-20 23:30 4.44 1080 3800 (2017) 340 (2012) 1960 397 594 661 1570 3750 3760 3790
2020-06-20 22:30 4.44 1080 3800 (2017) 340 (2012) 1960 397 594 661 1570 3750 3760 3790
2020-06-20 21:30 4.44 1080 3800 (2017) 340 (2012) 1960 397 594 661 1570 3750 3760 3790
2020-06-20 20:30 4.44 1080 3800 (2017) 340 (2012) 1960 397 594 661 1570 3750 3760 3790
2020-06-20 19:30 4.44 1080 3800 (2017) 340 (2012) 1960 397 594 661 1570 3750 3760 3790
2020-06-20 18:30 4.44 1080 3800 (2017) 340 (2012) 1960 397 594 661 1570 3750 3760 3790
2020-06-20 17:30 4.45 1090 3800 (2017) 340 (2012) 1960 397 594 661 1570 3750 3760 3790
2020-06-20 16:30 4.45 1090 3800 (2017) 340 (2012) 1960 397 594 661 1570 3750 3760 3790
2020-06-20 15:30 4.45 1090 3800 (2017) 340 (2012) 1960 397 594 661 1570 3750 3760 3790
2020-06-20 14:30 4.45 1090 3800 (2017) 340 (2012) 1960 397 594 661 1570 3750 3760 3790
2020-06-20 13:30 4.46 1100 3800 (2017) 340 (2012) 1960 397 594 661 1570 3750 3760 3790
2020-06-20 12:30 4.46 1100 3800 (2017) 340 (2012) 1960 397 594 661 1570 3750 3760 3790
2020-06-20 11:30 4.46 1100 3800 (2017) 340 (2012) 1960 397 594 661 1570 3750 3760 3790
2020-06-20 10:30 4.46 1100 3800 (2017) 340 (2012) 1960 397 594 661 1570 3750 3760 3790
2020-06-20 09:30 4.45 1090 3800 (2017) 340 (2012) 1960 397 594 661 1570 3750 3760 3790
2020-06-20 08:30 4.45 1090 3800 (2017) 340 (2012) 1960 397 594 661 1570 3750 3760 3790
2020-06-20 07:30 4.45 1090 3800 (2017) 340 (2012) 1960 397 594 661 1570 3750 3760 3790
2020-06-20 06:30 4.45 1090 3800 (2017) 340 (2012) 1960 397 594 661 1570 3750 3760 3790
2020-06-20 05:30 4.46 1100 3800 (2017) 340 (2012) 1960 397 594 661 1570 3750 3760 3790
2020-06-20 04:30 4.46 1100 3800 (2017) 340 (2012) 1960 397 594 661 1570 3750 3760 3790
2020-06-20 03:30 4.47 1100 3800 (2017) 340 (2012) 1960 397 594 661 1570 3750 3760 3790
2020-06-20 02:30 4.47 1100 3800 (2017) 340 (2012) 1960 397 594 661 1570 3750 3760 3790
2020-06-20 01:30 4.47 1100 3800 (2017) 340 (2012) 1960 397 594 661 1570 3750 3760 3790
2020-06-20 00:30 4.48 1110 3800 (2017) 340 (2012) 1960 397 594 661 1570 3750 3760 3790
2020-06-19 23:30 4.49 1120 3790 (2011) 343 (2012) 1970 402 590 703 1570 3700 3730 3770
2020-06-19 22:30 4.49 1120 3790 (2011) 343 (2012) 1970 402 590 703 1570 3700 3730 3770
2020-06-19 21:30 4.50 1120 3790 (2011) 343 (2012) 1970 402 590 703 1570 3700 3730 3770
2020-06-19 20:30 4.51 1130 3790 (2011) 343 (2012) 1970 402 590 703 1570 3700 3730 3770
2020-06-19 19:30 4.52 1140 3790 (2011) 343 (2012) 1970 402 590 703 1570 3700 3730 3770
2020-06-19 18:30 4.53 1140 3790 (2011) 343 (2012) 1970 402 590 703 1570 3700 3730 3770
2020-06-19 17:30 4.55 1160 3790 (2011) 343 (2012) 1970 402 590 703 1570 3700 3730 3770
2020-06-19 16:30 4.57 1170 3790 (2011) 343 (2012) 1970 402 590 703 1570 3700 3730 3770
2020-06-19 15:30 4.58 1180 3790 (2011) 343 (2012) 1970 402 590 703 1570 3700 3730 3770
2020-06-19 14:30 4.60 1190 3790 (2011) 343 (2012) 1970 402 590 703 1570 3700 3730 3770
2020-06-19 13:30 4.60 1190 3790 (2011) 343 (2012) 1970 402 590 703 1570 3700 3730 3770
2020-06-19 12:30 4.60 1190 3790 (2011) 343 (2012) 1970 402 590 703 1570 3700 3730 3770
2020-06-19 11:30 4.60 1190 3790 (2011) 343 (2012) 1970 402 590 703 1570 3700 3730 3770
2020-06-19 10:30 4.60 1190 3790 (2011) 343 (2012) 1970 402 590 703 1570 3700 3730 3770
2020-06-19 09:30 4.60 1190 3790 (2011) 343 (2012) 1970 402 590 703 1570 3700 3730 3770
2020-06-19 08:30 4.61 1200 3790 (2011) 343 (2012) 1970 402 590 703 1570 3700 3730 3770
2020-06-19 07:30 4.60 1190 3790 (2011) 343 (2012) 1970 402 590 703 1570 3700 3730 3770
2020-06-19 06:30 4.60 1190 3790 (2011) 343 (2012) 1970 402 590 703 1570 3700 3730 3770
2020-06-19 05:30 4.61 1200 3790 (2011) 343 (2012) 1970 402 590 703 1570 3700 3730 3770
2020-06-19 04:30 4.61 1200 3790 (2011) 343 (2012) 1970 402 590 703 1570 3700 3730 3770
2020-06-19 03:30 4.61 1200 3790 (2011) 343 (2012) 1970 402 590 703 1570 3700 3730 3770
2020-06-19 02:30 4.61 1200 3790 (2011) 343 (2012) 1970 402 590 703 1570 3700 3730 3770
2020-06-19 01:30 4.61 1200 3790 (2011) 343 (2012) 1970 402 590 703 1570 3700 3730 3770
2020-06-19 00:30 4.62 1200 3790 (2011) 343 (2012) 1970 402 590 703 1570 3700 3730 3770
2020-06-18 23:30 4.62 1200 3800 (2011) 339 (2012) 1960 387 552 714 1680 3570 3730 3790
2020-06-18 22:30 4.62 1200 3800 (2011) 339 (2012) 1960 387 552 714 1680 3570 3730 3790
2020-06-18 21:30 4.63 1210 3800 (2011) 339 (2012) 1960 387 552 714 1680 3570 3730 3790
2020-06-18 20:30 4.63 1210 3800 (2011) 339 (2012) 1960 387 552 714 1680 3570 3730 3790
2020-06-18 19:30 4.63 1210 3800 (2011) 339 (2012) 1960 387 552 714 1680 3570 3730 3790
2020-06-18 18:30 4.63 1210 3800 (2011) 339 (2012) 1960 387 552 714 1680 3570 3730 3790
2020-06-18 17:30 4.63 1210 3800 (2011) 339 (2012) 1960 387 552 714 1680 3570 3730 3790
2020-06-18 16:30 4.64 1220 3800 (2011) 339 (2012) 1960 387 552 714 1680 3570 3730 3790
2020-06-18 15:30 4.64 1220 3800 (2011) 339 (2012) 1960 387 552 714 1680 3570 3730 3790
2020-06-18 14:30 4.64 1220 3800 (2011) 339 (2012) 1960 387 552 714 1680 3570 3730 3790
2020-06-18 13:30 4.64 1220 3800 (2011) 339 (2012) 1960 387 552 714 1680 3570 3730 3790
2020-06-18 12:30 4.65 1230 3800 (2011) 339 (2012) 1960 387 552 714 1680 3570 3730 3790
2020-06-18 11:30 4.65 1230 3800 (2011) 339 (2012) 1960 387 552 714 1680 3570 3730 3790
2020-06-18 10:30 4.65 1230 3800 (2011) 339 (2012) 1960 387 552 714 1680 3570 3730 3790
2020-06-18 09:30 4.65 1230 3800 (2011) 339 (2012) 1960 387 552 714 1680 3570 3730 3790
2020-06-18 08:30 4.65 1230 3800 (2011) 339 (2012) 1960 387 552 714 1680 3570 3730 3790
2020-06-18 07:30 4.65 1230 3800 (2011) 339 (2012) 1960 387 552 714 1680 3570 3730 3790
2020-06-18 06:30 4.65 1230 3800 (2011) 339 (2012) 1960 387 552 714 1680 3570 3730 3790
2020-06-18 05:30 4.65 1230 3800 (2011) 339 (2012) 1960 387 552 714 1680 3570 3730 3790
2020-06-18 04:30 4.65 1230 3800 (2011) 339 (2012) 1960 387 552 714 1680 3570 3730 3790
2020-06-18 03:30 4.65 1230 3800 (2011) 339 (2012) 1960 387 552 714 1680 3570 3730 3790
2020-06-18 02:30 4.65 1230 3800 (2011) 339 (2012) 1960 387 552 714 1680 3570 3730 3790
2020-06-18 01:30 4.65 1230 3800 (2011) 339 (2012) 1960 387 552 714 1680 3570 3730 3790
2020-06-18 00:30 4.65 1230 3800 (2011) 339 (2012) 1960 387 552 714 1680 3570 3730 3790
2020-06-17 23:30 4.66 1230 3760 (2011) 349 (2012) 1980 388 550 714 1760 3450 3700 3760
2020-06-17 22:30 4.66 1230 3760 (2011) 349 (2012) 1980 388 550 714 1760 3450 3700 3760
2020-06-17 21:30 4.66 1230 3760 (2011) 349 (2012) 1980 388 550 714 1760 3450 3700 3760
2020-06-17 20:30 4.66 1230 3760 (2011) 349 (2012) 1980 388 550 714 1760 3450 3700 3760
2020-06-17 19:30 4.67 1240 3760 (2011) 349 (2012) 1980 388 550 714 1760 3450 3700 3760
2020-06-17 18:30 4.67 1240 3760 (2011) 349 (2012) 1980 388 550 714 1760 3450 3700 3760
2020-06-17 17:30 4.67 1240 3760 (2011) 349 (2012) 1980 388 550 714 1760 3450 3700 3760
2020-06-17 16:30 4.67 1240 3760 (2011) 349 (2012) 1980 388 550 714 1760 3450 3700 3760
2020-06-17 15:30 4.68 1250 3760 (2011) 349 (2012) 1980 388 550 714 1760 3450 3700 3760
2020-06-17 14:30 4.68 1250 3760 (2011) 349 (2012) 1980 388 550 714 1760 3450 3700 3760
2020-06-17 13:30 4.68 1250 3760 (2011) 349 (2012) 1980 388 550 714 1760 3450 3700 3760
2020-06-17 12:30 4.68 1250 3760 (2011) 349 (2012) 1980 388 550 714 1760 3450 3700 3760
2020-06-17 11:30 4.69 1250 3760 (2011) 349 (2012) 1980 388 550 714 1760 3450 3700 3760
2020-06-17 10:30 4.69 1250 3760 (2011) 349 (2012) 1980 388 550 714 1760 3450 3700 3760
2020-06-17 09:30 4.69 1250 3760 (2011) 349 (2012) 1980 388 550 714 1760 3450 3700 3760
2020-06-17 08:30 4.69 1250 3760 (2011) 349 (2012) 1980 388 550 714 1760 3450 3700 3760
2020-06-17 07:30 4.69 1250 3760 (2011) 349 (2012) 1980 388 550 714 1760 3450 3700 3760
2020-06-17 06:30 4.70 1260 3760 (2011) 349 (2012) 1980 388 550 714 1760 3450 3700 3760
2020-06-17 05:30 4.70 1260 3760 (2011) 349 (2012) 1980 388 550 714 1760 3450 3700 3760
2020-06-17 04:30 4.70 1260 3760 (2011) 349 (2012) 1980 388 550 714 1760 3450 3700 3760
2020-06-17 03:30 4.70 1260 3760 (2011) 349 (2012) 1980 388 550 714 1760 3450 3700 3760
2020-06-17 02:30 4.71 1270 3760 (2011) 349 (2012) 1980 388 550 714 1760 3450 3700 3760
2020-06-17 01:30 4.72 1270 3760 (2011) 349 (2012) 1980 388 550 714 1760 3450 3700 3760
2020-06-17 00:30 4.72 1270 3760 (2011) 349 (2012) 1980 388 550 714 1760 3450 3700 3760
2020-06-16 23:30 4.72 1270 3770 (2011) 334 (2012) 2010 395 576 724 1890 3340 3540 3760
2020-06-16 22:30 4.73 1280 3770 (2011) 334 (2012) 2010 395 576 724 1890 3340 3540 3760
2020-06-16 21:30 4.74 1290 3770 (2011) 334 (2012) 2010 395 576 724 1890 3340 3540 3760
2020-06-16 20:30 4.75 1300 3770 (2011) 334 (2012) 2010 395 576 724 1890 3340 3540 3760
2020-06-16 19:30 4.76 1300 3770 (2011) 334 (2012) 2010 395 576 724 1890 3340 3540 3760
2020-06-16 18:30 4.77 1310 3770 (2011) 334 (2012) 2010 395 576 724 1890 3340 3540 3760
2020-06-16 17:30 4.79 1320 3770 (2011) 334 (2012) 2010 395 576 724 1890 3340 3540 3760
2020-06-16 16:30 4.80 1330 3770 (2011) 334 (2012) 2010 395 576 724 1890 3340 3540 3760
2020-06-16 15:30 4.82 1340 3770 (2011) 334 (2012) 2010 395 576 724 1890 3340 3540 3760
2020-06-16 14:30 4.83 1350 3770 (2011) 334 (2012) 2010 395 576 724 1890 3340 3540 3760
2020-06-16 13:30 4.83 1350 3770 (2011) 334 (2012) 2010 395 576 724 1890 3340 3540 3760
2020-06-16 12:30 4.84 1360 3770 (2011) 334 (2012) 2010 395 576 724 1890 3340 3540 3760
2020-06-16 11:30 4.84 1360 3770 (2011) 334 (2012) 2010 395 576 724 1890 3340 3540 3760
2020-06-16 10:30 4.84 1360 3770 (2011) 334 (2012) 2010 395 576 724 1890 3340 3540 3760
2020-06-16 09:30 4.84 1360 3770 (2011) 334 (2012) 2010 395 576 724 1890 3340 3540 3760
2020-06-16 08:30 4.85 1370 3770 (2011) 334 (2012) 2010 395 576 724 1890 3340 3540 3760
2020-06-16 07:30 4.84 1360 3770 (2011) 334 (2012) 2010 395 576 724 1890 3340 3540 3760
2020-06-16 06:30 4.85 1370 3770 (2011) 334 (2012) 2010 395 576 724 1890 3340 3540 3760
2020-06-16 05:30 4.85 1370 3770 (2011) 334 (2012) 2010 395 576 724 1890 3340 3540 3760
2020-06-16 04:30 4.86 1370 3770 (2011) 334 (2012) 2010 395 576 724 1890 3340 3540 3760
2020-06-16 03:30 4.86 1370 3770 (2011) 334 (2012) 2010 395 576 724 1890 3340 3540 3760
2020-06-16 02:30 4.86 1370 3770 (2011) 334 (2012) 2010 395 576 724 1890 3340 3540 3760
2020-06-16 01:30 4.87 1380 3770 (2011) 334 (2012) 2010 395 576 724 1890 3340 3540 3760
2020-06-16 00:30 4.88 1390 3770 (2011) 334 (2012) 2010 395 576 724 1890 3340 3540 3760
2020-06-15 23:30 4.89 1400 3800 (2011) 332 (2012) 2060 414 762 897 1650 3590 3660 3790
2020-06-15 22:30 4.90 1400 3800 (2011) 332 (2012) 2060 414 762 897 1650 3590 3660 3790
2020-06-15 21:30 4.91 1410 3800 (2011) 332 (2012) 2060 414 762 897 1650 3590 3660 3790
2020-06-15 20:30 4.92 1420 3800 (2011) 332 (2012) 2060 414 762 897 1650 3590 3660 3790
2020-06-15 19:30 4.94 1430 3800 (2011) 332 (2012) 2060 414 762 897 1650 3590 3660 3790
2020-06-15 18:30 4.96 1450 3800 (2011) 332 (2012) 2060 414 762 897 1650 3590 3660 3790
2020-06-15 17:30 4.99 1470 3800 (2011) 332 (2012) 2060 414 762 897 1650 3590 3660 3790
2020-06-15 16:30 5.02 1490 3800 (2011) 332 (2012) 2060 414 762 897 1650 3590 3660 3790
2020-06-15 15:30 5.04 1500 3800 (2011) 332 (2012) 2060 414 762 897 1650 3590 3660 3790
2020-06-15 14:30 5.06 1520 3800 (2011) 332 (2012) 2060 414 762 897 1650 3590 3660 3790
2020-06-15 13:30 5.08 1530 3800 (2011) 332 (2012) 2060 414 762 897 1650 3590 3660 3790
2020-06-15 12:30 5.08 1530 3800 (2011) 332 (2012) 2060 414 762 897 1650 3590 3660 3790
2020-06-15 11:30 5.08 1530 3800 (2011) 332 (2012) 2060 414 762 897 1650 3590 3660 3790
2020-06-15 10:30 5.09 1540 3800 (2011) 332 (2012) 2060 414 762 897 1650 3590 3660 3790
2020-06-15 09:30 5.09 1540 3800 (2011) 332 (2012) 2060 414 762 897 1650 3590 3660 3790
2020-06-15 08:30 5.09 1540 3800 (2011) 332 (2012) 2060 414 762 897 1650 3590 3660 3790
2020-06-15 07:30 5.09 1540 3800 (2011) 332 (2012) 2060 414 762 897 1650 3590 3660 3790
2020-06-15 06:30 5.09 1540 3800 (2011) 332 (2012) 2060 414 762 897 1650 3590 3660 3790
2020-06-15 05:30 5.09 1540 3800 (2011) 332 (2012) 2060 414 762 897 1650 3590 3660 3790
2020-06-15 04:30 5.10 1550 3800 (2011) 332 (2012) 2060 414 762 897 1650 3590 3660 3790
2020-06-15 03:30 5.10 1550 3800 (2011) 332 (2012) 2060 414 762 897 1650 3590 3660 3790
2020-06-15 02:30 5.10 1550 3800 (2011) 332 (2012) 2060 414 762 897 1650 3590 3660 3790
2020-06-15 01:30 5.10 1550 3800 (2011) 332 (2012) 2060 414 762 897 1650 3590 3660 3790
2020-06-15 00:30 5.10 1550 3800 (2011) 332 (2012) 2060 414 762 897 1650 3590 3660 3790
2020-06-14 23:30 5.11 1550 3830 (2011) 337 (2012) 2140 419 770 895 2000 3650 3710 3820
2020-06-14 22:30 5.11 1550 3830 (2011) 337 (2012) 2140 419 770 895 2000 3650 3710 3820
2020-06-14 21:30 5.12 1560 3830 (2011) 337 (2012) 2140 419 770 895 2000 3650 3710 3820
2020-06-14 20:30 5.12 1560 3830 (2011) 337 (2012) 2140 419 770 895 2000 3650 3710 3820
2020-06-14 19:30 5.12 1560 3830 (2011) 337 (2012) 2140 419 770 895 2000 3650 3710 3820
2020-06-14 18:30 5.12 1560 3830 (2011) 337 (2012) 2140 419 770 895 2000 3650 3710 3820
2020-06-14 17:30 5.13 1570 3830 (2011) 337 (2012) 2140 419 770 895 2000 3650 3710 3820
2020-06-14 16:30 5.13 1570 3830 (2011) 337 (2012) 2140 419 770 895 2000 3650 3710 3820
2020-06-14 15:30 5.14 1580 3830 (2011) 337 (2012) 2140 419 770 895 2000 3650 3710 3820
2020-06-14 14:30 5.14 1580 3830 (2011) 337 (2012) 2140 419 770 895 2000 3650 3710 3820
2020-06-14 13:30 5.15 1580 3830 (2011) 337 (2012) 2140 419 770 895 2000 3650 3710 3820
2020-06-14 12:30 5.15 1580 3830 (2011) 337 (2012) 2140 419 770 895 2000 3650 3710 3820
2020-06-14 11:30 5.16 1590 3830 (2011) 337 (2012) 2140 419 770 895 2000 3650 3710 3820
2020-06-14 10:30 5.16 1590 3830 (2011) 337 (2012) 2140 419 770 895 2000 3650 3710 3820
2020-06-14 09:30 5.16 1590 3830 (2011) 337 (2012) 2140 419 770 895 2000 3650 3710 3820
2020-06-14 08:30 5.17 1600 3830 (2011) 337 (2012) 2140 419 770 895 2000 3650 3710 3820
2020-06-14 07:30 5.17 1600 3830 (2011) 337 (2012) 2140 419 770 895 2000 3650 3710 3820
2020-06-14 06:30 5.18 1610 3830 (2011) 337 (2012) 2140 419 770 895 2000 3650 3710 3820
2020-06-14 05:30 5.18 1610 3830 (2011) 337 (2012) 2140 419 770 895 2000 3650 3710 3820
2020-06-14 04:30 5.19 1610 3830 (2011) 337 (2012) 2140 419 770 895 2000 3650 3710 3820
2020-06-14 03:30 5.20 1620 3830 (2011) 337 (2012) 2140 419 770 895 2000 3650 3710 3820
2020-06-14 02:30 5.21 1630 3830 (2011) 337 (2012) 2140 419 770 895 2000 3650 3710 3820
2020-06-14 01:30 5.23 1640 3830 (2011) 337 (2012) 2140 419 770 895 2000 3650 3710 3820
2020-06-14 00:30 5.24 1650 3830 (2011) 337 (2012) 2140 419 770 895 2000 3650 3710 3820
2020-06-13 23:30 5.27 1670 3790 (2011) 340 (2012) 2230 424 670 774 2340 3600 3700 3790
2020-06-13 22:30 5.29 1690 3790 (2011) 340 (2012) 2230 424 670 774 2340 3600 3700 3790
2020-06-13 21:30 5.32 1710 3790 (2011) 340 (2012) 2230 424 670 774 2340 3600 3700 3790
2020-06-13 20:30 5.36 1740 3790 (2011) 340 (2012) 2230 424 670 774 2340 3600 3700 3790
2020-06-13 19:30 5.40 1770 3790 (2011) 340 (2012) 2230 424 670 774 2340 3600 3700 3790
2020-06-13 18:30 5.44 1800 3790 (2011) 340 (2012) 2230 424 670 774 2340 3600 3700 3790
2020-06-13 17:30 5.49 1840 3790 (2011) 340 (2012) 2230 424 670 774 2340 3600 3700 3790
2020-06-13 16:30 5.52 1860 3790 (2011) 340 (2012) 2230 424 670 774 2340 3600 3700 3790
2020-06-13 15:30 5.53 1870 3790 (2011) 340 (2012) 2230 424 670 774 2340 3600 3700 3790
2020-06-13 14:30 5.54 1880 3790 (2011) 340 (2012) 2230 424 670 774 2340 3600 3700 3790
2020-06-13 13:30 5.54 1880 3790 (2011) 340 (2012) 2230 424 670 774 2340 3600 3700 3790
2020-06-13 12:30 5.54 1880 3790 (2011) 340 (2012) 2230 424 670 774 2340 3600 3700 3790
2020-06-13 11:30 5.54 1880 3790 (2011) 340 (2012) 2230 424 670 774 2340 3600 3700 3790
2020-06-13 10:30 5.55 1890 3790 (2011) 340 (2012) 2230 424 670 774 2340 3600 3700 3790
2020-06-13 09:30 5.55 1890 3790 (2011) 340 (2012) 2230 424 670 774 2340 3600 3700 3790
2020-06-13 08:30 5.55 1890 3790 (2011) 340 (2012) 2230 424 670 774 2340 3600 3700 3790
2020-06-13 07:30 5.55 1890 3790 (2011) 340 (2012) 2230 424 670 774 2340 3600 3700 3790
2020-06-13 06:30 5.56 1890 3790 (2011) 340 (2012) 2230 424 670 774 2340 3600 3700 3790
2020-06-13 05:30 5.56 1890 3790 (2011) 340 (2012) 2230 424 670 774 2340 3600 3700 3790
2020-06-13 04:30 5.57 1900 3790 (2011) 340 (2012) 2230 424 670 774 2340 3600 3700 3790
2020-06-13 03:30 5.58 1910 3790 (2011) 340 (2012) 2230 424 670 774 2340 3600 3700 3790
2020-06-13 02:30 5.58 1910 3790 (2011) 340 (2012) 2230 424 670 774 2340 3600 3700 3790
2020-06-13 01:30 5.59 1920 3790 (2011) 340 (2012) 2230 424 670 774 2340 3600 3700 3790
2020-06-13 00:30 5.60 1920 3790 (2011) 340 (2012) 2230 424 670 774 2340 3600 3700 3790
2020-06-12 23:30 5.61 1930 3800 (2011) 344 (2012) 2270 428 625 754 2470 3670 3740 3800
2020-06-12 22:30 5.62 1940 3800 (2011) 344 (2012) 2270 428 625 754 2470 3670 3740 3800
2020-06-12 21:30 5.64 1960 3800 (2011) 344 (2012) 2270 428 625 754 2470 3670 3740 3800
2020-06-12 20:30 5.65 1960 3800 (2011) 344 (2012) 2270 428 625 754 2470 3670 3740 3800
2020-06-12 19:30 5.68 1990 3800 (2011) 344 (2012) 2270 428 625 754 2470 3670 3740 3800
2020-06-12 18:30 5.71 2010 3800 (2011) 344 (2012) 2270 428 625 754 2470 3670 3740 3800
2020-06-12 17:30 5.74 2040 3800 (2011) 344 (2012) 2270 428 625 754 2470 3670 3740 3800
2020-06-12 16:30 5.78 2070 3800 (2011) 344 (2012) 2270 428 625 754 2470 3670 3740 3800
2020-06-12 15:30 5.82 2100 3800 (2011) 344 (2012) 2270 428 625 754 2470 3670 3740 3800
2020-06-12 14:30 5.85 2120 3800 (2011) 344 (2012) 2270 428 625 754 2470 3670 3740 3800
2020-06-12 13:30 5.86 2130 3800 (2011) 344 (2012) 2270 428 625 754 2470 3670 3740 3800
2020-06-12 12:30 5.86 2130 3800 (2011) 344 (2012) 2270 428 625 754 2470 3670 3740 3800
2020-06-12 11:30 5.87 2140 3800 (2011) 344 (2012) 2270 428 625 754 2470 3670 3740 3800
2020-06-12 10:30 5.87 2140 3800 (2011) 344 (2012) 2270 428 625 754 2470 3670 3740 3800
2020-06-12 09:30 5.87 2140 3800 (2011) 344 (2012) 2270 428 625 754 2470 3670 3740 3800
2020-06-12 08:30 5.87 2140 3800 (2011) 344 (2012) 2270 428 625 754 2470 3670 3740 3800
2020-06-12 07:30 5.87 2140 3800 (2011) 344 (2012) 2270 428 625 754 2470 3670 3740 3800
2020-06-12 06:30 5.88 2150 3800 (2011) 344 (2012) 2270 428 625 754 2470 3670 3740 3800
2020-06-12 05:30 5.88 2150 3800 (2011) 344 (2012) 2270 428 625 754 2470 3670 3740 3800
2020-06-12 04:30 5.88 2150 3800 (2011) 344 (2012) 2270 428 625 754 2470 3670 3740 3800
2020-06-12 03:30 5.88 2150 3800 (2011) 344 (2012) 2270 428 625 754 2470 3670 3740 3800
2020-06-12 02:30 5.89 2160 3800 (2011) 344 (2012) 2270 428 625 754 2470 3670 3740 3800
2020-06-12 01:30 5.93 2190 3800 (2011) 344 (2012) 2270 428 625 754 2470 3670 3740 3800
2020-06-12 00:30 5.94 2200 3800 (2011) 344 (2012) 2270 428 625 754 2470 3670 3740 3800
2020-06-11 23:30 5.95 2210 3820 (2011) 375 (2012) 2300 440 615 768 2640 3740 3790 3820
2020-06-11 22:30 5.95 2210 3820 (2011) 375 (2012) 2300 440 615 768 2640 3740 3790 3820
2020-06-11 21:30 5.97 2220 3820 (2011) 375 (2012) 2300 440 615 768 2640 3740 3790 3820
2020-06-11 20:30 5.99 2240 3820 (2011) 375 (2012) 2300 440 615 768 2640 3740 3790 3820
2020-06-11 19:30 6.02 2260 3820 (2011) 375 (2012) 2300 440 615 768 2640 3740 3790 3820
2020-06-11 18:30 6.05 2290 3820 (2011) 375 (2012) 2300 440 615 768 2640 3740 3790 3820
2020-06-11 17:30 6.09 2320 3820 (2011) 375 (2012) 2300 440 615 768 2640 3740 3790 3820
2020-06-11 16:30 6.13 2360 3820 (2011) 375 (2012) 2300 440 615 768 2640 3740 3790 3820
2020-06-11 15:30 6.17 2390 3820 (2011) 375 (2012) 2300 440 615 768 2640 3740 3790 3820
2020-06-11 14:30 6.20 2420 3820 (2011) 375 (2012) 2300 440 615 768 2640 3740 3790 3820
2020-06-11 13:30 6.22 2430 3820 (2011) 375 (2012) 2300 440 615 768 2640 3740 3790 3820
2020-06-11 12:30 6.23 2440 3820 (2011) 375 (2012) 2300 440 615 768 2640 3740 3790 3820
2020-06-11 11:30 6.22 2430 3820 (2011) 375 (2012) 2300 440 615 768 2640 3740 3790 3820
2020-06-11 10:30 6.24 2450 3820 (2011) 375 (2012) 2300 440 615 768 2640 3740 3790 3820
2020-06-11 09:30 6.23 2440 3820 (2011) 375 (2012) 2300 440 615 768 2640 3740 3790 3820
2020-06-11 08:30 6.23 2440 3820 (2011) 375 (2012) 2300 440 615 768 2640 3740 3790 3820
2020-06-11 07:30 6.22 2430 3820 (2011) 375 (2012) 2300 440 615 768 2640 3740 3790 3820
2020-06-11 06:30 6.22 2430 3820 (2011) 375 (2012) 2300 440 615 768 2640 3740 3790 3820
2020-06-11 05:30 6.22 2430 3820 (2011) 375 (2012) 2300 440 615 768 2640 3740 3790 3820
2020-06-11 04:30 6.22 2430 3820 (2011) 375 (2012) 2300 440 615 768 2640 3740 3790 3820
2020-06-11 03:30 6.21 2430 3820 (2011) 375 (2012) 2300 440 615 768 2640 3740 3790 3820
2020-06-11 02:30 6.20 2420 3820 (2011) 375 (2012) 2300 440 615 768 2640 3740 3790 3820
2020-06-11 01:30 6.17 2390 3820 (2011) 375 (2012) 2300 440 615 768 2640 3740 3790 3820
2020-06-11 00:30 6.14 2370 3820 (2011) 375 (2012) 2300 440 615 768 2640 3740 3790 3820
2020-06-10 23:30 6.09 2320 3840 (2017) 362 (2012) 2430 431 619 760 3170 3810 3810 3830
2020-06-10 22:30 6.06 2300 3840 (2017) 362 (2012) 2430 431 619 760 3170 3810 3810 3830
2020-06-10 21:30 6.00 2250 3840 (2017) 362 (2012) 2430 431 619 760 3170 3810 3810 3830
2020-06-10 20:30 5.94 2200 3840 (2017) 362 (2012) 2430 431 619 760 3170 3810 3810 3830
2020-06-10 19:30 5.86 2130 3840 (2017) 362 (2012) 2430 431 619 760 3170 3810 3810 3830
2020-06-10 18:30 5.83 2110 3840 (2017) 362 (2012) 2430 431 619 760 3170 3810 3810 3830
2020-06-10 17:30 5.82 2100 3840 (2017) 362 (2012) 2430 431 619 760 3170 3810 3810 3830
2020-06-10 16:30 5.81 2090 3840 (2017) 362 (2012) 2430 431 619 760 3170 3810 3810 3830
2020-06-10 15:30 5.81 2090 3840 (2017) 362 (2012) 2430 431 619 760 3170 3810 3810 3830
2020-06-10 14:30 5.81 2090 3840 (2017) 362 (2012) 2430 431 619 760 3170 3810 3810 3830
2020-06-10 13:30 5.81 2090 3840 (2017) 362 (2012) 2430 431 619 760 3170 3810 3810 3830
2020-06-10 12:30 5.83 2110 3840 (2017) 362 (2012) 2430 431 619 760 3170 3810 3810 3830
2020-06-10 11:30 5.83 2110 3840 (2017) 362 (2012) 2430 431 619 760 3170 3810 3810 3830
2020-06-10 10:30 5.86 2130 3840 (2017) 362 (2012) 2430 431 619 760 3170 3810 3810 3830
2020-06-10 09:30 5.88 2150 3840 (2017) 362 (2012) 2430 431 619 760 3170 3810 3810 3830
2020-06-10 08:30 5.87 2140 3840 (2017) 362 (2012) 2430 431 619 760 3170 3810 3810 3830
2020-06-10 07:30 5.89 2160 3840 (2017) 362 (2012) 2430 431 619 760 3170 3810 3810 3830
2020-06-10 06:30 5.89 2160 3840 (2017) 362 (2012) 2430 431 619 760 3170 3810 3810 3830
2020-06-10 05:30 5.92 2180 3840 (2017) 362 (2012) 2430 431 619 760 3170 3810 3810 3830
2020-06-10 04:30 5.89 2160 3840 (2017) 362 (2012) 2430 431 619 760 3170 3810 3810 3830
2020-06-10 03:30 5.94 2200 3840 (2017) 362 (2012) 2430 431 619 760 3170 3810 3810 3830
2020-06-10 02:30 5.99 2240 3840 (2017) 362 (2012) 2430 431 619 760 3170 3810 3810 3830
2020-06-10 01:30 5.95 2210 3840 (2017) 362 (2012) 2430 431 619 760 3170 3810 3810 3830
2020-06-10 00:30 5.99 2240 3840 (2017) 362 (2012) 2430 431 619 760 3170 3810 3810 3830
2020-06-09 23:30 6.01 2260 3930 (2017) 360 (2012) 2370 433 629 733 2750 3830 3840 3900
2020-06-09 22:30 6.02 2260 3930 (2017) 360 (2012) 2370 433 629 733 2750 3830 3840 3900
2020-06-09 21:30 6.05 2290 3930 (2017) 360 (2012) 2370 433 629 733 2750 3830 3840 3900
2020-06-09 20:30 6.07 2310 3930 (2017) 360 (2012) 2370 433 629 733 2750 3830 3840 3900
2020-06-09 19:30 6.08 2320 3930 (2017) 360 (2012) 2370 433 629 733 2750 3830 3840 3900
2020-06-09 18:30 6.14 2370 3930 (2017) 360 (2012) 2370 433 629 733 2750 3830 3840 3900
2020-06-09 17:30 6.15 2370 3930 (2017) 360 (2012) 2370 433 629 733 2750 3830 3840 3900
2020-06-09 16:30 6.16 2380 3930 (2017) 360 (2012) 2370 433 629 733 2750 3830 3840 3900
2020-06-09 15:30 6.15 2370 3930 (2017) 360 (2012) 2370 433 629 733 2750 3830 3840 3900
2020-06-09 14:30 6.16 2380 3930 (2017) 360 (2012) 2370 433 629 733 2750 3830 3840 3900
2020-06-09 13:30 6.18 2400 3930 (2017) 360 (2012) 2370 433 629 733 2750 3830 3840 3900
2020-06-09 12:30 6.17 2390 3930 (2017) 360 (2012) 2370 433 629 733 2750 3830 3840 3900
2020-06-09 11:30 6.14 2370 3930 (2017) 360 (2012) 2370 433 629 733 2750 3830 3840 3900
2020-06-09 10:30 6.11 2340 3930 (2017) 360 (2012) 2370 433 629 733 2750 3830 3840 3900
2020-06-09 09:30 6.08 2320 3930 (2017) 360 (2012) 2370 433 629 733 2750 3830 3840 3900
2020-06-09 08:30 6.05 2290 3930 (2017) 360 (2012) 2370 433 629 733 2750 3830 3840 3900
2020-06-09 07:30 6.04 2280 3930 (2017) 360 (2012) 2370 433 629 733 2750 3830 3840 3900
2020-06-09 06:30 6.01 2260 3930 (2017) 360 (2012) 2370 433 629 733 2750 3830 3840 3900
2020-06-09 05:30 6.00 2250 3930 (2017) 360 (2012) 2370 433 629 733 2750 3830 3840 3900
2020-06-09 04:30 6.00 2250 3930 (2017) 360 (2012) 2370 433 629 733 2750 3830 3840 3900
2020-06-09 03:30 6.01 2260 3930 (2017) 360 (2012) 2370 433 629 733 2750 3830 3840 3900
2020-06-09 02:30 6.01 2260 3930 (2017) 360 (2012) 2370 433 629 733 2750 3830 3840 3900
2020-06-09 01:30 6.07 2310 3930 (2017) 360 (2012) 2370 433 629 733 2750 3830 3840 3900
2020-06-09 00:30 6.14 2370 3930 (2017) 360 (2012) 2370 433 629 733 2750 3830 3840 3900
2020-06-08 23:30 6.21 2430 3870 (2016) 368 (2012) 2440 454 657 742 2910 3830 3840 3870
2020-06-08 22:30 6.33 2530 3870 (2016) 368 (2012) 2440 454 657 742 2910 3830 3840 3870
2020-06-08 21:30 6.44 2630 3870 (2016) 368 (2012) 2440 454 657 742 2910 3830 3840 3870
2020-06-08 20:30 6.63 2800 3870 (2016) 368 (2012) 2440 454 657 742 2910 3830 3840 3870
2020-06-08 19:30 6.80 2940 3870 (2016) 368 (2012) 2440 454 657 742 2910 3830 3840 3870
2020-06-08 18:30 6.96 3080 3870 (2016) 368 (2012) 2440 454 657 742 2910 3830 3840 3870
2020-06-08 17:30 7.11 3200 3870 (2016) 368 (2012) 2440 454 657 742 2910 3830 3840 3870
2020-06-08 16:30 7.25 3330 3870 (2016) 368 (2012) 2440 454 657 742 2910 3830 3840 3870
2020-06-08 15:30 7.36 3420 3870 (2016) 368 (2012) 2440 454 657 742 2910 3830 3840 3870
2020-06-08 14:30 7.46 3510 3870 (2016) 368 (2012) 2440 454 657 742 2910 3830 3840 3870
2020-06-08 13:30 7.48 3530 3870 (2016) 368 (2012) 2440 454 657 742 2910 3830 3840 3870
2020-06-08 12:30 7.49 3530 3870 (2016) 368 (2012) 2440 454 657 742 2910 3830 3840 3870
2020-06-08 11:30 7.50 3540 3870 (2016) 368 (2012) 2440 454 657 742 2910 3830 3840 3870
2020-06-08 10:30 7.53 3570 3870 (2016) 368 (2012) 2440 454 657 742 2910 3830 3840 3870
2020-06-08 09:30 7.51 3550 3870 (2016) 368 (2012) 2440 454 657 742 2910 3830 3840 3870
2020-06-08 08:30 7.53 3570 3870 (2016) 368 (2012) 2440 454 657 742 2910 3830 3840 3870
2020-06-08 07:30 7.52 3560 3870 (2016) 368 (2012) 2440 454 657 742 2910 3830 3840 3870
2020-06-08 06:30 7.53 3570 3870 (2016) 368 (2012) 2440 454 657 742 2910 3830 3840 3870
2020-06-08 05:30 7.52 3560 3870 (2016) 368 (2012) 2440 454 657 742 2910 3830 3840 3870
2020-06-08 04:30 7.53 3570 3870 (2016) 368 (2012) 2440 454 657 742 2910 3830 3840 3870
2020-06-08 03:30 7.54 3580 3870 (2016) 368 (2012) 2440 454 657 742 2910 3830 3840 3870
2020-06-08 02:30 7.56 3600 3870 (2016) 368 (2012) 2440 454 657 742 2910 3830 3840 3870
2020-06-08 01:30 7.57 3610 3870 (2016) 368 (2012) 2440 454 657 742 2910 3830 3840 3870
2020-06-08 00:30 7.57 3610 3870 (2016) 368 (2012) 2440 454 657 742 2910 3830 3840 3870
2020-06-07 23:30 7.54 3580 3910 (2016) 376 (2012) 2470 463 680 730 3040 3830 3840 3890
2020-06-07 22:30 7.54 3580 3910 (2016) 376 (2012) 2470 463 680 730 3040 3830 3840 3890
2020-06-07 21:30 7.60 3630 3910 (2016) 376 (2012) 2470 463 680 730 3040 3830 3840 3890
2020-06-07 20:30 7.56 3600 3910 (2016) 376 (2012) 2470 463 680 730 3040 3830 3840 3890
2020-06-07 19:30 7.59 3620 3910 (2016) 376 (2012) 2470 463 680 730 3040 3830 3840 3890
2020-06-07 18:30 7.60 3630 3910 (2016) 376 (2012) 2470 463 680 730 3040 3830 3840 3890
2020-06-07 17:30 7.60 3630 3910 (2016) 376 (2012) 2470 463 680 730 3040 3830 3840 3890
2020-06-07 16:30 7.60 3630 3910 (2016) 376 (2012) 2470 463 680 730 3040 3830 3840 3890
2020-06-07 15:30 7.63 3660 3910 (2016) 376 (2012) 2470 463 680 730 3040 3830 3840 3890
2020-06-07 14:30 7.64 3670 3910 (2016) 376 (2012) 2470 463 680 730 3040 3830 3840 3890
2020-06-07 13:30 7.63 3660 3910 (2016) 376 (2012) 2470 463 680 730 3040 3830 3840 3890
2020-06-07 12:30 7.65 3680 3910 (2016) 376 (2012) 2470 463 680 730 3040 3830 3840 3890
2020-06-07 11:30 7.62 3650 3910 (2016) 376 (2012) 2470 463 680 730 3040 3830 3840 3890
2020-06-07 10:30 7.63 3660 3910 (2016) 376 (2012) 2470 463 680 730 3040 3830 3840 3890
2020-06-07 09:30 7.64 3670 3910 (2016) 376 (2012) 2470 463 680 730 3040 3830 3840 3890
2020-06-07 08:30 7.64 3670 3910 (2016) 376 (2012) 2470 463 680 730 3040 3830 3840 3890
2020-06-07 07:30 7.62 3650 3910 (2016) 376 (2012) 2470 463 680 730 3040 3830 3840 3890
2020-06-07 06:30 7.63 3660 3910 (2016) 376 (2012) 2470 463 680 730 3040 3830 3840 3890
2020-06-07 05:30 7.63 3660 3910 (2016) 376 (2012) 2470 463 680 730 3040 3830 3840 3890
2020-06-07 04:30 7.64 3670 3910 (2016) 376 (2012) 2470 463 680 730 3040 3830 3840 3890
2020-06-07 03:30 7.64 3670 3910 (2016) 376 (2012) 2470 463 680 730 3040 3830 3840 3890
2020-06-07 02:30 7.64 3670 3910 (2016) 376 (2012) 2470 463 680 730 3040 3830 3840 3890
2020-06-07 01:30 7.64 3670 3910 (2016) 376 (2012) 2470 463 680 730 3040 3830 3840 3890
2020-06-07 00:30 7.63 3660 3910 (2016) 376 (2012) 2470 463 680 730 3040 3830 3840 3890
2020-06-06 23:30 7.65 3680 3870 (2011) 365 (2012) 2400 462 730 771 2770 3770 3780 3850
2020-06-06 22:30 7.64 3670 3870 (2011) 365 (2012) 2400 462 730 771 2770 3770 3780 3850
2020-06-06 21:30 7.64 3670 3870 (2011) 365 (2012) 2400 462 730 771 2770 3770 3780 3850
2020-06-06 20:30 7.64 3670 3870 (2011) 365 (2012) 2400 462 730 771 2770 3770 3780 3850
2020-06-06 19:30 7.65 3680 3870 (2011) 365 (2012) 2400 462 730 771 2770 3770 3780 3850
2020-06-06 18:30 7.65 3680 3870 (2011) 365 (2012) 2400 462 730 771 2770 3770 3780 3850
2020-06-06 17:30 7.66 3690 3870 (2011) 365 (2012) 2400 462 730 771 2770 3770 3780 3850
2020-06-06 16:30 7.67 3690 3870 (2011) 365 (2012) 2400 462 730 771 2770 3770 3780 3850
2020-06-06 15:30 7.68 3700 3870 (2011) 365 (2012) 2400 462 730 771 2770 3770 3780 3850
2020-06-06 14:30 7.68 3700 3870 (2011) 365 (2012) 2400 462 730 771 2770 3770 3780 3850
2020-06-06 13:30 7.68 3700 3870 (2011) 365 (2012) 2400 462 730 771 2770 3770 3780 3850
2020-06-06 12:30 7.68 3700 3870 (2011) 365 (2012) 2400 462 730 771 2770 3770 3780 3850
2020-06-06 11:30 7.69 3710 3870 (2011) 365 (2012) 2400 462 730 771 2770 3770 3780 3850
2020-06-06 10:30 7.69 3710 3870 (2011) 365 (2012) 2400 462 730 771 2770 3770 3780 3850
2020-06-06 09:30 7.69 3710 3870 (2011) 365 (2012) 2400 462 730 771 2770 3770 3780 3850
2020-06-06 08:30 7.70 3720 3870 (2011) 365 (2012) 2400 462 730 771 2770 3770 3780 3850
2020-06-06 07:30 7.70 3720 3870 (2011) 365 (2012) 2400 462 730 771 2770 3770 3780 3850
2020-06-06 06:30 7.70 3720 3870 (2011) 365 (2012) 2400 462 730 771 2770 3770 3780 3850
2020-06-06 05:30 7.70 3720 3870 (2011) 365 (2012) 2400 462 730 771 2770 3770 3780 3850
2020-06-06 04:30 7.71 3730 3870 (2011) 365 (2012) 2400 462 730 771 2770 3770 3780 3850
2020-06-06 03:30 7.71 3730 3870 (2011) 365 (2012) 2400 462 730 771 2770 3770 3780 3850
2020-06-06 02:30 7.72 3740 3870 (2011) 365 (2012) 2400 462 730 771 2770 3770 3780 3850
2020-06-06 01:30 7.72 3740 3870 (2011) 365 (2012) 2400 462 730 771 2770 3770 3780 3850
2020-06-06 00:30 7.72 3740 3870 (2011) 365 (2012) 2400 462 730 771 2770 3770 3780 3850
2020-06-05 23:30 7.71 3730 3910 (2011) 336 (2012) 2410 437 711 764 2740 3800 3840 3900
2020-06-05 22:30 7.71 3730 3910 (2011) 336 (2012) 2410 437 711 764 2740 3800 3840 3900
2020-06-05 21:30 7.70 3720 3910 (2011) 336 (2012) 2410 437 711 764 2740 3800 3840 3900
2020-06-05 20:30 7.67 3690 3910 (2011) 336 (2012) 2410 437 711 764 2740 3800 3840 3900
2020-06-05 19:30 7.63 3660 3910 (2011) 336 (2012) 2410 437 711 764 2740 3800 3840 3900
2020-06-05 18:30 7.59 3620 3910 (2011) 336 (2012) 2410 437 711 764 2740 3800 3840 3900
2020-06-05 17:30 7.53 3570 3910 (2011) 336 (2012) 2410 437 711 764 2740 3800 3840 3900
2020-06-05 16:30 7.48 3530 3910 (2011) 336 (2012) 2410 437 711 764 2740 3800 3840 3900
2020-06-05 15:30 7.44 3490 3910 (2011) 336 (2012) 2410 437 711 764 2740 3800 3840 3900
2020-06-05 14:30 7.41 3460 3910 (2011) 336 (2012) 2410 437 711 764 2740 3800 3840 3900
2020-06-05 13:30 7.38 3440 3910 (2011) 336 (2012) 2410 437 711 764 2740 3800 3840 3900
2020-06-05 12:30 7.39 3450 3910 (2011) 336 (2012) 2410 437 711 764 2740 3800 3840 3900
2020-06-05 11:30 7.38 3440 3910 (2011) 336 (2012) 2410 437 711 764 2740 3800 3840 3900
2020-06-05 10:30 7.39 3450 3910 (2011) 336 (2012) 2410 437 711 764 2740 3800 3840 3900
2020-06-05 09:30 7.38 3440 3910 (2011) 336 (2012) 2410 437 711 764 2740 3800 3840 3900
2020-06-05 08:30 7.38 3440 3910 (2011) 336 (2012) 2410 437 711 764 2740 3800 3840 3900
2020-06-05 07:30 7.37 3430 3910 (2011) 336 (2012) 2410 437 711 764 2740 3800 3840 3900
2020-06-05 06:30 7.37 3430 3910 (2011) 336 (2012) 2410 437 711 764 2740 3800 3840 3900
2020-06-05 05:30 7.36 3420 3910 (2011) 336 (2012) 2410 437 711 764 2740 3800 3840 3900
2020-06-05 04:30 7.35 3410 3910 (2011) 336 (2012) 2410 437 711 764 2740 3800 3840 3900
2020-06-05 03:30 7.34 3400 3910 (2011) 336 (2012) 2410 437 711 764 2740 3800 3840 3900
2020-06-05 02:30 7.32 3390 3910 (2011) 336 (2012) 2410 437 711 764 2740 3800 3840 3900
2020-06-05 01:30 7.29 3360 3910 (2011) 336 (2012) 2410 437 711 764 2740 3800 3840 3900
2020-06-05 00:30 7.25 3330 3910 (2011) 336 (2012) 2410 437 711 764 2740 3800 3840 3900
2020-06-04 23:30 7.22 3300 3930 (2016) 335 (2012) 2300 422 732 847 2290 3840 3870 3930
2020-06-04 22:30 7.19 3270 3930 (2016) 335 (2012) 2300 422 732 847 2290 3840 3870 3930
2020-06-04 21:30 7.18 3260 3930 (2016) 335 (2012) 2300 422 732 847 2290 3840 3870 3930
2020-06-04 20:30 7.21 3290 3930 (2016) 335 (2012) 2300 422 732 847 2290 3840 3870 3930
2020-06-04 19:30 7.29 3360 3930 (2016) 335 (2012) 2300 422 732 847 2290 3840 3870 3930
2020-06-04 18:30 7.40 3460 3930 (2016) 335 (2012) 2300 422 732 847 2290 3840 3870 3930
2020-06-04 17:30 7.52 3560 3930 (2016) 335 (2012) 2300 422 732 847 2290 3840 3870 3930
2020-06-04 16:30 7.63 3660 3930 (2016) 335 (2012) 2300 422 732 847 2290 3840 3870 3930
2020-06-04 15:30 7.70 3720 3930 (2016) 335 (2012) 2300 422 732 847 2290 3840 3870 3930
2020-06-04 14:30 7.73 3750 3930 (2016) 335 (2012) 2300 422 732 847 2290 3840 3870 3930
2020-06-04 13:30 7.74 3760 3930 (2016) 335 (2012) 2300 422 732 847 2290 3840 3870 3930
2020-06-04 12:30 7.75 3770 3930 (2016) 335 (2012) 2300 422 732 847 2290 3840 3870 3930
2020-06-04 11:30 7.75 3770 3930 (2016) 335 (2012) 2300 422 732 847 2290 3840 3870 3930
2020-06-04 10:30 7.75 3770 3930 (2016) 335 (2012) 2300 422 732 847 2290 3840 3870 3930
2020-06-04 09:30 7.76 3780 3930 (2016) 335 (2012) 2300 422 732 847 2290 3840 3870 3930
2020-06-04 08:30 7.76 3780 3930 (2016) 335 (2012) 2300 422 732 847 2290 3840 3870 3930
2020-06-04 07:30 7.76 3780 3930 (2016) 335 (2012) 2300 422 732 847 2290 3840 3870 3930
2020-06-04 06:30 7.77 3780 3930 (2016) 335 (2012) 2300 422 732 847 2290 3840 3870 3930
2020-06-04 05:30 7.78 3790 3930 (2016) 335 (2012) 2300 422 732 847 2290 3840 3870 3930
2020-06-04 04:30 7.79 3800 3930 (2016) 335 (2012) 2300 422 732 847 2290 3840 3870 3930
2020-06-04 03:30 7.79 3800 3930 (2016) 335 (2012) 2300 422 732 847 2290 3840 3870 3930
2020-06-04 02:30 7.78 3790 3930 (2016) 335 (2012) 2300 422 732 847 2290 3840 3870 3930
2020-06-04 01:30 7.77 3780 3930 (2016) 335 (2012) 2300 422 732 847 2290 3840 3870 3930
2020-06-04 00:30 7.75 3770 3930 (2016) 335 (2012) 2300 422 732 847 2290 3840 3870 3930
2020-06-03 23:30 7.72 3740 3920 (2011) 337 (2012) 2280 434 744 847 2290 3790 3830 3900
2020-06-03 22:30 7.70 3720 3920 (2011) 337 (2012) 2280 434 744 847 2290 3790 3830 3900
2020-06-03 21:30 7.70 3720 3920 (2011) 337 (2012) 2280 434 744 847 2290 3790 3830 3900
2020-06-03 20:30 7.70 3720 3920 (2011) 337 (2012) 2280 434 744 847 2290 3790 3830 3900
2020-06-03 19:30 7.70 3720 3920 (2011) 337 (2012) 2280 434 744 847 2290 3790 3830 3900
2020-06-03 18:30 7.71 3730 3920 (2011) 337 (2012) 2280 434 744 847 2290 3790 3830 3900
2020-06-03 17:30 7.70 3720 3920 (2011) 337 (2012) 2280 434 744 847 2290 3790 3830 3900
2020-06-03 16:30 7.70 3720 3920 (2011) 337 (2012) 2280 434 744 847 2290 3790 3830 3900
2020-06-03 15:30 7.70 3720 3920 (2011) 337 (2012) 2280 434 744 847 2290 3790 3830 3900
2020-06-03 14:30 7.69 3710 3920 (2011) 337 (2012) 2280 434 744 847 2290 3790 3830 3900
2020-06-03 13:30 7.69 3710 3920 (2011) 337 (2012) 2280 434 744 847 2290 3790 3830 3900
2020-06-03 12:30 7.70 3720 3920 (2011) 337 (2012) 2280 434 744 847 2290 3790 3830 3900
2020-06-03 11:30 7.69 3710 3920 (2011) 337 (2012) 2280 434 744 847 2290 3790 3830 3900
2020-06-03 10:30 7.70 3720 3920 (2011) 337 (2012) 2280 434 744 847 2290 3790 3830 3900
2020-06-03 09:30 7.70 3720 3920 (2011) 337 (2012) 2280 434 744 847 2290 3790 3830 3900
2020-06-03 08:30 7.70 3720 3920 (2011) 337 (2012) 2280 434 744 847 2290 3790 3830 3900
2020-06-03 07:30 7.71 3730 3920 (2011) 337 (2012) 2280 434 744 847 2290 3790 3830 3900
2020-06-03 06:30 7.71 3730 3920 (2011) 337 (2012) 2280 434 744 847 2290 3790 3830 3900
2020-06-03 05:30 7.70 3720 3920 (2011) 337 (2012) 2280 434 744 847 2290 3790 3830 3900
2020-06-03 04:30 7.71 3730 3920 (2011) 337 (2012) 2280 434 744 847 2290 3790 3830 3900
2020-06-03 03:30 7.71 3730 3920 (2011) 337 (2012) 2280 434 744 847 2290 3790 3830 3900
2020-06-03 02:30 7.71 3730 3920 (2011) 337 (2012) 2280 434 744 847 2290 3790 3830 3900
2020-06-03 01:30 7.72 3740 3920 (2011) 337 (2012) 2280 434 744 847 2290 3790 3830 3900
2020-06-03 00:30 7.73 3750 3920 (2011) 337 (2012) 2280 434 744 847 2290 3790 3830 3900
2020-06-02 23:30 7.74 3760 4230 (2016) 336 (2012) 2430 440 761 868 2870 3840 3880 4140
2020-06-02 22:30 7.73 3750 4230 (2016) 336 (2012) 2430 440 761 868 2870 3840 3880 4140
2020-06-02 21:30 7.73 3750 4230 (2016) 336 (2012) 2430 440 761 868 2870 3840 3880 4140
2020-06-02 20:30 7.73 3750 4230 (2016) 336 (2012) 2430 440 761 868 2870 3840 3880 4140
2020-06-02 19:30 7.73 3750 4230 (2016) 336 (2012) 2430 440 761 868 2870 3840 3880 4140
2020-06-02 18:30 7.73 3750 4230 (2016) 336 (2012) 2430 440 761 868 2870 3840 3880 4140
2020-06-02 17:30 7.72 3740 4230 (2016) 336 (2012) 2430 440 761 868 2870 3840 3880 4140
2020-06-02 16:30 7.72 3740 4230 (2016) 336 (2012) 2430 440 761 868 2870 3840 3880 4140
2020-06-02 15:30 7.72 3740 4230 (2016) 336 (2012) 2430 440 761 868 2870 3840 3880 4140
2020-06-02 14:30 7.72 3740 4230 (2016) 336 (2012) 2430 440 761 868 2870 3840 3880 4140
2020-06-02 13:30 7.72 3740 4230 (2016) 336 (2012) 2430 440 761 868 2870 3840 3880 4140
2020-06-02 12:30 7.72 3740 4230 (2016) 336 (2012) 2430 440 761 868 2870 3840 3880 4140
2020-06-02 11:30 7.73 3750 4230 (2016) 336 (2012) 2430 440 761 868 2870 3840 3880 4140
2020-06-02 10:30 7.74 3760 4230 (2016) 336 (2012) 2430 440 761 868 2870 3840 3880 4140
2020-06-02 09:30 7.73 3750 4230 (2016) 336 (2012) 2430 440 761 868 2870 3840 3880 4140
2020-06-02 08:30 7.74 3760 4230 (2016) 336 (2012) 2430 440 761 868 2870 3840 3880 4140
2020-06-02 07:30 7.74 3760 4230 (2016) 336 (2012) 2430 440 761 868 2870 3840 3880 4140
2020-06-02 06:30 7.74 3760 4230 (2016) 336 (2012) 2430 440 761 868 2870 3840 3880 4140
2020-06-02 05:30 7.74 3760 4230 (2016) 336 (2012) 2430 440 761 868 2870 3840 3880 4140
2020-06-02 04:30 7.74 3760 4230 (2016) 336 (2012) 2430 440 761 868 2870 3840 3880 4140
2020-06-02 03:30 7.75 3770 4230 (2016) 336 (2012) 2430 440 761 868 2870 3840 3880 4140
2020-06-02 02:30 7.76 3780 4230 (2016) 336 (2012) 2430 440 761 868 2870 3840 3880 4140
2020-06-02 01:30 7.76 3780 4230 (2016) 336 (2012) 2430 440 761 868 2870 3840 3880 4140
2020-06-02 00:30 7.75 3770 4230 (2016) 336 (2012) 2430 440 761 868 2870 3840 3880 4140
2020-06-01 23:30 7.75 3770 7530 (2013) 341 (2012) 2710 446 787 879 2730 3950 4020 6500
2020-06-01 22:30 7.75 3770 7530 (2013) 341 (2012) 2710 446 787 879 2730 3950 4020 6500
2020-06-01 21:30 7.76 3780 7530 (2013) 341 (2012) 2710 446 787 879 2730 3950 4020 6500
2020-06-01 20:30 7.75 3770 7530 (2013) 341 (2012) 2710 446 787 879 2730 3950 4020 6500
2020-06-01 19:30 7.75 3770 7530 (2013) 341 (2012) 2710 446 787 879 2730 3950 4020 6500
2020-06-01 18:30 7.75 3770 7530 (2013) 341 (2012) 2710 446 787 879 2730 3950 4020 6500
2020-06-01 17:30 7.75 3770 7530 (2013) 341 (2012) 2710 446 787 879 2730 3950 4020 6500
2020-06-01 16:30 7.74 3760 7530 (2013) 341 (2012) 2710 446 787 879 2730 3950 4020 6500
2020-06-01 15:30 7.74 3760 7530 (2013) 341 (2012) 2710 446 787 879 2730 3950 4020 6500
2020-06-01 14:30 7.74 3760 7530 (2013) 341 (2012) 2710 446 787 879 2730 3950 4020 6500
2020-06-01 13:30 7.75 3770 7530 (2013) 341 (2012) 2710 446 787 879 2730 3950 4020 6500
2020-06-01 12:30 7.75 3770 7530 (2013) 341 (2012) 2710 446 787 879 2730 3950 4020 6500
2020-06-01 11:30 7.76 3780 7530 (2013) 341 (2012) 2710 446 787 879 2730 3950 4020 6500
2020-06-01 10:30 7.76 3780 7530 (2013) 341 (2012) 2710 446 787 879 2730 3950 4020 6500
2020-06-01 09:30 7.76 3780 7530 (2013) 341 (2012) 2710 446 787 879 2730 3950 4020 6500
2020-06-01 08:30 7.75 3770 7530 (2013) 341 (2012) 2710 446 787 879 2730 3950 4020 6500
2020-06-01 07:30 7.76 3780 7530 (2013) 341 (2012) 2710 446 787 879 2730 3950 4020 6500
2020-06-01 06:30 7.75 3770 7530 (2013) 341 (2012) 2710 446 787 879 2730 3950 4020 6500
2020-06-01 05:30 7.76 3780 7530 (2013) 341 (2012) 2710 446 787 879 2730 3950 4020 6500
2020-06-01 04:30 7.77 3780 7530 (2013) 341 (2012) 2710 446 787 879 2730 3950 4020 6500
2020-06-01 03:30 7.77 3780 7530 (2013) 341 (2012) 2710 446 787 879 2730 3950 4020 6500
2020-06-01 02:30 7.78 3790 7530 (2013) 341 (2012) 2710 446 787 879 2730 3950 4020 6500
2020-06-01 01:30 7.78 3790 7530 (2013) 341 (2012) 2710 446 787 879 2730 3950 4020 6500
2020-06-01 00:30 7.79 3800 7530 (2013) 341 (2012) 2710 446 787 879 2730 3950 4020 6500
2020-05-31 23:30 7.79 3800 3970 (2011) 352 (2012) 2110 426 677 756 1350 3840 3870 3940
2020-05-31 22:30 7.80 3810 3970 (2011) 352 (2012) 2110 426 677 756 1350 3840 3870 3940
2020-05-31 21:30 7.79 3800 3970 (2011) 352 (2012) 2110 426 677 756 1350 3840 3870 3940
2020-05-31 20:30 7.81 3820 3970 (2011) 352 (2012) 2110 426 677 756 1350 3840 3870 3940
2020-05-31 19:30 7.81 3820 3970 (2011) 352 (2012) 2110 426 677 756 1350 3840 3870 3940
2020-05-31 18:30 7.82 3830 3970 (2011) 352 (2012) 2110 426 677 756 1350 3840 3870 3940
2020-05-31 17:30 7.82 3830 3970 (2011) 352 (2012) 2110 426 677 756 1350 3840 3870 3940
2020-05-31 16:30 7.83 3840 3970 (2011) 352 (2012) 2110 426 677 756 1350 3840 3870 3940
2020-05-31 15:30 7.82 3830 3970 (2011) 352 (2012) 2110 426 677 756 1350 3840 3870 3940
2020-05-31 14:30 7.83 3840 3970 (2011) 352 (2012) 2110 426 677 756 1350 3840 3870 3940
2020-05-31 13:30 7.84 3850 3970 (2011) 352 (2012) 2110 426 677 756 1350 3840 3870 3940
2020-05-31 12:30 7.85 3860 3970 (2011) 352 (2012) 2110 426 677 756 1350 3840 3870 3940
2020-05-31 11:30 7.85 3860 3970 (2011) 352 (2012) 2110 426 677 756 1350 3840 3870 3940
2020-05-31 10:30 7.85 3860 3970 (2011) 352 (2012) 2110 426 677 756 1350 3840 3870 3940
2020-05-31 09:30 7.85 3860 3970 (2011) 352 (2012) 2110 426 677 756 1350 3840 3870 3940
2020-05-31 08:30 7.85 3860 3970 (2011) 352 (2012) 2110 426 677 756 1350 3840 3870 3940
2020-05-31 07:30 7.86 3870 3970 (2011) 352 (2012) 2110 426 677 756 1350 3840 3870 3940
2020-05-31 06:30 7.86 3870 3970 (2011) 352 (2012) 2110 426 677 756 1350 3840 3870 3940
2020-05-31 05:30 7.86 3870 3970 (2011) 352 (2012) 2110 426 677 756 1350 3840 3870 3940
2020-05-31 04:30 7.86 3870 3970 (2011) 352 (2012) 2110 426 677 756 1350 3840 3870 3940
2020-05-31 03:30 7.87 3870 3970 (2011) 352 (2012) 2110 426 677 756 1350 3840 3870 3940
2020-05-31 02:30 7.88 3880 3970 (2011) 352 (2012) 2110 426 677 756 1350 3840 3870 3940
2020-05-31 01:30 7.89 3890 3970 (2011) 352 (2012) 2110 426 677 756 1350 3840 3870 3940
2020-05-31 00:30 7.88 3880 3970 (2011) 352 (2012) 2110 426 677 756 1350 3840 3870 3940
2020-05-30 23:30 7.89 3890 4070 (2011) 357 (2012) 2020 423 730 877 1330 3340 3590 4020
2020-05-30 22:30 7.90 3900 4070 (2011) 357 (2012) 2020 423 730 877 1330 3340 3590 4020
2020-05-30 21:30 7.89 3890 4070 (2011) 357 (2012) 2020 423 730 877 1330 3340 3590 4020
2020-05-30 20:30 7.90 3900 4070 (2011) 357 (2012) 2020 423 730 877 1330 3340 3590 4020
2020-05-30 19:30 7.90 3900 4070 (2011) 357 (2012) 2020 423 730 877 1330 3340 3590 4020
2020-05-30 18:30 7.91 3910 4070 (2011) 357 (2012) 2020 423 730 877 1330 3340 3590 4020
2020-05-30 17:30 7.91 3910 4070 (2011) 357 (2012) 2020 423 730 877 1330 3340 3590 4020
2020-05-30 16:30 7.92 3920 4070 (2011) 357 (2012) 2020 423 730 877 1330 3340 3590 4020
2020-05-30 15:30 7.92 3920 4070 (2011) 357 (2012) 2020 423 730 877 1330 3340 3590 4020
2020-05-30 14:30 7.93 3930 4070 (2011) 357 (2012) 2020 423 730 877 1330 3340 3590 4020
2020-05-30 13:30 7.93 3930 4070 (2011) 357 (2012) 2020 423 730 877 1330 3340 3590 4020
2020-05-30 12:30 7.93 3930 4070 (2011) 357 (2012) 2020 423 730 877 1330 3340 3590 4020
2020-05-30 11:30 7.94 3940 4070 (2011) 357 (2012) 2020 423 730 877 1330 3340 3590 4020
2020-05-30 10:30 7.95 3950 4070 (2011) 357 (2012) 2020 423 730 877 1330 3340 3590 4020
2020-05-30 09:30 7.94 3940 4070 (2011) 357 (2012) 2020 423 730 877 1330 3340 3590 4020
2020-05-30 08:30 7.94 3940 4070 (2011) 357 (2012) 2020 423 730 877 1330 3340 3590 4020
2020-05-30 07:30 7.92 3920 4070 (2011) 357 (2012) 2020 423 730 877 1330 3340 3590 4020
2020-05-30 06:30 7.91 3910 4070 (2011) 357 (2012) 2020 423 730 877 1330 3340 3590 4020
2020-05-30 05:30 7.88 3880 4070 (2011) 357 (2012) 2020 423 730 877 1330 3340 3590 4020
2020-05-30 04:30 7.86 3870 4070 (2011) 357 (2012) 2020 423 730 877 1330 3340 3590 4020
2020-05-30 03:30 7.83 3840 4070 (2011) 357 (2012) 2020 423 730 877 1330 3340 3590 4020
2020-05-30 02:30 7.78 3790 4070 (2011) 357 (2012) 2020 423 730 877 1330 3340 3590 4020
2020-05-30 01:30 7.72 3740 4070 (2011) 357 (2012) 2020 423 730 877 1330 3340 3590 4020
2020-05-30 00:30 7.66 3690 4070 (2011) 357 (2012) 2020 423 730 877 1330 3340 3590 4020
2020-05-29 23:30 7.60 3630 4140 (2011) 396 (2012) 2050 461 791 953 1220 3660 3860 4070
2020-05-29 22:30 7.56 3600 4140 (2011) 396 (2012) 2050 461 791 953 1220 3660 3860 4070
2020-05-29 21:30 7.56 3600 4140 (2011) 396 (2012) 2050 461 791 953 1220 3660 3860 4070
2020-05-29 20:30 7.59 3620 4140 (2011) 396 (2012) 2050 461 791 953 1220 3660 3860 4070
2020-05-29 19:30 7.68 3700 4140 (2011) 396 (2012) 2050 461 791 953 1220 3660 3860 4070
2020-05-29 18:30 7.79 3800 4140 (2011) 396 (2012) 2050 461 791 953 1220 3660 3860 4070
2020-05-29 17:30 7.92 3920 4140 (2011) 396 (2012) 2050 461 791 953 1220 3660 3860 4070
2020-05-29 16:30 8.02 4010 4140 (2011) 396 (2012) 2050 461 791 953 1220 3660 3860 4070
2020-05-29 15:30 8.14 4120 4140 (2011) 396 (2012) 2050 461 791 953 1220 3660 3860 4070
2020-05-29 14:30 8.21 4190 4140 (2011) 396 (2012) 2050 461 791 953 1220 3660 3860 4070
2020-05-29 13:30 8.24 4220 4140 (2011) 396 (2012) 2050 461 791 953 1220 3660 3860 4070
2020-05-29 12:30 8.27 4240 4140 (2011) 396 (2012) 2050 461 791 953 1220 3660 3860 4070
2020-05-29 11:30 8.28 4250 4140 (2011) 396 (2012) 2050 461 791 953 1220 3660 3860 4070
2020-05-29 10:30 8.30 4270 4140 (2011) 396 (2012) 2050 461 791 953 1220 3660 3860 4070
2020-05-29 09:30 8.31 4280 4140 (2011) 396 (2012) 2050 461 791 953 1220 3660 3860 4070
2020-05-29 08:30 8.33 4300 4140 (2011) 396 (2012) 2050 461 791 953 1220 3660 3860 4070
2020-05-29 07:30 8.34 4310 4140 (2011) 396 (2012) 2050 461 791 953 1220 3660 3860 4070
2020-05-29 06:30 8.35 4320 4140 (2011) 396 (2012) 2050 461 791 953 1220 3660 3860 4070
2020-05-29 05:30 8.37 4340 4140 (2011) 396 (2012) 2050 461 791 953 1220 3660 3860 4070
2020-05-29 04:30 8.38 4350 4140 (2011) 396 (2012) 2050 461 791 953 1220 3660 3860 4070
2020-05-29 03:30 8.41 4370 4140 (2011) 396 (2012) 2050 461 791 953 1220 3660 3860 4070
2020-05-29 02:30 8.43 4390 4140 (2011) 396 (2012) 2050 461 791 953 1220 3660 3860 4070
2020-05-29 01:30 8.46 4420 4140 (2011) 396 (2012) 2050 461 791 953 1220 3660 3860 4070
2020-05-29 00:30 8.48 4440 4140 (2011) 396 (2012) 2050 461 791 953 1220 3660 3860 4070
2020-05-28 23:30 8.49 4450 4220 (2011) 403 (2012) 2100 516 918 1010 1400 3720 3840 4130
2020-05-28 22:30 8.51 4470 4220 (2011) 403 (2012) 2100 516 918 1010 1400 3720 3840 4130
2020-05-28 21:30 8.53 4490 4220 (2011) 403 (2012) 2100 516 918 1010 1400 3720 3840 4130
2020-05-28 20:30 8.55 4510 4220 (2011) 403 (2012) 2100 516 918 1010 1400 3720 3840 4130
2020-05-28 19:30 8.56 4520 4220 (2011) 403 (2012) 2100 516 918 1010 1400 3720 3840 4130
2020-05-28 18:30 8.59 4550 4220 (2011) 403 (2012) 2100 516 918 1010 1400 3720 3840 4130
2020-05-28 17:30 8.63 4580 4220 (2011) 403 (2012) 2100 516 918 1010 1400 3720 3840 4130
2020-05-28 16:30 8.67 4620 4220 (2011) 403 (2012) 2100 516 918 1010 1400 3720 3840 4130
2020-05-28 15:30 8.74 4690 4220 (2011) 403 (2012) 2100 516 918 1010 1400 3720 3840 4130
2020-05-28 14:30 8.82 4770 4220 (2011) 403 (2012) 2100 516 918 1010 1400 3720 3840 4130
2020-05-28 13:30 8.89 4830 4220 (2011) 403 (2012) 2100 516 918 1010 1400 3720 3840 4130
2020-05-28 12:30 8.91 4850 4220 (2011) 403 (2012) 2100 516 918 1010 1400 3720 3840 4130
2020-05-28 11:30 8.91 4850 4220 (2011) 403 (2012) 2100 516 918 1010 1400 3720 3840 4130
2020-05-28 10:30 8.88 4820 4220 (2011) 403 (2012) 2100 516 918 1010 1400 3720 3840 4130
2020-05-28 09:30 8.85 4800 4220 (2011) 403 (2012) 2100 516 918 1010 1400 3720 3840 4130
2020-05-28 08:30 8.80 4750 4220 (2011) 403 (2012) 2100 516 918 1010 1400 3720 3840 4130
2020-05-28 07:30 8.75 4700 4220 (2011) 403 (2012) 2100 516 918 1010 1400 3720 3840 4130
2020-05-28 06:30 8.62 4570 4220 (2011) 403 (2012) 2100 516 918 1010 1400 3720 3840 4130
2020-05-28 05:30 8.45 4410 4220 (2011) 403 (2012) 2100 516 918 1010 1400 3720 3840 4130
2020-05-28 04:30 8.25 4220 4220 (2011) 403 (2012) 2100 516 918 1010 1400 3720 3840 4130
2020-05-28 03:30 8.06 4050 4220 (2011) 403 (2012) 2100 516 918 1010 1400 3720 3840 4130
2020-05-28 02:30 7.89 3890 4220 (2011) 403 (2012) 2100 516 918 1010 1400 3720 3840 4130
2020-05-28 01:30 7.77 3780 4220 (2011) 403 (2012) 2100 516 918 1010 1400 3720 3840 4130
2020-05-28 00:30 7.61 3640 4220 (2011) 403 (2012) 2100 516 918 1010 1400 3720 3840 4130
2020-05-27 23:30 7.52 3560 4600 (2016) 410 (2012) 2380 521 817 891 1940 3920 4080 4510
2020-05-27 22:30 7.43 3480 4600 (2016) 410 (2012) 2380 521 817 891 1940 3920 4080 4510
2020-05-27 21:30 7.37 3430 4600 (2016) 410 (2012) 2380 521 817 891 1940 3920 4080 4510
2020-05-27 20:30 7.29 3360 4600 (2016) 410 (2012) 2380 521 817 891 1940 3920 4080 4510
2020-05-27 19:30 7.17 3260 4600 (2016) 410 (2012) 2380 521 817 891 1940 3920 4080 4510
2020-05-27 18:30 7.01 3120 4600 (2016) 410 (2012) 2380 521 817 891 1940 3920 4080 4510
2020-05-27 17:30 6.82 2960 4600 (2016) 410 (2012) 2380 521 817 891 1940 3920 4080 4510
2020-05-27 16:30 6.65 2810 4600 (2016) 410 (2012) 2380 521 817 891 1940 3920 4080 4510
2020-05-27 15:30 6.54 2710 4600 (2016) 410 (2012) 2380 521 817 891 1940 3920 4080 4510
2020-05-27 14:30 6.46 2640 4600 (2016) 410 (2012) 2380 521 817 891 1940 3920 4080 4510
2020-05-27 13:30 6.44 2630 4600 (2016) 410 (2012) 2380 521 817 891 1940 3920 4080 4510
2020-05-27 12:30 6.53 2710 4600 (2016) 410 (2012) 2380 521 817 891 1940 3920 4080 4510
2020-05-27 11:30 6.64 2800 4600 (2016) 410 (2012) 2380 521 817 891 1940 3920 4080 4510
2020-05-27 10:30 6.71 2870 4600 (2016) 410 (2012) 2380 521 817 891 1940 3920 4080 4510
2020-05-27 09:30 6.76 2910 4600 (2016) 410 (2012) 2380 521 817 891 1940 3920 4080 4510
2020-05-27 08:30 6.77 2920 4600 (2016) 410 (2012) 2380 521 817 891 1940 3920 4080 4510
2020-05-27 07:30 6.77 2920 4600 (2016) 410 (2012) 2380 521 817 891 1940 3920 4080 4510
2020-05-27 06:30 6.76 2910 4600 (2016) 410 (2012) 2380 521 817 891 1940 3920 4080 4510
2020-05-27 05:30 6.75 2900 4600 (2016) 410 (2012) 2380 521 817 891 1940 3920 4080 4510
2020-05-27 04:30 6.75 2900 4600 (2016) 410 (2012) 2380 521 817 891 1940 3920 4080 4510
2020-05-27 03:30 6.73 2880 4600 (2016) 410 (2012) 2380 521 817 891 1940 3920 4080 4510
2020-05-27 02:30 6.73 2880 4600 (2016) 410 (2012) 2380 521 817 891 1940 3920 4080 4510
2020-05-27 01:30 6.70 2860 4600 (2016) 410 (2012) 2380 521 817 891 1940 3920 4080 4510
2020-05-27 00:30 6.71 2870 4600 (2016) 410 (2012) 2380 521 817 891 1940 3920 4080 4510
2020-05-26 23:30 6.71 2870 4320 (2011) 420 (2012) 2320 508 820 911 2190 3800 3880 4210
2020-05-26 22:30 6.71 2870 4320 (2011) 420 (2012) 2320 508 820 911 2190 3800 3880 4210
2020-05-26 21:30 6.70 2860 4320 (2011) 420 (2012) 2320 508 820 911 2190 3800 3880 4210
2020-05-26 20:30 6.67 2830 4320 (2011) 420 (2012) 2320 508 820 911 2190 3800 3880 4210
2020-05-26 19:30 6.65 2810 4320 (2011) 420 (2012) 2320 508 820 911 2190 3800 3880 4210
2020-05-26 18:30 6.65 2810 4320 (2011) 420 (2012) 2320 508 820 911 2190 3800 3880 4210
2020-05-26 17:30 6.65 2810 4320 (2011) 420 (2012) 2320 508 820 911 2190 3800 3880 4210
2020-05-26 16:30 6.65 2810 4320 (2011) 420 (2012) 2320 508 820 911 2190 3800 3880 4210
2020-05-26 15:30 6.66 2820 4320 (2011) 420 (2012) 2320 508 820 911 2190 3800 3880 4210
2020-05-26 14:30 6.66 2820 4320 (2011) 420 (2012) 2320 508 820 911 2190 3800 3880 4210
2020-05-26 13:30 6.66 2820 4320 (2011) 420 (2012) 2320 508 820 911 2190 3800 3880 4210
2020-05-26 12:30 6.67 2830 4320 (2011) 420 (2012) 2320 508 820 911 2190 3800 3880 4210
2020-05-26 11:30 6.67 2830 4320 (2011) 420 (2012) 2320 508 820 911 2190 3800 3880 4210
2020-05-26 10:30 6.68 2840 4320 (2011) 420 (2012) 2320 508 820 911 2190 3800 3880 4210
2020-05-26 09:30 6.68 2840 4320 (2011) 420 (2012) 2320 508 820 911 2190 3800 3880 4210
2020-05-26 08:30 6.69 2850 4320 (2011) 420 (2012) 2320 508 820 911 2190 3800 3880 4210
2020-05-26 07:30 6.69 2850 4320 (2011) 420 (2012) 2320 508 820 911 2190 3800 3880 4210
2020-05-26 06:30 6.71 2870 4320 (2011) 420 (2012) 2320 508 820 911 2190 3800 3880 4210
2020-05-26 05:30 6.71 2870 4320 (2011) 420 (2012) 2320 508 820 911 2190 3800 3880 4210
2020-05-26 04:30 6.72 2880 4320 (2011) 420 (2012) 2320 508 820 911 2190 3800 3880 4210
2020-05-26 03:30 6.73 2880 4320 (2011) 420 (2012) 2320 508 820 911 2190 3800 3880 4210
2020-05-26 02:30 6.74 2890 4320 (2011) 420 (2012) 2320 508 820 911 2190 3800 3880 4210
2020-05-26 01:30 6.74 2890 4320 (2011) 420 (2012) 2320 508 820 911 2190 3800 3880 4210
2020-05-26 00:30 6.76 2910 4320 (2011) 420 (2012) 2320 508 820 911 2190 3800 3880 4210
2020-05-25 23:30 6.77 2920 4250 (2011) 434 (2012) 2400 587 965 1010 2300 3830 3920 4170
2020-05-25 22:30 6.79 2930 4250 (2011) 434 (2012) 2400 587 965 1010 2300 3830 3920 4170
2020-05-25 21:30 6.81 2950 4250 (2011) 434 (2012) 2400 587 965 1010 2300 3830 3920 4170
2020-05-25 20:30 6.83 2970 4250 (2011) 434 (2012) 2400 587 965 1010 2300 3830 3920 4170
2020-05-25 19:30 6.85 2980 4250 (2011) 434 (2012) 2400 587 965 1010 2300 3830 3920 4170
2020-05-25 18:30 6.90 3030 4250 (2011) 434 (2012) 2400 587 965 1010 2300 3830 3920 4170
2020-05-25 17:30 6.94 3060 4250 (2011) 434 (2012) 2400 587 965 1010 2300 3830 3920 4170
2020-05-25 16:30 7.02 3130 4250 (2011) 434 (2012) 2400 587 965 1010 2300 3830 3920 4170
2020-05-25 15:30 7.12 3210 4250 (2011) 434 (2012) 2400 587 965 1010 2300 3830 3920 4170
2020-05-25 14:30 7.23 3310 4250 (2011) 434 (2012) 2400 587 965 1010 2300 3830 3920 4170
2020-05-25 13:30 7.36 3420 4250 (2011) 434 (2012) 2400 587 965 1010 2300 3830 3920 4170
2020-05-25 12:30 7.49 3530 4250 (2011) 434 (2012) 2400 587 965 1010 2300 3830 3920 4170
2020-05-25 11:30 7.57 3610 4250 (2011) 434 (2012) 2400 587 965 1010 2300 3830 3920 4170
2020-05-25 10:30 7.62 3650 4250 (2011) 434 (2012) 2400 587 965 1010 2300 3830 3920 4170
2020-05-25 09:30 7.65 3680 4250 (2011) 434 (2012) 2400 587 965 1010 2300 3830 3920 4170
2020-05-25 08:30 7.67 3690 4250 (2011) 434 (2012) 2400 587 965 1010 2300 3830 3920 4170
2020-05-25 07:30 7.67 3690 4250 (2011) 434 (2012) 2400 587 965 1010 2300 3830 3920 4170
2020-05-25 06:30 7.69 3710 4250 (2011) 434 (2012) 2400 587 965 1010 2300 3830 3920 4170
2020-05-25 05:30 7.70 3720 4250 (2011) 434 (2012) 2400 587 965 1010 2300 3830 3920 4170
2020-05-25 04:30 7.70 3720 4250 (2011) 434 (2012) 2400 587 965 1010 2300 3830 3920 4170
2020-05-25 03:30 7.75 3770 4250 (2011) 434 (2012) 2400 587 965 1010 2300 3830 3920 4170
2020-05-25 02:30 7.77 3780 4250 (2011) 434 (2012) 2400 587 965 1010 2300 3830 3920 4170
2020-05-25 01:30 7.68 3700 4250 (2011) 434 (2012) 2400 587 965 1010 2300 3830 3920 4170
2020-05-25 00:30 7.61 3640 4250 (2011) 434 (2012) 2400 587 965 1010 2300 3830 3920 4170
2020-05-24 23:30 7.60 3630 4260 (2011) 472 (2012) 2460 598 1020 1170 2650 3840 3910 4170
2020-05-24 22:30 7.60 3630 4260 (2011) 472 (2012) 2460 598 1020 1170 2650 3840 3910 4170
2020-05-24 21:30 7.61 3640 4260 (2011) 472 (2012) 2460 598 1020 1170 2650 3840 3910 4170
2020-05-24 20:30 7.62 3650 4260 (2011) 472 (2012) 2460 598 1020 1170 2650 3840 3910 4170
2020-05-24 19:30 7.62 3650 4260 (2011) 472 (2012) 2460 598 1020 1170 2650 3840 3910 4170
2020-05-24 18:30 7.63 3660 4260 (2011) 472 (2012) 2460 598 1020 1170 2650 3840 3910 4170
2020-05-24 17:30 7.64 3670 4260 (2011) 472 (2012) 2460 598 1020 1170 2650 3840 3910 4170
2020-05-24 16:30 7.64 3670 4260 (2011) 472 (2012) 2460 598 1020 1170 2650 3840 3910 4170
2020-05-24 15:30 7.65 3680 4260 (2011) 472 (2012) 2460 598 1020 1170 2650 3840 3910 4170
2020-05-24 14:30 7.65 3680 4260 (2011) 472 (2012) 2460 598 1020 1170 2650 3840 3910 4170
2020-05-24 13:30 7.65 3680 4260 (2011) 472 (2012) 2460 598 1020 1170 2650 3840 3910 4170
2020-05-24 12:30 7.66 3690 4260 (2011) 472 (2012) 2460 598 1020 1170 2650 3840 3910 4170
2020-05-24 11:30 7.68 3700 4260 (2011) 472 (2012) 2460 598 1020 1170 2650 3840 3910 4170
2020-05-24 10:30 7.66 3690 4260 (2011) 472 (2012) 2460 598 1020 1170 2650 3840 3910 4170
2020-05-24 09:30 7.67 3690 4260 (2011) 472 (2012) 2460 598 1020 1170 2650 3840 3910 4170
2020-05-24 08:30 7.68 3700 4260 (2011) 472 (2012) 2460 598 1020 1170 2650 3840 3910 4170
2020-05-24 07:30 7.67 3690 4260 (2011) 472 (2012) 2460 598 1020 1170 2650 3840 3910 4170
2020-05-24 06:30 7.68 3700 4260 (2011) 472 (2012) 2460 598 1020 1170 2650 3840 3910 4170
2020-05-24 05:30 7.68 3700 4260 (2011) 472 (2012) 2460 598 1020 1170 2650 3840 3910 4170
2020-05-24 04:30 7.68 3700 4260 (2011) 472 (2012) 2460 598 1020 1170 2650 3840 3910 4170
2020-05-24 03:30 7.68 3700 4260 (2011) 472 (2012) 2460 598 1020 1170 2650 3840 3910 4170
2020-05-24 02:30 7.69 3710 4260 (2011) 472 (2012) 2460 598 1020 1170 2650 3840 3910 4170
2020-05-24 01:30 7.69 3710 4260 (2011) 472 (2012) 2460 598 1020 1170 2650 3840 3910 4170
2020-05-24 00:30 7.70 3720 4260 (2011) 472 (2012) 2460 598 1020 1170 2650 3840 3910 4170
2020-05-23 23:30 7.70 3720 4150 (2011) 478 (2012) 2410 614 1090 1250 2280 3790 3880 4100
2020-05-23 22:30 7.70 3720 4150 (2011) 478 (2012) 2410 614 1090 1250 2280 3790 3880 4100
2020-05-23 21:30 7.71 3730 4150 (2011) 478 (2012) 2410 614 1090 1250 2280 3790 3880 4100
2020-05-23 20:30 7.70 3720 4150 (2011) 478 (2012) 2410 614 1090 1250 2280 3790 3880 4100
2020-05-23 19:30 7.71 3730 4150 (2011) 478 (2012) 2410 614 1090 1250 2280 3790 3880 4100
2020-05-23 18:30 7.72 3740 4150 (2011) 478 (2012) 2410 614 1090 1250 2280 3790 3880 4100
2020-05-23 17:30 7.71 3730 4150 (2011) 478 (2012) 2410 614 1090 1250 2280 3790 3880 4100
2020-05-23 16:30 7.71 3730 4150 (2011) 478 (2012) 2410 614 1090 1250 2280 3790 3880 4100
2020-05-23 15:30 7.73 3750 4150 (2011) 478 (2012) 2410 614 1090 1250 2280 3790 3880 4100
2020-05-23 14:30 7.72 3740 4150 (2011) 478 (2012) 2410 614 1090 1250 2280 3790 3880 4100
2020-05-23 13:30 7.73 3750 4150 (2011) 478 (2012) 2410 614 1090 1250 2280 3790 3880 4100
2020-05-23 12:30 7.73 3750 4150 (2011) 478 (2012) 2410 614 1090 1250 2280 3790 3880 4100
2020-05-23 11:30 7.74 3760 4150 (2011) 478 (2012) 2410 614 1090 1250 2280 3790 3880 4100
2020-05-23 10:30 7.74 3760 4150 (2011) 478 (2012) 2410 614 1090 1250 2280 3790 3880 4100
2020-05-23 09:30 7.74 3760 4150 (2011) 478 (2012) 2410 614 1090 1250 2280 3790 3880 4100
2020-05-23 08:30 7.75 3770 4150 (2011) 478 (2012) 2410 614 1090 1250 2280 3790 3880 4100
2020-05-23 07:30 7.73 3750 4150 (2011) 478 (2012) 2410 614 1090 1250 2280 3790 3880 4100
2020-05-23 06:30 7.76 3780 4150 (2011) 478 (2012) 2410 614 1090 1250 2280 3790 3880 4100
2020-05-23 05:30 7.75 3770 4150 (2011) 478 (2012) 2410 614 1090 1250 2280 3790 3880 4100
2020-05-23 04:30 7.75 3770 4150 (2011) 478 (2012) 2410 614 1090 1250 2280 3790 3880 4100
2020-05-23 03:30 7.74 3760 4150 (2011) 478 (2012) 2410 614 1090 1250 2280 3790 3880 4100
2020-05-23 02:30 7.75 3770 4150 (2011) 478 (2012) 2410 614 1090 1250 2280 3790 3880 4100
2020-05-23 01:30 7.74 3760 4150 (2011) 478 (2012) 2410 614 1090 1250 2280 3790 3880 4100
2020-05-23 00:30 7.74 3760 4150 (2011) 478 (2012) 2410 614 1090 1250 2280 3790 3880 4100
2020-05-22 23:30 7.73 3750 4040 (2011) 486 (2012) 2560 670 1300 1460 2330 3850 3950 4040
2020-05-22 22:30 7.72 3740 4040 (2011) 486 (2012) 2560 670 1300 1460 2330 3850 3950 4040
2020-05-22 21:30 7.69 3710 4040 (2011) 486 (2012) 2560 670 1300 1460 2330 3850 3950 4040
2020-05-22 20:30 7.68 3700 4040 (2011) 486 (2012) 2560 670 1300 1460 2330 3850 3950 4040
2020-05-22 19:30 7.64 3670 4040 (2011) 486 (2012) 2560 670 1300 1460 2330 3850 3950 4040
2020-05-22 18:30 7.61 3640 4040 (2011) 486 (2012) 2560 670 1300 1460 2330 3850 3950 4040
2020-05-22 17:30 7.57 3610 4040 (2011) 486 (2012) 2560 670 1300 1460 2330 3850 3950 4040
2020-05-22 16:30 7.52 3560 4040 (2011) 486 (2012) 2560 670 1300 1460 2330 3850 3950 4040
2020-05-22 15:30 7.50 3540 4040 (2011) 486 (2012) 2560 670 1300 1460 2330 3850 3950 4040
2020-05-22 14:30 7.46 3510 4040 (2011) 486 (2012) 2560 670 1300 1460 2330 3850 3950 4040
2020-05-22 13:30 7.46 3510 4040 (2011) 486 (2012) 2560 670 1300 1460 2330 3850 3950 4040
2020-05-22 12:30 7.46 3510 4040 (2011) 486 (2012) 2560 670 1300 1460 2330 3850 3950 4040
2020-05-22 11:30 7.46 3510 4040 (2011) 486 (2012) 2560 670 1300 1460 2330 3850 3950 4040
2020-05-22 10:30 7.46 3510 4040 (2011) 486 (2012) 2560 670 1300 1460 2330 3850 3950 4040
2020-05-22 09:30 7.48 3530 4040 (2011) 486 (2012) 2560 670 1300 1460 2330 3850 3950 4040
2020-05-22 08:30 7.47 3520 4040 (2011) 486 (2012) 2560 670 1300 1460 2330 3850 3950 4040
2020-05-22 07:30 7.47 3520 4040 (2011) 486 (2012) 2560 670 1300 1460 2330 3850 3950 4040
2020-05-22 06:30 7.47 3520 4040 (2011) 486 (2012) 2560 670 1300 1460 2330 3850 3950 4040
2020-05-22 05:30 7.47 3520 4040 (2011) 486 (2012) 2560 670 1300 1460 2330 3850 3950 4040
2020-05-22 04:30 7.47 3520 4040 (2011) 486 (2012) 2560 670 1300 1460 2330 3850 3950 4040
2020-05-22 03:30 7.48 3530 4040 (2011) 486 (2012) 2560 670 1300 1460 2330 3850 3950 4040
2020-05-22 02:30 7.47 3520 4040 (2011) 486 (2012) 2560 670 1300 1460 2330 3850 3950 4040
2020-05-22 01:30 7.47 3520 4040 (2011) 486 (2012) 2560 670 1300 1460 2330 3850 3950 4040
2020-05-22 00:30 7.48 3530 4040 (2011) 486 (2012) 2560 670 1300 1460 2330 3850 3950 4040
2020-05-21 23:30 7.47 3520 4040 (2008) 487 (2012) 2500 701 1310 1450 2280 3830 3910 4020
2020-05-21 22:30 7.47 3520 4040 (2008) 487 (2012) 2500 701 1310 1450 2280 3830 3910 4020
2020-05-21 21:30 7.48 3530 4040 (2008) 487 (2012) 2500 701 1310 1450 2280 3830 3910 4020
2020-05-21 20:30 7.46 3510 4040 (2008) 487 (2012) 2500 701 1310 1450 2280 3830 3910 4020
2020-05-21 19:30 7.47 3520 4040 (2008) 487 (2012) 2500 701 1310 1450 2280 3830 3910 4020
2020-05-21 18:30 7.45 3500 4040 (2008) 487 (2012) 2500 701 1310 1450 2280 3830 3910 4020
2020-05-21 17:30 7.44 3490 4040 (2008) 487 (2012) 2500 701 1310 1450 2280 3830 3910 4020
2020-05-21 16:30 7.43 3480 4040 (2008) 487 (2012) 2500 701 1310 1450 2280 3830 3910 4020
2020-05-21 15:30 7.42 3470 4040 (2008) 487 (2012) 2500 701 1310 1450 2280 3830 3910 4020
2020-05-21 14:30 7.40 3460 4040 (2008) 487 (2012) 2500 701 1310 1450 2280 3830 3910 4020
2020-05-21 13:30 7.40 3460 4040 (2008) 487 (2012) 2500 701 1310 1450 2280 3830 3910 4020
2020-05-21 12:30 7.40 3460 4040 (2008) 487 (2012) 2500 701 1310 1450 2280 3830 3910 4020
2020-05-21 11:30 7.40 3460 4040 (2008) 487 (2012) 2500 701 1310 1450 2280 3830 3910 4020
2020-05-21 10:30 7.41 3460 4040 (2008) 487 (2012) 2500 701 1310 1450 2280 3830 3910 4020
2020-05-21 09:30 7.41 3460 4040 (2008) 487 (2012) 2500 701 1310 1450 2280 3830 3910 4020
2020-05-21 08:30 7.40 3460 4040 (2008) 487 (2012) 2500 701 1310 1450 2280 3830 3910 4020
2020-05-21 07:30 7.42 3470 4040 (2008) 487 (2012) 2500 701 1310 1450 2280 3830 3910 4020
2020-05-21 06:30 7.42 3470 4040 (2008) 487 (2012) 2500 701 1310 1450 2280 3830 3910 4020
2020-05-21 05:30 7.41 3460 4040 (2008) 487 (2012) 2500 701 1310 1450 2280 3830 3910 4020
2020-05-21 04:30 7.41 3460 4040 (2008) 487 (2012) 2500 701 1310 1450 2280 3830 3910 4020
2020-05-21 03:30 7.42 3470 4040 (2008) 487 (2012) 2500 701 1310 1450 2280 3830 3910 4020
2020-05-21 02:30 7.42 3470 4040 (2008) 487 (2012) 2500 701 1310 1450 2280 3830 3910 4020
2020-05-21 01:30 7.42 3470 4040 (2008) 487 (2012) 2500 701 1310 1450 2280 3830 3910 4020
2020-05-21 00:30 7.42 3470 4040 (2008) 487 (2012) 2500 701 1310 1450 2280 3830 3910 4020
2020-05-20 23:30 7.40 3460 4100 (2008) 482 (2012) 2590 697 1360 1500 2650 3700 3850 4090
2020-05-20 22:30 7.40 3460 4100 (2008) 482 (2012) 2590 697 1360 1500 2650 3700 3850 4090
2020-05-20 21:30 7.39 3450 4100 (2008) 482 (2012) 2590 697 1360 1500 2650 3700 3850 4090
2020-05-20 20:30 7.38 3440 4100 (2008) 482 (2012) 2590 697 1360 1500 2650 3700 3850 4090
2020-05-20 19:30 7.33 3390 4100 (2008) 482 (2012) 2590 697 1360 1500 2650 3700 3850 4090
2020-05-20 18:30 7.31 3380 4100 (2008) 482 (2012) 2590 697 1360 1500 2650 3700 3850 4090
2020-05-20 17:30 7.29 3360 4100 (2008) 482 (2012) 2590 697 1360 1500 2650 3700 3850 4090
2020-05-20 16:30 7.26 3330 4100 (2008) 482 (2012) 2590 697 1360 1500 2650 3700 3850 4090
2020-05-20 15:30 7.23 3310 4100 (2008) 482 (2012) 2590 697 1360 1500 2650 3700 3850 4090
2020-05-20 14:30 7.20 3280 4100 (2008) 482 (2012) 2590 697 1360 1500 2650 3700 3850 4090
2020-05-20 13:30 7.18 3260 4100 (2008) 482 (2012) 2590 697 1360 1500 2650 3700 3850 4090
2020-05-20 12:30 7.17 3260 4100 (2008) 482 (2012) 2590 697 1360 1500 2650 3700 3850 4090
2020-05-20 11:30 7.18 3260 4100 (2008) 482 (2012) 2590 697 1360 1500 2650 3700 3850 4090
2020-05-20 10:30 7.17 3260 4100 (2008) 482 (2012) 2590 697 1360 1500 2650 3700 3850 4090
2020-05-20 09:30 7.18 3260 4100 (2008) 482 (2012) 2590 697 1360 1500 2650 3700 3850 4090
2020-05-20 08:30 7.18 3260 4100 (2008) 482 (2012) 2590 697 1360 1500 2650 3700 3850 4090
2020-05-20 07:30 7.17 3260 4100 (2008) 482 (2012) 2590 697 1360 1500 2650 3700 3850 4090
2020-05-20 06:30 7.17 3260 4100 (2008) 482 (2012) 2590 697 1360 1500 2650 3700 3850 4090
2020-05-20 05:30 7.16 3250 4100 (2008) 482 (2012) 2590 697 1360 1500 2650 3700 3850 4090
2020-05-20 04:30 7.14 3230 4100 (2008) 482 (2012) 2590 697 1360 1500 2650 3700 3850 4090
2020-05-20 03:30 7.13 3220 4100 (2008) 482 (2012) 2590 697 1360 1500 2650 3700 3850 4090
2020-05-20 02:30 7.11 3200 4100 (2008) 482 (2012) 2590 697 1360 1500 2650 3700 3850 4090
2020-05-20 01:30 7.08 3180 4100 (2008) 482 (2012) 2590 697 1360 1500 2650 3700 3850 4090
2020-05-20 00:30 7.05 3150 4100 (2008) 482 (2012) 2590 697 1360 1500 2650 3700 3850 4090
2020-05-19 23:30 7.00 3110 4150 (2008) 483 (2012) 2790 698 1430 1710 3000 4030 4060 4120
2020-05-19 22:30 6.96 3080 4150 (2008) 483 (2012) 2790 698 1430 1710 3000 4030 4060 4120
2020-05-19 21:30 6.94 3060 4150 (2008) 483 (2012) 2790 698 1430 1710 3000 4030 4060 4120
2020-05-19 20:30 6.91 3040 4150 (2008) 483 (2012) 2790 698 1430 1710 3000 4030 4060 4120
2020-05-19 19:30 6.90 3030 4150 (2008) 483 (2012) 2790 698 1430 1710 3000 4030 4060 4120
2020-05-19 18:30 6.87 3000 4150 (2008) 483 (2012) 2790 698 1430 1710 3000 4030 4060 4120
2020-05-19 17:30 6.84 2980 4150 (2008) 483 (2012) 2790 698 1430 1710 3000 4030 4060 4120
2020-05-19 16:30 6.80 2940 4150 (2008) 483 (2012) 2790 698 1430 1710 3000 4030 4060 4120
2020-05-19 15:30 6.76 2910 4150 (2008) 483 (2012) 2790 698 1430 1710 3000 4030 4060 4120
2020-05-19 14:30 6.74 2890 4150 (2008) 483 (2012) 2790 698 1430 1710 3000 4030 4060 4120
2020-05-19 13:30 6.72 2880 4150 (2008) 483 (2012) 2790 698 1430 1710 3000 4030 4060 4120
2020-05-19 12:30 6.72 2880 4150 (2008) 483 (2012) 2790 698 1430 1710 3000 4030 4060 4120
2020-05-19 11:30 6.73 2880 4150 (2008) 483 (2012) 2790 698 1430 1710 3000 4030 4060 4120
2020-05-19 10:30 6.72 2880 4150 (2008) 483 (2012) 2790 698 1430 1710 3000 4030 4060 4120
2020-05-19 09:30 6.73 2880 4150 (2008) 483 (2012) 2790 698 1430 1710 3000 4030 4060 4120
2020-05-19 08:30 6.72 2880 4150 (2008) 483 (2012) 2790 698 1430 1710 3000 4030 4060 4120
2020-05-19 07:30 6.72 2880 4150 (2008) 483 (2012) 2790 698 1430 1710 3000 4030 4060 4120
2020-05-19 06:30 6.71 2870 4150 (2008) 483 (2012) 2790 698 1430 1710 3000 4030 4060 4120
2020-05-19 05:30 6.70 2860 4150 (2008) 483 (2012) 2790 698 1430 1710 3000 4030 4060 4120
2020-05-19 04:30 6.68 2840 4150 (2008) 483 (2012) 2790 698 1430 1710 3000 4030 4060 4120
2020-05-19 03:30 6.66 2820 4150 (2008) 483 (2012) 2790 698 1430 1710 3000 4030 4060 4120
2020-05-19 02:30 6.63 2800 4150 (2008) 483 (2012) 2790 698 1430 1710 3000 4030 4060 4120
2020-05-19 01:30 6.59 2760 4150 (2008) 483 (2012) 2790 698 1430 1710 3000 4030 4060 4120
2020-05-19 00:30 6.54 2710 4150 (2008) 483 (2012) 2790 698 1430 1710 3000 4030 4060 4120
2020-05-18 23:30 6.48 2660 4230 (2008) 485 (2012) 2850 672 1420 1730 3400 3890 4010 4200
2020-05-18 22:30 6.42 2610 4230 (2008) 485 (2012) 2850 672 1420 1730 3400 3890 4010 4200
2020-05-18 21:30 6.35 2550 4230 (2008) 485 (2012) 2850 672 1420 1730 3400 3890 4010 4200
2020-05-18 20:30 6.29 2490 4230 (2008) 485 (2012) 2850 672 1420 1730 3400 3890 4010 4200
2020-05-18 19:30 6.20 2420 4230 (2008) 485 (2012) 2850 672 1420 1730 3400 3890 4010 4200
2020-05-18 18:30 6.10 2330 4230 (2008) 485 (2012) 2850 672 1420 1730 3400 3890 4010 4200
2020-05-18 17:30 5.97 2220 4230 (2008) 485 (2012) 2850 672 1420 1730 3400 3890 4010 4200
2020-05-18 16:30 5.81 2090 4230 (2008) 485 (2012) 2850 672 1420 1730 3400 3890 4010 4200
2020-05-18 15:30 5.66 1970 4230 (2008) 485 (2012) 2850 672 1420 1730 3400 3890 4010 4200
2020-05-18 14:30 5.56 1890 4230 (2008) 485 (2012) 2850 672 1420 1730 3400 3890 4010 4200
2020-05-18 13:30 5.54 1880 4230 (2008) 485 (2012) 2850 672 1420 1730 3400 3890 4010 4200
2020-05-18 12:30 5.58 1910 4230 (2008) 485 (2012) 2850 672 1420 1730 3400 3890 4010 4200
2020-05-18 11:30 5.64 1960 4230 (2008) 485 (2012) 2850 672 1420 1730 3400 3890 4010 4200
2020-05-18 10:30 5.69 2000 4230 (2008) 485 (2012) 2850 672 1420 1730 3400 3890 4010 4200
2020-05-18 09:30 5.75 2040 4230 (2008) 485 (2012) 2850 672 1420 1730 3400 3890 4010 4200
2020-05-18 08:30 5.82 2100 4230 (2008) 485 (2012) 2850 672 1420 1730 3400 3890 4010 4200
2020-05-18 07:30 5.89 2160 4230 (2008) 485 (2012) 2850 672 1420 1730 3400 3890 4010 4200
2020-05-18 06:30 5.97 2220 4230 (2008) 485 (2012) 2850 672 1420 1730 3400 3890 4010 4200
2020-05-18 05:30 6.07 2310 4230 (2008) 485 (2012) 2850 672 1420 1730 3400 3890 4010 4200
2020-05-18 04:30 6.17 2390 4230 (2008) 485 (2012) 2850 672 1420 1730 3400 3890 4010 4200
2020-05-18 03:30 6.28 2490 4230 (2008) 485 (2012) 2850 672 1420 1730 3400 3890 4010 4200
2020-05-18 02:30 6.40 2590 4230 (2008) 485 (2012) 2850 672 1420 1730 3400 3890 4010 4200
2020-05-18 01:30 6.55 2720 4230 (2008) 485 (2012) 2850 672 1420 1730 3400 3890 4010 4200
2020-05-18 00:30 6.70 2860 4230 (2008) 485 (2012) 2850 672 1420 1730 3400 3890 4010 4200
2020-05-17 23:30 6.86 2990 4380 (2008) 481 (2012) 2850 603 901 1220 3560 3960 4060 4320
2020-05-17 22:30 7.05 3150 4380 (2008) 481 (2012) 2850 603 901 1220 3560 3960 4060 4320
2020-05-17 21:30 7.25 3330 4380 (2008) 481 (2012) 2850 603 901 1220 3560 3960 4060 4320
2020-05-17 20:30 7.41 3460 4380 (2008) 481 (2012) 2850 603 901 1220 3560 3960 4060 4320
2020-05-17 19:30 7.58 3610 4380 (2008) 481 (2012) 2850 603 901 1220 3560 3960 4060 4320
2020-05-17 18:30 7.74 3760 4380 (2008) 481 (2012) 2850 603 901 1220 3560 3960 4060 4320
2020-05-17 17:30 7.91 3910 4380 (2008) 481 (2012) 2850 603 901 1220 3560 3960 4060 4320
2020-05-17 16:30 8.13 4110 4380 (2008) 481 (2012) 2850 603 901 1220 3560 3960 4060 4320
2020-05-17 15:30 8.37 4340 4380 (2008) 481 (2012) 2850 603 901 1220 3560 3960 4060 4320
2020-05-17 14:30 8.62 4570 4380 (2008) 481 (2012) 2850 603 901 1220 3560 3960 4060 4320
2020-05-17 13:30 8.80 4750 4380 (2008) 481 (2012) 2850 603 901 1220 3560 3960 4060 4320
2020-05-17 12:30 8.84 4790 4380 (2008) 481 (2012) 2850 603 901 1220 3560 3960 4060 4320
2020-05-17 11:30 8.67 4620 4380 (2008) 481 (2012) 2850 603 901 1220 3560 3960 4060 4320
2020-05-17 10:30 8.35 4320 4380 (2008) 481 (2012) 2850 603 901 1220 3560 3960 4060 4320
2020-05-17 09:30 7.93 3930 4380 (2008) 481 (2012) 2850 603 901 1220 3560 3960 4060 4320
2020-05-17 08:30 7.55 3590 4380 (2008) 481 (2012) 2850 603 901 1220 3560 3960 4060 4320
2020-05-17 07:30 7.29 3360 4380 (2008) 481 (2012) 2850 603 901 1220 3560 3960 4060 4320
2020-05-17 06:30 7.14 3230 4380 (2008) 481 (2012) 2850 603 901 1220 3560 3960 4060 4320
2020-05-17 05:30 7.04 3150 4380 (2008) 481 (2012) 2850 603 901 1220 3560 3960 4060 4320
2020-05-17 04:30 6.97 3090 4380 (2008) 481 (2012) 2850 603 901 1220 3560 3960 4060 4320
2020-05-17 03:30 6.92 3040 4380 (2008) 481 (2012) 2850 603 901 1220 3560 3960 4060 4320
2020-05-17 02:30 6.85 2980 4380 (2008) 481 (2012) 2850 603 901 1220 3560 3960 4060 4320
2020-05-17 01:30 6.74 2890 4380 (2008) 481 (2012) 2850 603 901 1220 3560 3960 4060 4320
2020-05-17 00:30 6.63 2800 4380 (2008) 481 (2012) 2850 603 901 1220 3560 3960 4060 4320
2020-05-16 23:30 6.52 2700 4330 (2008) 489 (2012) 2760 567 757 1060 3470 4000 4100 4280
2020-05-16 22:30 6.43 2620 4330 (2008) 489 (2012) 2760 567 757 1060 3470 4000 4100 4280
2020-05-16 21:30 6.38 2570 4330 (2008) 489 (2012) 2760 567 757 1060 3470 4000 4100 4280
2020-05-16 20:30 6.38 2570 4330 (2008) 489 (2012) 2760 567 757 1060 3470 4000 4100 4280
2020-05-16 19:30 6.37 2560 4330 (2008) 489 (2012) 2760 567 757 1060 3470 4000 4100 4280
2020-05-16 18:30 6.36 2560 4330 (2008) 489 (2012) 2760 567 757 1060 3470 4000 4100 4280
2020-05-16 17:30 6.37 2560 4330 (2008) 489 (2012) 2760 567 757 1060 3470 4000 4100 4280
2020-05-16 16:30 6.36 2560 4330 (2008) 489 (2012) 2760 567 757 1060 3470 4000 4100 4280
2020-05-16 15:30 6.36 2560 4330 (2008) 489 (2012) 2760 567 757 1060 3470 4000 4100 4280
2020-05-16 14:30 6.38 2570 4330 (2008) 489 (2012) 2760 567 757 1060 3470 4000 4100 4280
2020-05-16 13:30 6.40 2590 4330 (2008) 489 (2012) 2760 567 757 1060 3470 4000 4100 4280
2020-05-16 12:30 6.41 2600 4330 (2008) 489 (2012) 2760 567 757 1060 3470 4000 4100 4280
2020-05-16 11:30 6.43 2620 4330 (2008) 489 (2012) 2760 567 757 1060 3470 4000 4100 4280
2020-05-16 10:30 6.45 2630 4330 (2008) 489 (2012) 2760 567 757 1060 3470 4000 4100 4280
2020-05-16 09:30 6.47 2650 4330 (2008) 489 (2012) 2760 567 757 1060 3470 4000 4100 4280
2020-05-16 08:30 6.50 2680 4330 (2008) 489 (2012) 2760 567 757 1060 3470 4000 4100 4280
2020-05-16 07:30 6.52 2700 4330 (2008) 489 (2012) 2760 567 757 1060 3470 4000 4100 4280
2020-05-16 06:30 6.54 2710 4330 (2008) 489 (2012) 2760 567 757 1060 3470 4000 4100 4280
2020-05-16 05:30 6.57 2740 4330 (2008) 489 (2012) 2760 567 757 1060 3470 4000 4100 4280
2020-05-16 04:30 6.60 2770 4330 (2008) 489 (2012) 2760 567 757 1060 3470 4000 4100 4280
2020-05-16 03:30 6.64 2800 4330 (2008) 489 (2012) 2760 567 757 1060 3470 4000 4100 4280
2020-05-16 02:30 6.68 2840 4330 (2008) 489 (2012) 2760 567 757 1060 3470 4000 4100 4280
2020-05-16 01:30 6.72 2880 4330 (2008) 489 (2012) 2760 567 757 1060 3470 4000 4100 4280
2020-05-16 00:30 6.76 2910 4330 (2008) 489 (2012) 2760 567 757 1060 3470 4000 4100 4280
2020-05-15 23:30 6.81 2950 4300 (2008) 502 (2012) 2750 580 762 1120 3190 4030 4130 4270
2020-05-15 22:30 6.85 2980 4300 (2008) 502 (2012) 2750 580 762 1120 3190 4030 4130 4270
2020-05-15 21:30 6.90 3030 4300 (2008) 502 (2012) 2750 580 762 1120 3190 4030 4130 4270
2020-05-15 20:30 6.93 3050 4300 (2008) 502 (2012) 2750 580 762 1120 3190 4030 4130 4270
2020-05-15 19:30 6.94 3060 4300 (2008) 502 (2012) 2750 580 762 1120 3190 4030 4130 4270
2020-05-15 18:30 6.91 3040 4300 (2008) 502 (2012) 2750 580 762 1120 3190 4030 4130 4270
2020-05-15 17:30 6.84 2980 4300 (2008) 502 (2012) 2750 580 762 1120 3190 4030 4130 4270
2020-05-15 16:30 6.73 2880 4300 (2008) 502 (2012) 2750 580 762 1120 3190 4030 4130 4270
2020-05-15 15:30 6.63 2800 4300 (2008) 502 (2012) 2750 580 762 1120 3190 4030 4130 4270
2020-05-15 14:30 6.54 2710 4300 (2008) 502 (2012) 2750 580 762 1120 3190 4030 4130 4270
2020-05-15 13:30 6.45 2630 4300 (2008) 502 (2012) 2750 580 762 1120 3190 4030 4130 4270
2020-05-15 12:30 6.38 2570 4300 (2008) 502 (2012) 2750 580 762 1120 3190 4030 4130 4270
2020-05-15 11:30 6.32 2520 4300 (2008) 502 (2012) 2750 580 762 1120 3190 4030 4130 4270
2020-05-15 10:30 6.28 2490 4300 (2008) 502 (2012) 2750 580 762 1120 3190 4030 4130 4270
2020-05-15 09:30 6.23 2440 4300 (2008) 502 (2012) 2750 580 762 1120 3190 4030 4130 4270
2020-05-15 08:30 6.19 2410 4300 (2008) 502 (2012) 2750 580 762 1120 3190 4030 4130 4270
2020-05-15 07:30 6.15 2370 4300 (2008) 502 (2012) 2750 580 762 1120 3190 4030 4130 4270
2020-05-15 06:30 6.12 2350 4300 (2008) 502 (2012) 2750 580 762 1120 3190 4030 4130 4270
2020-05-15 05:30 6.09 2320 4300 (2008) 502 (2012) 2750 580 762 1120 3190 4030 4130 4270
2020-05-15 04:30 6.04 2280 4300 (2008) 502 (2012) 2750 580 762 1120 3190 4030 4130 4270
2020-05-15 03:30 6.00 2250 4300 (2008) 502 (2012) 2750 580 762 1120 3190 4030 4130 4270
2020-05-15 02:30 5.97 2220 4300 (2008) 502 (2012) 2750 580 762 1120 3190 4030 4130 4270
2020-05-15 01:30 5.96 2210 4300 (2008) 502 (2012) 2750 580 762 1120 3190 4030 4130 4270
2020-05-15 00:30 5.94 2200 4300 (2008) 502 (2012) 2750 580 762 1120 3190 4030 4130 4270

A total of 2190 rows are displayed for years 2008 through 2019.